[[{"header":{"parameterUnit":"m.s-1","parameterCategory":1,"la1":30.6,"la2":29.2853,"lo1":-89.7004,"lo2":-87.6739,"dy":0.0162,"dx":0.0183,"nx":112,"ny":82,"refTime":"2023-06-19T06:00:00:Z","depth":0,"parameterNumber":2,"parameterNumberName":"U-component_of_WINDS"},"data":[0.0,0.0,0.0,0.0,0.0,0.0,0.0,0.0,0.0,0.0,0.0,0.0,0.0,0.0,0.0,0.0,0.0,0.0,0.0,0.0,0.0,0.0,0.0,0.0,0.0,0.0,0.0,0.0,0.0,0.0,0.0,0.0,0.0,0.0,0.0,0.0,0.0,0.0,0.0,0.0,0.0,0.0,0.0,0.0,0.0,0.0,0.0,0.0,0.0,0.0,0.0,0.0,0.0,0.0,0.0,0.0,0.0,0.0,0.0,0.0,0.0,0.0,0.0,0.0,0.0,0.0,0.0,0.0,0.0,0.0,0.0,0.0,0.0,0.0,0.0,0.0,0.0,0.0,0.0,0.0,0.0,0.0,0.0,0.0,0.0,0.0,0.0,0.0,0.0,0.0,0.0,-1.2607,-1.4405,-1.5159,-1.4213,-1.4795,-1.4898,-1.4166,0.0,0.0,0.0,0.0,0.0,0.0,0.0,0.0,0.0,0.0,0.0,0.0,0.0,0.0,0.0,0.0,0.0,0.0,0.0,0.0,0.0,0.0,0.0,0.0,0.0,0.0,0.0,0.0,0.0,0.0,0.0,0.0,0.0,0.0,0.0,0.0,0.0,0.0,0.0,0.0,0.0,0.0,0.0,0.0,0.0,0.0,0.0,0.0,0.0,0.0,0.0,0.0,0.0,0.0,0.0,0.0,0.0,0.0,0.0,0.0,0.0,0.0,0.0,0.0,0.0,0.0,0.0,0.0,0.0,0.0,0.0,0.0,0.0,0.0,0.0,0.0,0.0,0.0,0.0,0.0,0.0,0.0,0.0,0.0,0.0,0.0,0.0,0.0,0.0,0.0,0.0,0.0,0.0,0.0,0.0,0.0,0.0,0.0,0.0,0.0,0.0,0.0,0.0,0.0,-1.0954,-1.1805,-1.3499,-1.4439,-1.4304,-1.486,-1.5019,-1.4541,0.0,0.0,0.0,0.0,0.0,0.0,0.0,0.0,0.0,0.0,0.0,0.0,0.0,0.0,0.0,0.0,0.0,0.0,0.0,0.0,0.0,0.0,0.0,0.0,0.0,0.0,0.0,0.0,0.0,0.0,0.0,0.0,0.0,0.0,0.0,0.0,0.0,0.0,0.0,0.0,0.0,0.0,0.0,0.0,0.0,0.0,0.0,0.0,0.0,0.0,0.0,0.0,0.0,0.0,0.0,0.0,0.0,0.0,0.0,0.0,0.0,0.0,0.0,0.0,0.0,0.0,0.0,0.0,0.0,0.0,0.0,0.0,0.0,0.0,0.0,0.0,0.0,0.0,0.0,0.0,0.0,0.0,0.0,0.0,0.0,0.0,0.0,0.0,0.0,0.0,0.0,0.0,0.0,0.0,0.0,0.0,0.0,0.0,0.0,0.0,0.0,0.0,0.0,-1.0807,-1.1288,-1.1819,-1.3289,-1.4047,-1.3593,-1.4569,-1.4999,-1.4496,-1.4695,0.0,0.0,0.0,0.0,0.0,0.0,0.0,0.0,0.0,0.0,0.0,0.0,0.0,0.0,0.0,0.0,0.0,0.0,0.0,0.0,0.0,0.0,0.0,0.0,0.0,0.0,0.0,0.0,0.0,0.0,0.0,0.0,0.0,0.0,0.0,0.0,0.0,0.0,0.0,0.0,0.0,0.0,0.0,0.0,0.0,0.0,0.0,0.0,0.0,0.0,0.0,0.0,0.0,0.0,0.0,0.0,0.0,0.0,0.0,0.0,0.0,0.0,0.0,0.0,0.0,0.0,0.0,0.0,0.0,0.0,0.0,0.0,0.0,0.0,0.0,0.0,0.0,0.0,0.0,0.0,0.0,0.0,0.0,0.0,0.0,0.0,0.0,0.0,0.0,0.0,0.0,0.0,0.0,0.0,0.0,0.0,0.0,0.0,0.0,0.0,0.0,0.0,-1.1316,-1.157,-1.1819,-1.3209,-1.3838,-1.3171,-1.4201,-1.4757,-1.4522,-1.4781,0.0,0.0,0.0,0.0,0.0,0.0,0.0,0.0,0.0,0.0,0.0,0.0,0.0,0.0,0.0,0.0,0.0,0.0,0.0,0.0,0.0,0.0,0.0,0.0,0.0,0.0,0.0,0.0,0.0,0.0,0.0,0.0,0.0,0.0,0.0,0.0,0.0,0.0,0.0,0.0,0.0,0.0,0.0,0.0,0.0,0.0,0.0,0.0,0.0,0.0,0.0,0.0,0.0,0.0,0.0,0.0,0.0,0.0,0.0,0.0,0.0,0.0,0.0,0.0,0.0,0.0,0.0,0.0,0.0,0.0,0.0,0.0,0.0,0.0,0.0,0.0,0.0,0.0,0.0,0.0,0.0,0.0,0.0,0.0,0.0,0.0,0.0,0.0,0.0,0.0,0.0,0.0,0.0,0.0,0.0,0.0,0.0,0.0,0.0,0.0,0.0,0.0,-1.1115,-1.1273,-1.123,-1.2785,-1.381,-1.3753,-1.3825,-1.4261,-1.5087,-1.4678,0.0,0.0,0.0,0.0,0.0,0.0,0.0,0.0,0.0,0.0,0.0,0.0,0.0,0.0,0.0,0.0,0.0,0.0,0.0,0.0,0.0,0.0,0.0,0.0,0.0,0.0,0.0,0.0,0.0,0.0,0.0,0.0,0.0,0.0,0.0,0.0,0.0,0.0,0.0,0.0,0.0,0.0,0.0,0.0,0.0,0.0,0.0,0.0,0.0,0.0,0.0,0.0,0.0,0.0,0.0,0.0,0.0,0.0,0.0,0.0,0.0,0.0,0.0,0.0,0.0,0.0,0.0,0.0,0.0,0.0,0.0,0.0,0.0,0.0,0.0,0.0,0.0,0.0,0.0,0.0,0.0,0.0,0.0,0.0,0.0,0.0,0.0,0.0,0.0,0.0,0.0,0.0,0.0,0.0,0.0,0.0,0.0,0.0,0.0,0.0,0.0,0.0,-1.0968,-1.0811,0.0,-1.1676,-1.238,-1.2645,-1.3317,-1.4124,-1.492,0.0,0.0,0.0,0.0,0.0,0.0,0.0,0.0,0.0,0.0,0.0,0.0,0.0,0.0,0.0,0.0,0.0,0.0,0.0,0.0,0.0,0.0,0.0,0.0,0.0,0.0,0.0,0.0,0.0,0.0,0.0,0.0,0.0,0.0,0.0,0.0,0.0,0.0,0.0,0.0,0.0,0.0,0.0,0.0,0.0,0.0,0.0,0.0,0.0,0.0,0.0,0.0,0.0,0.0,0.0,0.0,0.0,0.0,0.0,0.0,0.0,0.0,0.0,0.0,0.0,0.0,0.0,0.0,0.0,0.0,0.0,0.0,0.0,0.0,0.0,0.0,0.0,0.0,0.0,0.0,0.0,0.0,0.0,0.0,0.0,0.0,0.0,0.0,0.0,0.0,0.0,0.0,0.0,0.0,0.0,0.0,0.0,0.0,0.0,0.0,0.0,0.0,-1.1179,-1.1057,-1.1007,0.0,-1.1585,-1.2078,-1.2792,-1.3171,-1.397,-1.5117,0.0,0.0,0.0,0.0,0.0,0.0,0.0,0.0,0.0,0.0,0.0,0.0,0.0,0.0,0.0,0.0,0.0,0.0,0.0,0.0,0.0,0.0,0.0,0.0,0.0,0.0,0.0,0.0,0.0,0.0,0.0,0.0,0.0,0.0,0.0,0.0,0.0,0.0,0.0,0.0,0.0,0.0,0.0,0.0,0.0,0.0,0.0,0.0,0.0,0.0,0.0,0.0,0.0,0.0,0.0,0.0,0.0,0.0,0.0,0.0,0.0,0.0,0.0,0.0,0.0,0.0,0.0,0.0,0.0,0.0,0.0,0.0,0.0,0.0,0.0,0.0,0.0,0.0,0.0,0.0,0.0,0.0,0.0,0.0,0.0,0.0,0.0,0.0,0.0,0.0,0.0,0.0,0.0,0.0,0.0,0.0,0.0,0.0,0.0,0.0,0.0,0.0,-1.0797,-1.1227,-1.1793,-1.2417,-1.2711,-1.3331,-1.4505,-1.355,-1.3768,0.0,0.0,0.0,0.0,0.0,0.0,0.0,0.0,0.0,0.0,0.0,0.0,0.0,0.0,0.0,0.0,0.0,0.0,0.0,0.0,0.0,0.0,0.0,0.0,0.0,0.0,0.0,0.0,0.0,0.0,0.0,0.0,0.0,0.0,0.0,0.0,0.0,0.0,0.0,0.0,0.0,0.0,0.0,0.0,0.0,0.0,0.0,0.0,0.0,0.0,0.0,0.0,0.0,0.0,0.0,0.0,0.0,0.0,0.0,0.0,0.0,0.0,0.0,0.0,0.0,0.0,0.0,0.0,0.0,0.0,0.0,0.0,0.0,0.0,0.0,0.0,0.0,0.0,0.0,0.0,0.0,0.0,0.0,0.0,0.0,0.0,0.0,0.0,0.0,0.0,0.0,0.0,0.0,0.0,0.0,0.0,0.0,0.0,0.0,0.0,0.0,0.0,0.0,-1.1861,-1.1501,-1.1292,-1.15,-1.1944,-1.2681,-1.371,-1.3594,-1.4294,-1.6076,0.0,0.0,0.0,0.0,0.0,0.0,0.0,0.0,0.0,0.0,0.0,0.0,0.0,0.0,0.0,0.0,0.0,0.0,0.0,0.0,0.0,0.0,0.0,0.0,0.0,0.0,0.0,0.0,0.0,0.0,0.0,0.0,0.0,0.0,0.0,0.0,0.0,0.0,0.0,0.0,0.0,0.0,0.0,0.0,0.0,0.0,0.0,0.0,0.0,0.0,0.0,0.0,0.0,0.0,0.0,0.0,0.0,0.0,0.0,0.0,0.0,0.0,0.0,0.0,0.0,0.0,0.0,0.0,0.0,0.0,0.0,0.0,0.0,0.0,0.0,0.0,0.0,0.0,0.0,0.0,0.0,0.0,0.0,0.0,0.0,0.0,0.0,0.0,0.0,0.0,0.0,0.0,0.0,0.0,0.0,0.0,0.0,0.0,0.0,0.0,0.0,0.0,-1.205,-1.1535,-1.1228,-1.1552,-1.1727,-1.2372,-1.3801,-1.3885,-1.453,-1.6187,0.0,0.0,0.0,0.0,0.0,0.0,0.0,0.0,0.0,0.0,0.0,0.0,0.0,0.0,0.0,0.0,0.0,0.0,0.0,0.0,0.0,0.0,0.0,0.0,0.0,0.0,0.0,0.0,0.0,0.0,0.0,0.0,0.0,0.0,0.0,0.0,0.0,0.0,0.0,0.0,0.0,0.0,0.0,0.0,0.0,0.0,0.0,0.0,0.0,0.0,0.0,0.0,0.0,0.0,0.0,0.0,0.0,0.0,0.0,0.0,0.0,0.0,0.0,0.0,0.0,0.0,0.0,0.0,0.0,0.0,0.0,0.0,0.0,0.0,0.0,0.0,0.0,0.0,0.0,0.0,0.0,0.0,0.0,0.0,0.0,0.0,0.0,0.0,0.0,0.0,0.0,0.0,0.0,0.0,0.0,0.0,0.0,0.0,0.0,0.0,0.0,0.0,-1.1729,-1.1464,-1.1577,-1.2363,-1.2093,-1.2596,-1.4599,-1.4301,-1.4691,-1.6283,0.0,0.0,0.0,0.0,0.0,0.0,0.0,0.0,0.0,0.0,0.0,0.0,0.0,0.0,0.0,0.0,0.0,0.0,0.0,0.0,0.0,0.0,0.0,0.0,0.0,0.0,0.0,0.0,0.0,0.0,0.0,0.0,0.0,0.0,0.0,0.0,0.0,0.0,0.0,0.0,0.0,0.0,0.0,0.0,0.0,0.0,0.0,0.0,0.0,0.0,0.0,0.0,0.0,0.0,0.0,0.0,0.0,0.0,0.0,0.0,0.0147,0.0,0.0,0.0,0.0,0.0,0.0,0.0,0.0,0.0,0.0,0.0,0.0,0.0,0.0,0.0,0.0,0.0,0.0,0.0,0.0,0.0,0.0,0.0,0.0,0.0,0.0,0.0,0.0,0.0,0.0,0.0,0.0,0.0,0.0,0.0,0.0,0.0,0.0,0.0,0.0,0.0,-1.2218,-1.2428,-1.2622,-1.2765,-1.3549,-1.4394,-1.5113,-1.5217,-1.587,-1.708,-1.6996,0.0,0.0,0.0,0.0,0.0,0.0,0.0,0.0,0.0,0.0,0.0,0.0,0.0,0.0,0.0,0.0,0.0,0.0,0.0,0.0,0.0,0.0,0.0,0.0,0.0,0.0,0.0,0.0,0.0,0.0,0.0,0.0,0.0,0.0,0.0,0.0,0.0,0.0,0.0,0.0,0.0,0.0,0.0,0.0,0.0,0.0,0.0,0.0,0.0,0.0,0.0,0.0,0.0,0.0,0.0,0.0,0.0,0.0,0.0,0.0,-0.0785,0.0,0.0,0.0,0.0,0.0,0.0,0.0,0.0,0.0,0.0,0.0,0.0,0.0,0.0,0.0,0.0,0.0,0.0,0.0,0.0,0.0,0.0,0.0,0.0,0.0,0.0,0.0,0.0,0.0,0.0,0.0,0.0,0.0,0.0,0.0,0.0,0.0,0.0,0.0,0.0,-1.2609,-1.2463,-1.2443,-1.2569,-1.3467,-1.4313,-1.4967,-1.5403,-1.6094,-1.7006,-1.7316,0.0,0.0,0.0,0.0,0.0,0.0,0.0,0.0,0.0,0.0,0.0,0.0,0.0,0.0,0.0,0.0,0.0,0.0,0.0,0.0,0.0,0.0,0.0,0.0,0.0,0.0,0.0,0.0,0.0,0.0,0.0,0.0,0.0,0.0,0.0,0.0,0.0,0.0,0.0,0.0,0.0,0.0,0.0,0.0,0.0,0.0,0.0,0.0,0.0,0.0,0.0,0.0,0.0,0.5427,0.4141,0.3663,0.2381,0.1925,0.2104,0.0706,0.0258,0.0253,0.0,0.0,0.0,0.0,0.0,0.0,0.0,0.0,0.0,0.0,0.0,0.0,0.0,0.0,0.0,0.0,0.0,0.0,0.0,0.0,0.0,0.0,0.0,0.0,0.0,-0.979,-1.0028,0.0,0.0,0.0,0.0,0.0,0.0,0.0,0.0,0.0,0.0,0.0,0.0,-1.2763,-1.2519,-1.2469,-1.2692,-1.3448,-1.42,-1.4963,-1.5575,-1.6154,-1.6812,-1.7546,-1.8066,0.0,0.0,0.0,0.0,0.0,0.0,0.0,0.0,0.0,0.0,0.0,0.0,0.0,0.0,0.0,0.0,0.0,0.0,0.0,0.0,0.0,0.0,0.0,0.0,0.0,0.0,0.0,0.0,0.0,0.0,0.0,0.0,0.6889,0.7383,0.0,0.0,0.0,0.0,0.0,0.0,0.0,0.0,0.0,0.0,0.0,0.0,0.0,0.6554,0.5505,0.7184,0.7124,0.5354,0.6208,0.5723,0.3966,0.3375,0.2781,0.2286,0.1584,0.0,0.0431,0.0086,0.0,0.0,0.0,0.0,0.0,0.0,0.0,0.0,0.0,0.0,0.0,0.0,0.0,0.0,0.0,0.0,0.0,0.0,0.0,0.0,0.0,0.0,-1.0086,-1.0632,-1.0609,-1.0692,0.0,-1.1321,-1.1111,-1.1192,-1.1594,0.0,0.0,0.0,0.0,0.0,0.0,0.0,-1.2416,-1.3539,-1.4379,-1.442,-1.5501,-1.6273,-1.6402,-1.6484,-1.6812,-1.7318,-1.7708,-1.8348,-1.9088,-1.948,0.0,0.0,0.0,0.0,0.0,0.0,0.0,0.0,0.0,0.0,0.0,0.0,0.0,0.0,0.0,0.0,0.0,0.0,0.0,0.0,0.0,0.0,0.0,0.0,0.0,0.0,0.0,0.0,0.0,0.6578,0.7626,0.7901,0.6398,0.5106,0.0,0.0,0.0,0.0,0.0,0.0,0.0,0.0,0.0,0.5839,0.6671,0.7026,0.7083,0.7284,0.6883,0.5782,0.5166,0.4417,0.3635,0.2806,0.2288,0.1976,0.177,0.1517,0.1152,0.0371,-0.0632,-0.1857,0.0,0.0,0.0,0.0,-0.4297,-0.4965,-0.47,-0.5181,0.0,-0.621,0.0,0.0,0.0,0.0,0.0,0.0,0.0,0.0,0.0,0.0,-1.0419,-1.0687,-1.0729,-1.077,-1.1413,-1.1561,-1.1693,0.0,-1.1862,-1.2064,-1.2412,0.0,0.0,0.0,0.0,0.0,-1.3039,-1.3611,-1.4213,-1.4563,-1.5504,-1.6279,-1.6707,-1.7063,-1.7488,-1.7994,-1.8414,-1.9002,-1.9578,-2.0014,-2.0338,0.0,0.0,0.0,0.0,0.0,0.0,0.0,0.0,0.0,0.0,0.0,0.0,0.0,0.0,0.0,0.0,0.0,0.0,0.0,0.0,0.0,0.0,0.0,0.0,0.0,0.0,0.0,0.0,0.7319,0.8302,0.8591,0.7491,0.6407,0.0,0.0,0.0,0.0,0.0,0.0,0.5657,0.5496,0.5931,0.7223,0.716,0.7232,0.7642,0.6958,0.6292,0.5666,0.4005,0.3087,0.2914,0.2061,0.1735,0.1727,0.1735,0.1719,0.1677,0.0594,-0.0,-0.0374,-0.1281,-0.227,-0.327,-0.327,-0.404,-0.5027,-0.4842,-0.5265,-0.5989,-0.6272,0.0,-0.7302,-0.8326,0.0,0.0,0.0,0.0,-1.0102,-1.001,-1.0102,-1.0399,-1.091,-1.0983,-1.1139,-1.1847,-1.2173,-1.2372,0.0,-1.225,-1.2388,-1.2481,0.0,0.0,0.0,0.0,-1.3586,-1.3549,-1.3689,-1.405,-1.4771,-1.5473,-1.6271,-1.7152,-1.7676,-1.8213,-1.8629,-1.9162,-1.9556,-1.9986,-2.0413,-2.0723,-2.0833,0.0,0.0,0.0,0.0,0.0,0.0,0.0,0.0,0.0,0.0,0.0,0.0,0.0,0.0,0.0,0.0,0.0,0.0,0.0,0.0,0.0,0.0,0.0,0.0,0.0,0.0,0.0,0.0,0.0,1.0231,0.8743,0.0,0.0,0.0,0.0,0.5161,0.5083,0.5616,0.6978,0.6726,0.716,0.8438,0.8488,0.7824,0.6768,0.6893,0.576,0.3597,0.3542,0.3013,0.1903,0.182,0.1817,0.1793,0.1821,0.18,0.1738,0.1546,0.0796,-0.0195,-0.0382,-0.1612,-0.3317,-0.3414,-0.3891,-0.466,-0.5228,-0.5422,-0.5516,-0.5989,-0.6555,-0.7208,-0.767,-0.8885,0.0,0.0,-0.9545,-1.001,-0.9638,-0.9452,-0.997,-1.1848,-1.2106,-1.2286,-1.3554,-1.3597,-1.3254,0.0,-1.2944,-1.3387,-1.3121,0.0,-1.3459,-1.3471,-1.3471,-1.3483,-1.3507,-1.405,-1.4757,-1.5473,-1.6197,-1.7167,-1.83,-1.8473,-1.8629,-1.9144,-1.9571,-2.0022,-2.0481,-2.0829,-2.1273,-2.1676,-2.1676,0.0,0.0,0.0,0.0,0.0,0.0,0.0,0.0,0.0,0.0,0.0,0.0,0.0,0.0,0.0,0.0,0.0,0.0,0.0,0.0,0.0,0.0,0.0,0.0,0.0,0.0,0.0,0.0,0.958,0.9192,0.0,0.8847,0.776,0.7362,0.7945,0.795,0.822,0.8888,0.8343,0.8374,0.9268,0.8395,0.763,0.7133,0.5672,0.4531,0.3495,0.2839,0.2164,0.1824,0.1814,0.1805,0.1795,0.1806,0.1798,0.1775,0.1077,0.0941,0.0914,-0.01,-0.1184,-0.2367,-0.3352,-0.4476,-0.5432,-0.5632,-0.5977,-0.6332,-0.6353,-0.6569,-0.6698,-0.6893,-0.7277,-0.7764,-0.8063,-0.8646,-0.9421,-1.0184,-1.0674,-1.1375,-1.2416,-1.2565,-1.2723,-1.3481,-1.353,-1.3485,-1.3401,-1.3477,-1.3483,-1.3387,-1.3459,-1.3568,-1.3737,-1.3761,-1.4007,-1.4646,-1.4484,-1.5032,-1.6791,-1.6805,-1.7172,-1.8536,-1.8987,-1.9435,-1.9881,-2.0324,-2.0837,-2.1246,-2.1423,-2.1585,-2.1731,-2.1731,-2.1731,0.0,0.0,0.0,0.0,0.0,0.0,0.0,0.0,0.0,0.0,0.0,0.0,0.0,0.0,0.0,0.0,0.0,0.0,0.0,0.0,0.0,0.0,0.0,0.0,0.0,0.0,0.8426,0.8929,0.9143,0.9252,0.9299,0.8787,0.8763,0.945,0.9503,0.955,0.9836,0.8811,0.8504,0.8833,0.7644,0.6693,0.617,0.4567,0.36,0.301,0.2203,0.1855,0.1855,0.1846,0.1835,0.1825,0.1836,0.1835,0.171,0.0901,0.0665,0.0649,-0.0521,-0.1641,-0.2666,-0.3792,-0.4957,-0.5955,-0.6162,-0.6422,-0.6785,-0.666,-0.6562,-0.6491,-0.6448,-0.6637,-0.693,-0.7726,-0.8528,-0.941,-1.0788,-1.158,-1.2068,-1.2856,-1.305,-1.3147,-1.363,-1.3727,-1.3776,-1.398,-1.3894,-1.3749,-1.3664,-1.3725,-1.3926,-1.4378,-1.4415,-1.476,-1.5697,-1.5343,-1.5724,-1.7498,-1.7419,-1.7792,-1.9196,-1.982,-2.0275,-2.0744,-2.1105,-2.1374,-2.1642,-2.1731,-2.1731,-2.1731,-2.1731,-2.1805,-2.1933,0.0,0.0,0.0,0.0,0.0,0.0,0.0,0.0,0.0,0.0,0.0,0.0,0.0,0.0,0.0,0.0,0.0,0.0,0.0,0.0,0.0,0.0,0.0,0.6389,0.6582,0.7304,0.8668,0.8772,0.891,0.9234,0.9264,0.933,0.95,0.9318,0.9356,0.9525,0.8153,0.7338,0.7459,0.6233,0.5018,0.3738,0.362,0.3114,0.1888,0.1888,0.1887,0.1888,0.1917,0.1914,0.1888,0.1917,0.1793,0.1768,0.1179,0.0236,-0.0937,-0.1642,-0.277,-0.4047,-0.468,-0.532,-0.6071,-0.66,-0.6812,-0.679,-0.6671,-0.6627,-0.66,-0.648,-0.7042,-0.7832,-0.8627,-0.9213,-1.0002,-1.158,-1.1873,-1.196,-1.3244,-1.3534,-1.363,-1.4208,-1.4292,-1.4292,-1.4292,-1.4292,-1.422,-1.3966,-1.4123,-1.458,-1.5343,-1.5439,0.0,-1.6494,-1.6588,-1.6951,-1.7684,-1.8149,-1.8888,-2.0201,-2.0727,-2.1177,-2.1642,-2.1731,-2.1731,-2.1731,-2.1731,-2.1731,-2.1731,-2.175,-2.1951,-2.2318,0.0,0.0,0.0,0.0,0.0,0.0,0.0,0.0,0.0,0.0,0.0,0.0,0.0,0.0,0.0,0.0,0.0,0.0,0.0,0.0,0.0,0.0,0.7184,0.7746,0.8419,0.9026,0.95,0.9772,0.992,1.0251,1.017,1.0286,1.0442,0.9208,0.8573,0.8684,0.7064,0.6267,0.6428,0.5255,0.4467,0.4357,0.3147,0.2376,0.1951,0.1929,0.1918,0.1918,0.1904,0.1657,0.1179,0.1184,0.142,0.1768,0.1179,0.0236,-0.1056,-0.2049,-0.315,-0.4379,-0.5992,-0.6623,-0.6837,-0.7056,-0.7002,-0.6931,-0.6893,-0.6823,-0.6835,-0.7322,-0.7883,-0.8564,-0.9937,-1.0681,-1.1365,-1.2748,-1.305,-1.3136,-1.3908,-1.4112,-1.4112,-1.4292,-1.4292,-1.4292,-1.4292,-1.4292,-1.4459,-1.4956,-1.4626,-1.4771,-1.6103,-1.5724,0.0,-1.7232,-1.7217,-1.7591,-1.8904,-1.898,-1.9347,-2.0201,-2.0727,-2.1087,-2.1177,-2.1553,-2.1731,-2.1731,-2.1731,-2.1731,-2.1731,-2.2025,-2.2226,0.0,0.0,0.0,0.0,0.0,0.0,0.0,0.0,0.0,0.0,0.0,0.0,0.0,0.0,0.0,0.0,0.0,0.0,0.0,0.0,0.0,0.0,0.8236,0.8177,0.8968,0.9356,0.9653,0.9873,0.9866,1.0083,1.0286,1.0172,1.0144,1.0415,0.8883,0.806,0.82,0.6302,0.535,0.5474,0.3989,0.3335,0.3532,0.2291,0.1648,0.1496,0.1606,0.1605,0.1613,0.1834,0.17,0.0,0.0724,0.0721,0.1082,0.0962,-0.0961,0.0,0.0,0.0,0.0,0.0,-0.7241,-0.7225,-0.7171,-0.7111,-0.7051,-0.7002,-0.7362,-0.7905,-0.8183,-0.8955,-0.9941,-1.0961,-1.1697,-1.2268,-1.3266,-1.363,-1.3919,-1.4208,-1.4292,-1.4292,-1.4292,-1.4292,-1.4292,-1.4292,-1.458,0.0,-1.5724,-1.5248,-1.5343,-1.7138,-1.6936,-1.7217,-1.8611,-1.8611,-1.8888,-1.982,-1.9894,-2.0167,-2.0546,-2.0997,0.0,0.0,0.0,-2.1731,-2.1731,-2.1731,0.0,0.0,0.0,-2.2502,-2.2832,0.0,0.0,0.0,-2.3363,-2.3103,0.0,0.0,0.0,0.0,0.0,0.0,0.0,0.0,0.0,0.0,0.0,0.0,0.0,0.0,0.0,0.0,0.901,0.9334,1.0025,0.9781,0.9632,0.989,0.9646,0.9571,0.9869,0.9734,0.97,0.9863,0.8628,0.776,0.7654,0.0,0.0,0.0,0.0,0.2027,0.2154,0.1517,0.1137,0.0884,0.0883,0.0888,0.0898,0.1521,0.1764,0.1637,-0.0124,-0.0864,-0.0864,-0.037,-0.3211,-0.7659,-0.5249,-0.4702,-0.5506,-0.6814,-0.7355,-0.7339,-0.722,0.0,0.0,-0.7149,-0.8081,-0.9226,-0.9166,-1.0264,-1.1569,-1.2072,-1.2615,-1.3071,-1.3573,-1.4013,-1.4377,-1.4352,-1.434,-1.434,-1.4304,-1.4292,-1.4292,-1.4388,-1.4962,-1.5724,-1.6574,-1.6103,-1.6183,-1.8149,-1.8334,-1.8796,-2.0019,-2.0201,-2.0292,-2.0292,0.0,0.0,-2.1087,-2.1463,-2.1731,-2.1731,-2.1731,-2.175,-2.1805,-2.1805,-2.1988,-2.2392,-2.2483,-2.2887,-2.3602,-2.3712,-2.4134,-2.4831,-2.4042,-2.3712,0.0,0.0,0.0,0.0,0.0,0.0,0.0,0.0,0.0,0.0,0.0,0.0,0.0,0.0,0.0,0.9889,1.0002,1.0029,1.0143,1.0123,1.022,1.0541,1.0175,1.0039,1.0331,1.0012,0.9781,1.0069,0.8329,0.7055,0.6383,0.3832,0.2305,0.1797,0.1413,0.1542,0.2187,0.2034,0.139,0.0253,0.0,0.0,0.0249,0.0372,0.0372,0.0124,-0.4459,-0.6319,-0.6315,-0.6192,-0.6927,-0.7888,-0.713,-0.702,-0.7168,-0.7375,-0.7486,-0.7464,-0.7345,-0.7301,-0.7279,-0.7388,-0.8329,-0.9377,-1.019,-1.1618,0.0,-1.3653,-1.4207,-1.4702,-1.4767,-1.4855,-1.4896,-1.469,-1.463,-1.457,-1.434,-1.4292,-1.4484,-1.5057,-1.5343,-1.5805,-1.7217,-1.6857,-1.6857,-1.8458,-1.8257,-1.8164,-1.9012,-1.9837,-2.0292,-2.0292,-2.1105,-2.1553,-2.1553,-2.1642,-2.1731,-2.1731,-2.1731,-2.1878,-2.219,-2.2208,-2.241,-2.2832,-2.3474,-2.3877,-2.4042,-2.4702,-2.5106,-2.5252,-2.4757,-2.4702,0.0,0.0,0.0,0.0,0.0,0.0,0.0,0.0,0.0,0.0,0.0,0.6258,0.0,0.0,0.905,0.9741,0.9823,0.9888,1.0178,1.0109,0.9971,1.0096,0.9825,0.9684,0.9755,0.9709,0.9645,0.9587,0.7355,0.5839,0.5426,0.328,0.1894,0.1514,0.089,0.0763,0.1137,0.1137,0.0758,-0.0,-0.0,-0.0,-0.0,-0.0,-0.0,-0.025,-0.5846,-0.8234,-0.8279,-0.8008,-0.7997,-0.797,-0.7839,-0.7752,-0.7698,-0.7633,-0.7611,-0.7595,-0.747,-0.7841,-0.8338,-0.7826,-0.9411,-1.1502,-1.1423,-1.2899,-1.4673,-1.485,-1.5088,-1.527,-1.5137,-1.5113,-1.5077,-1.4944,-1.4908,-1.4971,-1.5319,-1.5379,-1.5575,-1.6343,-1.6829,-1.727,-1.7873,-1.8127,-1.8645,-1.9396,-1.9271,-1.9271,-2.0093,-2.0654,-2.1015,-2.1015,-2.1374,-2.1731,-2.1731,-2.1915,-2.2116,-2.2337,-2.2337,-2.2428,-2.263,-2.2648,-2.2832,-2.314,-2.384,-2.4262,-2.4464,-2.5069,-2.5472,-2.5656,-2.5454,-2.5362,0.0,0.0,0.0,0.0,0.0,0.0,0.0,0.0,0.69,0.7808,0.8099,0.8308,0.827,0.866,0.9045,0.9307,0.9377,0.9642,1.01,0.9956,0.9703,0.9306,0.9287,0.9288,0.9184,0.9184,0.902,0.847,0.6206,0.457,0.397,0.2486,0.1616,0.1606,0.0503,-0.0,-0.0,-0.0,-0.0,-0.0,-0.0,-0.0,-0.0,-0.0,-0.0503,-0.1761,-0.585,-0.7992,-0.8449,-0.8165,-0.8154,-0.8143,-0.8038,-0.7994,-0.8105,-0.7769,-0.7736,-0.784,-0.7713,-0.8408,-0.9211,-0.8597,-1.0604,-1.3325,-1.2644,-1.404,-1.5849,-1.5632,-1.5572,-1.5523,-1.5318,-1.5258,-1.5246,-1.5197,-1.5287,-1.5568,-1.6212,-1.65,-1.69,-1.7683,-1.8277,-1.8694,-1.8712,-1.9542,-2.0245,-2.0178,-2.0201,-2.0564,-2.1374,-2.1553,-2.1553,-2.1553,-2.1715,-2.1878,-2.197,-2.2263,-2.2593,-2.2848,-2.2866,-2.2902,-2.2975,-2.2975,-2.329,-2.3767,-2.4189,-2.4592,-2.5014,-2.5417,-2.5766,-2.6078,-2.6078,-2.5913,0.1806,0.3239,0.5913,0.6298,0.5214,0.4735,0.0,0.0,0.7669,0.806,0.8158,0.8286,0.8689,0.8883,0.9209,0.9722,0.9883,0.9983,1.0155,1.0054,0.9724,0.8922,0.9303,0.9606,0.9594,0.9294,0.7991,0.5627,0.5073,0.3655,0.0756,0.0383,0.0254,0.0247,0.0127,-0.0,-0.0,-0.0,-0.0,-0.0,-0.0,-0.0,-0.0,-0.0,-0.2601,-0.6965,-0.5186,-0.5798,-0.7921,-0.7905,-0.8144,-0.8389,-0.8372,-0.8488,-0.8732,-0.8099,-0.8099,-0.8332,-0.8199,-0.8379,-0.8915,-0.9916,-1.1148,-1.2534,-1.3681,-1.4922,-1.5885,-1.5849,-1.5849,-1.5837,-1.5813,-1.5801,-1.5741,-1.5511,-1.6072,-1.6612,-1.6452,-1.7,-1.7683,-1.839,-1.8686,-1.9063,-2.0216,-2.0506,-2.045,-1.9754,-2.0019,-2.0382,-2.0473,-2.0817,-2.1087,-2.1087,-2.1771,-2.241,-2.2795,-2.2774,-2.2811,-2.2848,-2.2866,-2.3012,-2.3455,-2.3474,-2.384,-2.4629,-2.5032,-2.5436,-2.5839,-2.6243,-2.6481,-2.6518,-2.6518,-2.6499,0.1281,0.1196,0.0,0.0,0.6685,0.6416,0.718,0.7651,0.7933,0.806,0.8079,0.8099,0.8523,0.8716,0.8412,0.0,0.8288,0.9013,0.7261,0.694,0.7431,0.8676,0.8817,0.8915,0.8688,0.8805,0.8119,0.6751,0.3853,0.1422,0.0129,-0.0,-0.0,-0.0,-0.0,-0.0,-0.0,-0.0903,-0.1032,-0.064,-0.0635,-0.0887,-0.1268,-0.0754,-0.2616,-0.6188,-0.5726,-0.674,-0.8747,-0.8605,-0.86,-0.8717,-0.8763,-0.8732,-0.8854,-0.861,-0.861,-0.8726,-0.8666,-0.9659,-1.1091,-1.0841,-1.2466,-1.4592,-1.4505,-1.5144,-1.5885,-1.5885,-1.5885,-1.5885,-1.5885,-1.6311,-1.6592,-1.6478,-1.7082,-1.7874,-1.8263,-1.8542,-1.9051,-1.9876,-2.0263,-2.06,-2.0901,-2.1455,-2.1655,-2.1199,-2.1316,-2.1503,-2.1799,-2.1967,-2.2152,-2.2152,-2.2408,-2.285,-2.3176,-2.329,-2.34,-2.3639,-2.3657,-2.384,-2.4244,-2.4262,-2.4537,-2.5106,-2.5509,-2.5784,-2.5968,-2.6389,-2.6682,-2.6791,-2.6791,-2.7029,0.093,0.0,0.0,0.4325,0.5922,0.6543,0.6189,0.6434,0.6822,0.6969,0.7476,0.8108,0.8405,0.8677,0.7736,0.4777,0.5709,0.6489,0.6001,0.5292,0.5667,0.8407,0.8579,0.8388,0.8046,0.8347,0.8312,0.8076,0.4397,0.1566,0.0131,-0.0387,-0.0644,-0.0655,-0.0392,-0.0261,-0.026,-0.1311,-0.1705,-0.1429,-0.1163,-0.1548,-0.2194,-0.2288,-0.3506,-0.5429,-0.6855,-0.8143,-0.9268,-0.9007,-0.9026,-0.9175,-0.9075,-0.918,-0.9328,-0.9652,-0.949,-0.9098,-0.9457,-1.0816,-1.2478,-1.219,-1.3949,-1.5923,-1.531,-1.5557,-1.6006,-1.6006,-1.5946,-1.5992,-1.6205,-1.6723,-1.7265,-1.7556,-1.8323,-1.9103,-1.9821,-2.0091,-2.0462,-2.1299,-2.1631,-2.1893,-2.1929,-2.2577,-2.2983,-2.2894,-2.2865,-2.2799,-2.2884,-2.2866,-2.2902,-2.3012,-2.3125,-2.3272,-2.3675,-2.3712,-2.3895,-2.4299,-2.4335,-2.4519,-2.4922,-2.4941,-2.5124,-2.5527,-2.5821,-2.6023,-2.6133,-2.6534,-2.6846,-2.7157,-2.7266,-2.771,0.0,0.0,-0.0,0.0215,0.1695,0.3072,0.3288,0.3475,0.3799,0.4044,0.6185,0.8312,0.8579,0.8568,0.7704,0.4702,0.2041,0.2339,0.829,0.6615,0.5694,0.848,0.8688,0.8447,0.0,0.8013,0.8187,0.8579,0.7991,0.5478,0.0258,-0.1308,-0.2095,-0.2069,-0.1459,-0.1068,-0.1054,-0.1054,-0.1449,-0.2108,-0.1429,-0.1547,-0.232,-0.4703,-0.6006,-0.6653,-0.8384,-0.8995,-0.8861,-0.8861,-0.9186,-0.9555,-0.9548,-0.9883,-1.0376,-1.1449,-1.0797,-0.9457,-1.0778,-1.1495,-1.2072,-1.4356,-1.5098,-1.5391,-1.6304,-1.6501,-1.6296,-1.6272,-1.6091,-1.6099,-1.6935,-1.7147,-1.753,-1.8559,-1.9498,-2.024,-2.0539,-2.1017,-2.1634,-2.2609,-2.2485,-2.2652,-2.3598,-2.3803,-2.411,-2.4619,-2.4372,-2.384,-2.3052,-2.2866,-2.3012,-2.3492,-2.3529,-2.3694,-2.4097,-2.4134,-2.4317,-2.4739,-2.4757,-2.4941,-2.5344,-2.5362,-2.5546,-2.5931,-2.5949,-2.6151,-2.6573,-2.6881,-2.7194,-2.7567,-2.7918,-2.8385,0.0,0.0,-0.0,-0.0,0.048,0.0994,0.1023,0.0391,-0.0132,0.0526,0.2333,0.3952,0.4293,0.5196,0.4849,0.1931,0.0658,0.0669,0.2807,0.2273,0.198,0.2804,0.6315,0.0,0.0,0.0,0.0,0.4926,0.2575,0.065,-0.0672,-0.1196,-0.1725,-0.2154,-0.2001,-0.1863,-0.1872,-0.1872,-0.2005,-0.2139,-0.1996,-0.2509,-0.3658,-0.442,-0.5886,-0.7614,-0.8329,-0.8895,-0.9477,-0.9797,-0.985,-0.9935,-1.0035,-1.0728,-1.1767,-1.2081,-1.2316,-1.2508,-1.2741,-1.3536,-1.4361,-1.5247,-1.5937,-1.6494,-1.687,-1.6779,-1.6573,-1.6561,-1.6931,-1.7393,-1.7707,-1.8686,-1.9578,-2.0003,-2.0803,-2.1386,-2.1495,-2.1969,-2.247,-2.2798,-2.3351,-2.3896,-2.4331,-2.4643,-2.4954,-2.5179,-2.4831,-2.4372,-2.3822,-2.3749,-2.3804,-2.3932,-2.395,-2.4005,-2.4134,-2.4409,-2.4629,-2.4776,-2.5032,-2.5344,-2.5748,-2.5766,-2.6056,-2.6658,-2.6677,-2.6859,-2.7116,-2.7206,-2.7649,-2.8157,-2.8287,-2.8872,-0.063,-0.0661,-0.0806,-0.0732,-0.0633,-0.039,-0.0397,-0.1061,-0.1717,-0.1431,-0.038,0.0493,0.0845,0.1563,0.1574,-0.0124,-0.0379,-0.0385,-0.0389,-0.0389,-0.0386,-0.0376,0.2868,0.0,0.0,0.0,0.0,0.1554,-0.0776,-0.197,-0.1498,-0.1475,-0.1741,-0.2183,-0.2146,-0.2135,-0.2154,-0.2155,-0.2155,-0.2155,-0.2692,-0.347,-0.4341,-0.526,-0.6614,-0.8237,-0.8828,-0.9406,-0.9998,-1.0202,-1.0249,-1.0215,-1.0317,-1.1276,-1.2586,-1.302,-1.3922,-1.4898,-1.46,-1.5048,-1.5688,-1.6172,-1.6774,-1.7237,-1.7237,-1.7044,-1.6952,-1.7291,-1.7764,-1.8216,-1.8878,-1.9866,-2.0783,-2.1231,-2.1915,-2.2505,-2.2416,-2.2895,-2.3493,-2.3611,-2.4277,-2.4845,-2.5056,-2.5372,-2.5527,-2.5399,-2.5271,-2.5051,-2.4647,-2.4592,-2.4592,-2.4592,-2.4592,-2.4592,-2.4592,-2.4831,-2.5051,-2.5197,-2.5436,-2.5872,-2.6365,-2.6384,-2.6621,-2.7098,-2.7098,-2.7281,-2.7649,-2.7758,-2.8172,-2.8968,-2.9061,-2.954,-0.1546,-0.1983,-0.2325,-0.2433,-0.1849,-0.1346,-0.1209,-0.1183,-0.1282,-0.1768,-0.1843,-0.1784,0.0,0.0,-0.1507,-0.1078,-0.1084,-0.1098,-0.1008,-0.1012,-0.1006,0.0,0.0,0.0,0.0,0.0,0.0,-0.1185,0.0,-0.222,-0.2151,-0.2155,-0.2155,-0.2155,-0.2155,-0.2155,-0.2155,-0.2155,-0.229,-0.2289,-0.3631,-0.4403,-0.4607,-0.7234,-0.8345,-0.8492,-0.978,-1.0297,-1.0283,-1.0297,-1.0378,-1.0493,-1.063,-1.1497,-1.3054,-1.4162,-1.5483,-1.6697,-1.6241,-1.5915,-1.5946,-1.7126,-1.7479,-1.7479,-1.7479,-1.731,-1.7334,-1.8249,-1.8381,-1.8601,-2.0252,-2.0798,-2.1106,-2.2214,-2.2954,-2.3272,-2.3055,-2.3751,-2.4384,-2.4837,-2.5051,-2.5451,-2.5986,-2.5986,-2.5858,-2.5491,-2.5748,-2.5839,-2.5417,-2.5362,-2.5362,-2.5362,-2.5362,-2.5362,-2.5362,-2.5381,-2.5564,-2.5931,-2.5986,-2.6365,-2.6971,-2.6989,-2.7116,-2.746,-2.746,-2.7668,-2.8195,-2.8435,-2.8968,-2.9891,-3.0101,-3.0449,-0.3577,-0.3993,-0.4652,-0.526,-0.5212,-0.4539,-0.2222,-0.2822,-0.3385,-0.2057,-0.1854,-0.1785,0.0,0.0,0.0,-0.1503,-0.1664,0.0,-0.1786,-0.1797,0.0,0.0,0.0,-0.1903,-0.1794,-0.2033,0.0,0.0,-0.2094,-0.209,-0.2151,-0.2155,-0.2155,-0.2155,-0.2155,-0.2155,-0.2155,-0.2155,-0.2692,-0.3765,-0.4166,-0.5359,-0.7464,-0.8265,-0.899,-0.9922,-1.0424,-1.048,-1.0297,-1.0521,-1.0561,-1.063,-1.1788,-1.3037,-1.4511,-1.5873,-1.7169,-1.8148,-1.8019,-1.7678,-1.7375,-1.7421,-1.7479,-1.7479,-1.7479,-1.7898,-1.8313,-1.7848,-1.9158,-2.0685,-2.0487,-2.1391,-2.2544,-2.2751,-2.2991,-2.3247,-2.3568,-2.4172,-2.4786,-2.5331,-2.5936,-2.6318,-2.6426,-2.6426,-2.6389,-2.6298,-2.6371,-2.6169,-2.5454,-2.5362,-2.5362,-2.5362,-2.5362,-2.5362,-2.5362,-2.5637,-2.5858,-2.5949,-2.6261,-2.6571,-2.6989,-2.6989,-2.7356,-2.8224,-2.8243,-2.8545,-2.9191,-2.9303,-2.9575,-3.0101,-3.0195,-3.0449,-0.687,-0.6643,-0.6331,-0.5867,-0.5587,-0.4978,-0.3075,-0.3475,-0.3948,-0.3332,-0.3191,0.0,0.0,0.0,0.0,0.0,0.0,0.0,-0.2011,-0.2037,-0.2049,0.0,-0.2074,0.0,-0.2102,-0.2101,-0.2125,0.0,-0.2125,-0.2116,-0.2191,-0.2181,-0.2174,-0.2174,-0.2174,-0.2169,-0.2155,-0.2827,-0.3497,-0.43,-0.5637,-0.6973,-0.8573,-0.9244,-0.9871,-1.0595,0.0,-1.0629,-1.0487,-1.0649,-1.1066,-1.1635,-1.2513,-1.3988,-1.5944,-1.6721,-1.7803,-1.8843,-1.8722,-1.8481,-1.8167,-1.7781,-1.7575,-1.7479,-1.7479,-1.8181,-1.8881,-1.8765,-2.0127,-2.1616,-2.1531,-2.2214,-2.3022,-2.3022,-2.3344,-2.3792,-2.3921,-2.4795,-2.5679,-2.6026,-2.6645,-2.6995,-2.6646,-2.6885,-2.6995,-2.6646,-2.6738,-2.6609,-2.5986,-2.5913,-2.5913,-2.5913,-2.5913,-2.5913,-2.5913,-2.6203,-2.6439,-2.6439,-2.6769,-2.7191,-2.7597,-2.7706,-2.8115,-2.8998,-2.8998,-2.9322,-2.9844,-2.9844,-3.0078,-3.0508,-3.0508,-3.0644,-1.0163,-0.9313,-0.7787,-0.6144,-0.5374,-0.4852,-0.4261,-0.4044,-0.4052,-0.4796,0.0,-0.4598,-0.3635,0.0,-0.2778,-0.2169,0.0,-0.1839,-0.1964,-0.2003,-0.2033,-0.2071,-0.2127,-0.2161,-0.2161,-0.2188,-0.2218,-0.2249,-0.2174,-0.2162,-0.2241,-0.2221,-0.2204,-0.22,-0.2196,-0.2317,-0.2423,-0.3631,-0.4434,-0.4836,-0.7374,-0.8706,-0.8972,-1.018,-1.0717,-1.0717,0.0,0.0,-1.0717,-1.085,-1.1637,-1.2816,-1.321,-1.4893,-1.698,-1.7238,-1.8022,-1.9048,-1.8819,-1.871,-1.8601,-1.8094,-1.7888,-1.7811,-1.7774,-1.8466,-1.9502,-2.0169,-2.106,-2.1972,-2.2667,-2.2893,-2.3022,-2.3135,-2.3904,-2.4556,-2.4256,-2.5511,-2.6664,-2.6664,-2.727,-2.7545,-2.6866,-2.7306,-2.7526,-2.6848,-2.7031,-2.7105,-2.6719,-2.6628,-2.6591,-2.6591,-2.6591,-2.6591,-2.6591,-2.6899,-2.6989,-2.6989,-2.7262,-2.7796,-2.8487,-2.8564,-2.8906,-2.9648,-2.9648,-2.9863,-3.0293,-3.0293,-3.0488,-3.0898,-3.0898,-3.0898,-1.027,-1.0201,-0.998,-0.9608,-0.9276,-0.8735,-0.7194,-0.6551,0.0,0.0,0.0,-0.4662,-0.4514,-0.3056,0.0,-0.304,0.0,0.0,0.0,0.0,-0.2049,0.0,0.0,0.0,0.0,0.0,0.0,0.0,0.0,-0.2229,-0.2245,-0.224,-0.2226,-0.22,-0.2176,-0.2699,-0.39,-0.4166,-0.5503,-0.7907,-0.8307,-0.9244,-1.0319,-1.0585,-1.0717,-1.0717,-1.0717,0.0,-1.085,-1.1901,-1.2553,-1.3079,-1.5414,-1.6581,-1.7109,-1.8291,-1.8944,-1.9072,-1.9024,-1.8867,-1.8638,-1.8324,-1.8788,-1.9305,-1.906,-2.0164,-2.1409,-2.0571,-2.1531,-2.2667,-2.1972,-2.2441,-2.3135,-2.3585,-2.3921,-2.4239,-2.5238,-2.6277,-2.7068,-2.7068,-2.7453,-2.7728,-2.7581,-2.7673,-2.771,-2.7581,-2.7618,-2.7526,-2.7123,-2.6793,-2.6591,-2.6591,-2.6591,-2.6591,-2.6591,-2.6899,-2.6989,-2.6989,-2.7654,-2.81,-2.8507,-2.8834,-2.9331,-3.0078,-3.0098,-3.0312,-3.0762,-3.0762,-3.082,-3.0898,-3.0898,-3.0898,-1.0283,-1.0493,-1.0457,-0.9596,-0.9136,-0.8624,-0.7481,0.0,0.0,0.0,0.0,-0.6267,-0.5722,0.0,0.0,0.0,0.0,0.0,0.0,0.0,0.0,0.0,0.0,0.0,0.0,0.0,0.0,0.0,0.0,-0.229,-0.229,-0.2277,-0.2255,-0.2225,-0.2877,-0.3656,-0.43,-0.577,-0.724,-0.8573,-0.9377,-1.0047,-1.0717,-1.0717,-1.0717,-1.0717,-1.1505,0.0,-1.1901,-1.3341,-1.4381,-1.5154,-1.6462,-1.7496,-1.815,-1.8816,-1.9072,-1.9072,-1.9072,-1.9,-1.8867,-1.8746,-1.8877,-1.9107,-1.9451,-2.0823,-2.2068,-2.1409,-2.2598,-2.386,-2.3308,-2.3518,-2.4236,-2.4808,-2.5281,-2.5735,-2.6637,-2.7282,-2.7746,-2.7526,-2.7985,-2.826,-2.7838,-2.8113,-2.826,-2.782,-2.7948,-2.7948,-2.7526,-2.7306,-2.7123,-2.6921,-2.7197,-2.7419,-2.7419,-2.7863,-2.8066,-2.8066,-2.8607,-2.9041,-2.9366,-2.956,-2.9984,-3.0547,-3.0547,-3.0664,-3.0898,-3.0898,-3.0898,-3.0898,-3.0898,-3.0898,-1.0222,-1.0446,-1.0326,-0.901,-0.8459,-0.8008,-0.742,-0.7096,0.0,0.0,-0.8018,-0.7799,-0.693,0.0,0.0,0.0,0.0,0.0,0.0,0.0,0.0,0.0,0.0,0.0,0.0,0.0,0.0,0.0,0.0,0.0,-0.2333,-0.2593,-0.2705,-0.2677,-0.4164,-0.4925,-0.5262,-0.7541,-0.8734,-0.9111,-1.018,-1.0717,-1.0717,-1.0717,-1.085,-1.1247,-1.2289,0.0,0.0,-1.4772,-1.5944,-1.698,-1.7367,-1.815,-1.9072,-1.9072,-1.9072,-1.9072,-1.9072,-1.92,-1.92,-1.9072,-1.9173,-1.942,-1.9968,-2.1385,-2.2855,-2.2788,-2.3832,-2.4928,-2.4861,-2.5011,-2.5344,-2.6041,-2.6619,-2.7194,-2.7651,-2.8095,-2.8297,-2.7967,-2.848,-2.8773,-2.8132,-2.8553,-2.8773,-2.8132,-2.8315,-2.837,-2.7948,-2.7967,-2.7989,-2.7584,-2.7976,-2.8219,-2.8219,-2.8785,-2.9122,-2.9122,-2.9536,-2.9863,-3.0176,-3.0293,-3.0508,-3.0879,-3.0898,-3.0898,-3.0898,-3.0898,-3.0898,-3.0898,-3.0898,-3.0898,-1.0168,-1.0297,-1.0283,-0.9876,-0.952,-0.9004,-0.86,0.0,0.0,-0.7912,-0.8133,-0.8077,-0.7912,0.0,0.0,0.0,0.0,-0.4464,0.0,0.0,0.0,0.0,0.0,0.0,0.0,0.0,0.0,0.0,0.0,0.0,-0.2333,-0.3597,-0.4422,-0.4416,-0.5901,-0.7203,-0.8335,-0.8606,-0.9361,-1.0452,-1.0585,-1.0717,-1.0717,-1.0717,-1.1372,-1.2553,-1.2684,0.0,0.0,-1.6203,-1.685,-1.7109,-1.8419,-1.8944,-1.9072,-1.9072,-1.9072,-1.9072,-1.9072,-1.9328,-1.9456,-1.92,-2.0663,-2.2558,-2.1684,-2.3172,-2.5152,-2.4809,-2.4844,-2.5094,-2.5758,-2.5891,-2.6041,-2.6619,-2.7308,-2.7765,-2.7765,-2.8095,-2.8388,-2.8333,-2.8682,-2.8957,-2.8883,-2.8938,-2.8957,-2.8883,-2.8902,-2.8792,-2.8388,-2.8645,-2.8836,-2.8644,-2.8424,-2.8219,-2.8219,-2.8785,-2.9122,-2.9122,-2.9695,-3.0156,-3.0195,-3.0605,-3.084,-3.0898,-3.0898,-3.0898,-3.0898,-3.0898,-3.0898,-3.0898,-3.0898,-3.0898,-0.9774,-1.0073,-1.0222,-0.9971,-0.953,-0.9188,-0.8994,0.0,-0.8259,-0.8421,-0.8386,-0.8266,-0.8223,0.0,0.0,0.0,0.0,0.0,0.0,0.0,0.0,0.0,0.0,0.0,0.0,0.0,0.0,0.0,0.0,0.0,-0.5235,-0.564,-0.6033,-0.599,-0.7314,-0.8357,-0.8867,-0.9621,-1.0373,-1.086,-1.086,-1.0812,-1.0717,-1.0717,-1.1505,-1.2816,-1.3735,0.0,0.0,-1.7636,-1.8291,-1.8291,-1.8944,-1.9072,-1.9072,-1.9072,-1.92,-1.9456,-1.9456,-2.0208,-2.0956,-1.9966,-2.2201,-2.4778,-2.3054,-2.3856,-2.5616,-2.5881,-2.6304,-2.6779,-2.6906,-2.7364,-2.7912,-2.8147,-2.8381,-2.8498,-2.8498,-2.8627,-2.8755,-2.8755,-2.8883,-2.8975,-2.8975,-2.8975,-2.8975,-2.8975,-2.8975,-2.892,-2.8773,-2.912,-2.9275,-2.9207,-2.9175,-2.9313,-2.9545,-2.9892,-3.0141,-3.0141,-3.0412,-3.0605,-3.0605,-3.0801,-3.0898,-3.0898,-3.0898,-3.0898,-3.0898,-3.0898,-3.0898,-3.0898,-3.0898,-3.0898,-0.9381,-0.9741,-0.9951,-0.9686,-0.932,-0.9051,0.0,0.0,-0.8428,-0.8726,-0.8627,-0.8528,-0.8435,-0.8237,-0.8137,-0.8137,0.0,-0.7107,0.0,0.0,0.0,0.0,0.0,0.0,0.0,0.0,0.0,0.0,0.0,0.0,0.0,-0.8126,-0.8098,-0.7598,-0.8911,-0.9533,-0.9637,-1.047,-1.0928,-1.088,-1.088,-1.0826,-1.0717,-1.1115,-1.2033,-1.3473,0.0,0.0,0.0,-1.8676,-1.9072,-1.9072,-1.92,-1.92,-1.92,-1.92,-1.9456,-1.9571,-1.9571,-2.0703,-2.195,-2.0969,-2.3311,-2.6034,-2.4548,-2.5162,-2.6349,-2.6833,-2.7568,-2.8188,-2.8038,-2.8519,-2.8975,-2.8975,-2.8975,-2.8975,-2.8975,-2.8975,-2.8975,-2.8975,-2.8975,-2.8975,-2.8975,-2.8975,-2.8975,-2.8975,-2.8975,-2.8975,-2.8975,-2.9331,-2.9568,-2.9568,-2.9922,-3.0157,-3.0392,-3.0762,-3.0898,-3.0898,-3.0898,-3.0898,-3.0898,-3.0898,-3.0898,-3.0898,-3.0898,-3.0898,-3.0898,-3.0898,-3.0898,-3.0898,-3.0898,-3.0898,-0.9035,-0.9273,-0.9354,-0.9198,-0.8933,-0.8742,0.0,0.0,-0.8428,-0.8726,-0.8825,-0.8726,-0.8428,-0.8428,-0.8428,-0.8428,-0.8428,0.0,0.0,0.0,0.0,0.0,0.0,0.0,0.0,0.0,0.0,0.0,0.0,0.0,0.0,-1.0743,-1.0887,-0.9291,-1.0605,-1.1314,-1.1165,-1.1023,-1.0873,-1.0724,-1.0724,-1.0724,-1.0717,-1.2165,-1.3604,0.0,0.0,0.0,0.0,-1.9072,-1.9072,-1.9072,-1.9456,-1.9571,-1.9571,-1.9571,-1.9571,-1.9571,-1.9571,-2.0703,-2.2076,-2.2076,-2.3822,-2.605,-2.6399,-2.7142,-2.802,-2.802,-2.8498,-2.8975,-2.8975,-2.8975,-2.8975,-2.8975,-2.8975,-2.8975,-2.8975,-2.8975,-2.8975,-2.8975,-2.8975,-2.8975,-2.8975,-2.8975,-2.8975,-2.8975,-2.8975,-2.8975,-2.8975,-2.9331,-2.9568,-2.9922,-3.0157,-3.0392,-3.0392,-3.0762,-3.0898,-3.0898,-3.0898,-3.0898,-3.0898,-3.0898,-3.0898,-3.0898,-3.0898,-3.0898,-3.0898,-3.0898,-3.0898,-3.0898,-3.0898,-3.0898,-1.0176,-0.9859,-0.9259,-0.9216,-0.9026,-0.8829,-0.8925,0.0,-0.9031,-0.9327,-0.9023,-0.8825,-0.8931,-0.8634,-0.8435,-0.8627,-0.8832,0.0,0.0,0.0,0.0,0.0,0.0,0.0,0.0,0.0,0.0,0.0,0.0,0.0,0.0,-1.1233,-1.1173,-1.0741,-1.1034,-1.1212,-1.1165,-1.1023,-1.0921,-1.088,-1.1799,-1.2265,-1.2157,-1.3857,0.0,0.0,0.0,0.0,0.0,-1.9724,-1.9584,-1.9456,-1.9839,-1.9839,-1.9571,-1.9839,-2.0094,-2.0221,-2.0221,-2.1335,-2.2827,-2.2827,-2.4548,-2.6658,-2.6762,-2.7401,-2.814,-2.8498,-2.8856,-2.8975,-2.8975,-2.8975,-2.8975,-2.8975,-2.8975,-2.8975,-2.8975,-2.9195,-2.9379,-2.9379,-2.9379,-2.9379,-2.9379,-2.9159,-2.8975,-2.8975,-2.8975,-2.9094,-2.9331,-2.9568,-2.9922,-3.0157,-3.0528,-3.0762,-3.0762,-3.0879,-3.0898,-3.0898,-3.0898,-3.0898,-3.0898,-3.0898,-3.0898,-3.0898,-3.0898,-3.0898,-3.0898,-3.0898,-3.0898,-3.0898,-3.0898,-3.0898,0.0,-0.9414,-0.8946,-0.8998,-0.8891,0.0,0.0,0.0,-0.9236,-0.9434,-0.913,-0.8825,-0.8931,-0.8634,-0.8528,-0.8726,-0.9031,0.0,0.0,0.0,0.0,0.0,0.0,0.0,0.0,0.0,0.0,0.0,0.0,0.0,0.0,-1.1619,-1.1502,-1.1447,-1.1434,-1.1221,-1.1084,-1.1205,-1.1397,-1.1784,-1.2837,-1.3443,-1.3857,-1.5414,0.0,0.0,0.0,0.0,0.0,-1.9979,-1.9839,-1.9839,-2.0106,-2.0094,-1.9966,-2.0234,-2.0361,-2.0602,-2.0602,-2.1601,-2.3076,-2.3574,-2.5668,-2.7744,-2.7744,-2.8002,-2.8498,-2.8856,-2.8975,-2.8975,-2.8975,-2.8975,-2.8975,-2.8975,-2.9104,-2.9214,-2.9214,-2.9525,-2.98,-2.98,-2.98,-2.98,-2.98,-2.947,-2.9214,-2.9214,-2.9186,-2.9213,-2.9331,-2.9804,-3.0157,-3.0157,-3.0645,-3.0898,-3.0898,-3.0898,-3.0898,-3.0898,-3.0898,-3.0898,-3.0898,-3.0898,-3.0898,-3.0898,-3.0898,-3.0898,-3.0898,-3.0898,-3.0898,-3.0898,-3.0898,-3.0898,0.0,-0.866,0.0,0.0,0.0,0.0,0.0,0.0,0.0,-0.9236,-0.9031,-0.8726,-0.8528,-0.8428,-0.8528,-0.8825,-0.9038,0.0,0.0,0.0,0.0,0.0,0.0,0.0,0.0,0.0,0.0,0.0,0.0,0.0,0.0,-1.1733,-1.1852,-1.1703,-1.1553,-1.134,-1.0934,-1.1459,-1.2297,-1.3325,-1.3718,-1.4502,-1.5544,-1.698,0.0,0.0,0.0,0.0,0.0,-1.9699,-1.9839,-2.0234,-2.0488,-2.0602,-2.0602,-2.0615,-2.0615,-2.0615,-2.0615,-2.1475,-2.2827,-2.444,-2.6762,-2.8856,-2.8975,-2.8975,-2.8975,-2.8975,-2.8975,-2.8975,-2.8975,-2.8975,-2.8993,-2.9012,-2.9305,-2.958,-2.9617,-2.9947,-3.0241,-3.0241,-3.0222,-3.0204,-3.0204,-2.9819,-2.9525,-2.9525,-2.9573,-2.945,-2.9094,-2.9804,-3.0274,-3.0039,-3.0528,-3.0898,-3.0898,-3.0898,-3.0898,-3.0898,-3.0898,-3.0898,-3.0898,-3.0898,-3.0898,-3.0898,-3.0898,-3.0898,-3.0898,-3.0898,-3.0898,-3.0898,-3.0918,-3.0937,-1.1217,0.0,-1.0319,-1.0276,-0.9681,-0.9084,0.0,0.0,0.0,0.0,0.0,-0.8825,-0.9031,-0.9031,-0.913,-0.9327,-0.9638,0.0,0.0,0.0,0.0,0.0,0.0,0.0,0.0,0.0,0.0,0.0,0.0,0.0,0.0,-1.1884,-1.1991,-1.1954,-1.1792,-1.1703,-1.157,-1.1666,-1.2297,-1.3341,-1.452,-1.5684,-1.7109,-1.8676,0.0,0.0,0.0,0.0,-2.0729,-2.0729,-2.0602,-2.0488,-2.0856,-2.0856,-2.0615,-2.0856,-2.0982,-2.0982,-2.0982,-2.1235,-2.1853,-2.4193,-2.6156,-2.7624,-2.8737,-2.8975,-2.8975,-2.8975,-2.8975,-2.8975,-2.8975,-2.8975,-2.9067,-2.936,-2.9507,-2.9654,-2.9984,-3.0369,-3.0644,-3.0644,-3.0406,-3.0204,-3.0204,-2.9599,-2.9122,-2.9122,-2.9387,-2.9568,-2.9686,-3.0157,-3.0509,-3.0645,-3.0782,-3.0898,-3.0898,-3.0898,-3.0898,-3.0898,-3.0898,-3.0898,-3.0898,-3.0898,-3.0898,-3.0898,-3.0898,-3.0898,-3.0898,-3.0898,-3.0898,-3.0898,-3.123,-3.1367,-1.2047,-1.1365,-1.0681,-1.0779,-1.001,-0.9236,-0.9335,0.0,0.0,0.0,0.0,0.0,-0.8832,0.0,0.0,0.0,0.0,0.0,0.0,0.0,0.0,0.0,0.0,0.0,0.0,0.0,0.0,0.0,0.0,0.0,0.0,-1.2164,-1.2165,-1.203,-1.2789,-1.2955,-1.2429,-1.27,-1.3604,-1.5414,-1.6333,-1.7507,-1.8932,-1.9839,-2.0361,0.0,0.0,0.0,-2.0856,-2.0856,-2.0856,-2.0856,-2.0982,-2.0982,-2.0856,-2.0982,-2.1109,-2.1109,-2.1109,-2.1853,-2.3091,-2.4564,-2.6277,-2.8002,-2.8737,-2.8975,-2.9012,-2.9195,-2.9122,-2.903,-2.9214,-2.925,-2.9269,-2.9287,-2.9727,-3.0149,-3.0185,-3.0662,-3.1011,-3.0827,-3.0626,-3.0424,-3.0241,-2.9672,-2.937,-2.9508,-2.958,-2.9686,-2.9922,-3.0274,-3.0645,-3.0645,-3.0762,-3.0898,-3.0898,-3.0898,-3.0898,-3.0898,-3.0898,-3.0898,-3.0898,-3.0898,-3.0898,-3.0898,-3.1074,-3.1172,-3.1191,-3.1387,-3.1484,-3.1484,-3.1719,-3.1816,-1.2339,-1.1365,-1.0485,-1.0681,-1.001,-0.9236,-0.9426,0.0,0.0,0.0,0.0,0.0,0.0,0.0,0.0,0.0,0.0,0.0,0.0,0.0,0.0,0.0,0.0,0.0,0.0,0.0,0.0,0.0,0.0,0.0,0.0,-1.2346,-1.2396,-1.2127,-1.3822,-1.452,-1.3735,-1.4128,-1.5554,-1.8139,-1.8407,-1.9188,-2.0602,-2.0602,-2.0488,-2.0234,0.0,0.0,-2.0729,-2.0729,-2.0856,-2.1109,-2.1109,-2.1109,-2.1109,-2.1109,-2.1109,-2.1109,-2.1348,-2.2841,-2.481,-2.5178,-2.69,-2.8737,-2.8975,-2.8975,-2.9085,-2.9544,-2.9342,-2.9067,-2.9397,-2.9525,-2.9507,-2.9232,-3.0002,-3.0717,-3.0442,-3.0864,-3.1194,-3.0846,-3.0681,-3.0516,-3.0241,-2.9923,-2.9749,-3.0065,-3.0087,-2.9922,-2.9922,-3.0528,-3.0762,-3.0509,-3.0762,-3.0898,-3.0898,-3.0957,-3.0996,-3.0996,-3.0918,-3.0918,-3.0976,-3.0918,-3.0957,-3.1094,-3.1367,-3.1562,-3.1621,-3.1992,-3.2168,-3.2168,-3.2226,-3.2266,-1.2242,-1.1365,-1.0485,-1.0681,-1.001,-0.9137,-0.8924,0.0,0.0,0.0,0.0,0.0,0.0,0.0,0.0,0.0,0.0,0.0,0.0,0.0,0.0,0.0,0.0,0.0,0.0,0.0,0.0,0.0,0.0,0.0,0.0,-1.2445,-1.2616,-1.2219,-1.3752,-1.4903,-1.5954,-1.6333,-1.7109,-1.8407,-1.8536,-1.9188,-2.0602,-2.0602,-2.0729,-2.0982,0.0,-2.0982,-2.0982,-2.0982,-2.1109,-2.1109,-2.1109,-2.1109,-2.1109,-2.1109,-2.1109,-2.1235,-2.2341,-2.3076,-2.3822,-2.6034,-2.7021,-2.7504,-2.8618,-2.8975,-2.914,-2.9892,-2.9562,-2.8993,-2.9067,-2.9324,-2.9654,-2.9947,-3.0406,-3.0864,-3.1139,-3.1029,-3.0864,-3.0791,-3.0241,-2.9855,-3.0149,-2.9804,-2.9655,-3.0027,-3.0206,-3.0274,-3.0274,-3.0645,-3.0898,-3.0879,-3.0879,-3.0898,-3.0898,-3.1211,-3.1426,-3.1426,-3.1094,-3.1055,-3.1406,-3.1074,-3.123,-3.1953,-3.168,-3.1699,-3.207,-3.2129,-3.2168,-3.2187,-3.2539,-3.2695,-1.1658,-1.0788,-0.9739,-0.9829,-0.939,-0.8954,-0.8944,0.0,0.0,0.0,0.0,0.0,0.0,0.0,0.0,0.0,0.0,0.0,0.0,0.0,0.0,0.0,0.0,0.0,0.0,0.0,0.0,0.0,0.0,0.0,0.0,0.0,-1.3744,-1.3473,-1.5674,-1.7098,-1.7625,-1.8652,-1.9304,-1.9571,-1.9571,-2.0081,-2.0856,-2.0856,-2.0982,-2.1109,0.0,-2.1109,-2.1109,-2.1109,-2.1109,-2.1109,-2.1109,-2.1109,-2.1109,-2.1109,-2.1109,-2.1235,-2.1853,-2.2952,-2.4317,-2.5546,-2.69,-2.8241,-2.8856,-2.914,-2.9342,-2.9489,-2.9269,-2.914,-2.9782,-2.9764,-2.9617,-2.9819,-3.0167,-3.0461,-3.0406,-3.0442,-3.0406,-3.0167,-2.9819,-2.9562,-2.9544,-2.9352,-2.9405,-2.9949,-3.0054,-3.0274,-3.0645,-3.0762,-3.0898,-3.0898,-3.1094,-3.123,-3.123,-3.1621,-3.1875,-3.1875,-3.168,-3.166,-3.1855,-3.168,-3.1758,-3.2168,-3.2187,-3.2305,-3.25,-3.2734,-3.2851,-3.2851,-3.3047,-3.3125,-1.0788,-0.9912,-0.9076,-0.9135,-0.8981,-0.8829,-0.8889,0.0,0.0,0.0,0.0,0.0,0.0,0.0,0.0,0.0,0.0,0.0,0.0,0.0,0.0,0.0,0.0,0.0,0.0,0.0,0.0,0.0,0.0,0.0,0.0,0.0,-1.439,-1.4381,-1.7098,-1.8524,-1.864,-2.0322,-2.0982,-2.0729,-2.0729,-2.0856,-2.1109,-2.1109,-2.1109,-2.1109,-2.1109,-2.1109,-2.1109,-2.1109,-2.1109,-2.1109,-2.1109,-2.1109,-2.1109,-2.1109,-2.1109,-2.1109,-2.1475,-2.3091,-2.5071,-2.552,-2.7263,-2.9122,-2.9122,-2.9397,-2.9654,-2.936,-2.9195,-2.9342,-3.0259,-3.0112,-2.9727,-2.9727,-2.9965,-3.0112,-2.9782,-2.9892,-2.9965,-2.9635,-2.9489,-2.9379,-2.9278,-2.9287,-2.9487,-3.0054,-3.0116,-3.0294,-3.0879,-3.0976,-3.1035,-3.1035,-3.1426,-3.1719,-3.1816,-3.2129,-3.2363,-3.2461,-3.2285,-3.2207,-3.2305,-3.2226,-3.2266,-3.2461,-3.2676,-3.2851,-3.2949,-3.3262,-3.3418,-3.3418,-3.3418,-3.3418,-0.9624,-0.913,-0.887,-0.9034,-0.8867,0.0,-0.8536,-0.857,0.0,0.0,0.0,0.0,0.0,0.0,0.0,0.0,0.0,0.0,0.0,0.0,0.0,0.0,0.0,0.0,0.0,0.0,0.0,0.0,0.0,0.0,0.0,0.0,0.0,-1.4381,-1.6203,-1.7753,-1.8908,-2.0335,-2.1109,-2.1109,-2.1109,-2.1109,-2.1109,-2.1109,-2.1109,-2.1109,-2.1109,-2.1109,-2.1109,-2.1109,-2.1109,-2.1109,-2.1109,-2.1109,-2.1109,-2.1109,-2.1109,-2.1235,-2.2466,-2.3822,-2.5226,-2.6924,-2.8394,-2.9525,-2.9525,-2.9819,-3.0149,-3.0112,-2.9837,-2.9544,-2.9635,-2.991,-3.0149,-3.0149,-3.0185,-3.0185,-3.0167,-2.9874,-2.9599,-2.958,-2.9269,-2.926,-2.9851,-2.9949,-3.0054,-3.0811,-3.0897,-3.0898,-3.0898,-3.123,-3.1465,-3.1465,-3.1855,-3.2285,-3.2676,-3.2734,-3.291,-3.3301,-3.2598,-3.2344,-3.2734,-3.2383,-3.2539,-3.332,-3.2988,-3.2988,-3.3379,-3.3398,-3.3418,-3.3418,-3.3418,-3.3418,-0.9525,-0.9207,-0.8996,-0.9063,0.0,0.0,0.0,0.0,0.0,0.0,0.0,0.0,0.0,0.0,0.0,0.0,0.0,0.0,0.0,0.0,0.0,0.0,0.0,0.0,0.0,0.0,0.0,0.0,0.0,0.0,0.0,0.0,0.0,-1.7227,-1.878,-1.9814,-2.0335,-2.0856,-2.1109,-2.1109,-2.1109,-2.1109,-2.1109,-2.1109,-2.1109,-2.1109,-2.1109,-2.1109,-2.1109,-2.1109,-2.1109,-2.1109,-2.1109,-2.1109,-2.1109,-2.1109,-2.1601,-2.2466,-2.2952,-2.4082,-2.5498,-2.6756,-2.7921,-2.8765,-2.9392,-3.0039,-3.0461,-2.9947,-3.0057,-3.0387,-3.0626,-3.0075,-2.9562,-3.0075,-2.9819,-2.9434,-2.9434,-2.9324,-2.9214,-2.9214,-2.9085,-2.9149,-2.9655,-2.968,-2.9861,-3.0485,-3.0625,-3.0723,-3.125,-3.1426,-3.1621,-3.1894,-3.2305,-3.2734,-3.3144,-3.3184,-3.3242,-3.3418,-3.3125,-3.3008,-3.3184,-3.3027,-3.3105,-3.3418,-3.3262,-3.3262,-3.3418,-3.3418,-3.3555,-3.3828,-3.3828,-3.3965,-0.9434,-0.9214,-0.9026,0.0,0.0,0.0,0.0,0.0,0.0,0.0,0.0,0.0,0.0,0.0,0.0,0.0,0.0,0.0,0.0,0.0,0.0,0.0,0.0,0.0,0.0,0.0,0.0,0.0,0.0,0.0,0.0,0.0,0.0,0.0,-1.9941,-2.0589,-2.1109,-2.1109,-2.1109,-2.1109,-2.1109,-2.1109,-2.1109,-2.1109,-2.1109,-2.1109,-2.1109,-2.1109,-2.1109,-2.1109,-2.1109,-2.1109,-2.1109,-2.1109,-2.1109,-2.1109,-2.1727,-2.2466,-2.2466,-2.3723,-2.5545,-2.6504,-2.7723,-2.8852,-2.9592,-3.0241,-3.0626,-2.98,-2.9965,-3.0497,-3.0901,-3.0094,-2.9305,-2.9874,-2.9489,-2.8975,-2.8975,-2.8975,-2.8975,-2.8975,-2.9094,-2.9213,-2.945,-2.9686,-2.9922,-3.0392,-3.0625,-3.0936,-3.1484,-3.1758,-3.209,-3.2519,-3.2832,-3.3105,-3.3398,-3.3418,-3.3418,-3.3418,-3.3418,-3.3418,-3.3418,-3.3418,-3.3418,-3.3418,-3.3418,-3.3496,-3.3633,-3.3633,-3.3848,-3.4277,-3.4277,-3.4434,-0.9236,-0.9031,0.0,0.0,0.0,0.0,0.0,0.0,0.0,0.0,0.0,0.0,0.0,0.0,0.0,0.0,0.0,0.0,0.0,0.0,0.0,0.0,0.0,0.0,0.0,0.0,0.0,0.0,0.0,0.0,0.0,0.0,0.0,0.0,-1.9036,-1.9686,-2.1109,-2.1109,-2.1109,-2.1109,-2.1109,-2.1109,-2.1109,-2.1109,-2.1109,-2.1109,-2.1109,-2.1109,-2.1109,-2.1109,-2.1109,-2.1109,-2.1109,-2.1109,-2.1109,-2.1109,-2.1109,-2.1109,-2.1109,-2.2841,-2.5167,-2.5977,-2.8134,-3.0204,-3.0185,-3.0479,-3.0607,-2.98,-2.9562,-2.9672,-3.0075,-2.9874,-2.9562,-2.9562,-2.9269,-2.8975,-2.8975,-2.8975,-2.8975,-2.8975,-2.9213,-2.945,-2.945,-3.0039,-3.0392,-3.0392,-3.0994,-3.1523,-3.1523,-3.2266,-3.2969,-3.3379,-3.3418,-3.3418,-3.3418,-3.3418,-3.3418,-3.3418,-3.3418,-3.3418,-3.3418,-3.3418,-3.3418,-3.3418,-3.3418,-3.3633,-3.4082,-3.4082,-3.4297,-3.4707,-3.4707,-3.4707,-0.987,-0.9391,0.0,0.0,0.0,0.0,0.0,0.0,0.0,0.0,0.0,0.0,0.0,0.0,0.0,0.0,0.0,0.0,0.0,0.0,0.0,0.0,0.0,0.0,0.0,0.0,0.0,0.0,0.0,0.0,0.0,0.0,0.0,0.0,-2.0462,-2.0716,-2.1109,-2.1109,-2.1109,-2.1109,-2.1109,-2.1109,-2.1109,-2.1109,-2.1109,-2.1109,-2.1109,-2.1109,-2.1109,-2.1109,-2.1109,-2.1109,-2.1109,-2.1109,-2.1109,-2.1109,-2.1727,-2.2577,-2.3574,-2.4471,-2.567,-2.7608,-2.8465,-2.8852,-2.9592,-3.0039,-3.0259,-2.9727,-2.9562,-2.9544,-2.9379,-2.925,-2.9232,-2.9507,-2.9269,-2.8975,-2.8975,-2.8975,-2.8975,-2.8975,-2.9213,-2.9568,-2.9804,-3.0386,-3.0953,-3.1091,-3.1699,-3.209,-3.2383,-3.2891,-3.3281,-3.3418,-3.3418,-3.3418,-3.3418,-3.3418,-3.3418,-3.3418,-3.3418,-3.3418,-3.3418,-3.3418,-3.3418,-3.3418,-3.373,-3.3945,-3.4082,-3.4375,-3.4746,-3.5176,-3.5176,-3.5351,-0.9657,0.0,0.0,0.0,0.0,0.0,0.0,0.0,0.0,0.0,0.0,0.0,0.0,0.0,0.0,0.0,0.0,0.0,0.0,0.0,0.0,0.0,0.0,0.0,0.0,0.0,0.0,0.0,0.0,0.0,0.0,0.0,0.0,0.0,-2.1042,-2.1056,-2.0935,-2.1056,-2.1109,-2.1109,-2.1109,-2.1109,-2.1109,-2.1109,-2.1109,-2.1109,-2.1109,-2.1109,-2.1109,-2.1109,-2.1109,-2.1109,-2.1109,-2.1109,-2.1109,-2.1109,-2.1601,-2.2466,-2.3201,-2.4207,-2.5606,-2.7139,-2.8167,-2.8747,-2.9392,-2.9745,-2.9874,-2.9452,-2.9342,-2.9287,-2.9048,-2.8975,-2.9048,-2.9287,-2.9159,-2.8975,-2.8975,-2.8975,-2.8975,-2.9213,-2.945,-2.9742,-3.0149,-3.0734,-3.1324,-3.1517,-3.2027,-3.2559,-3.2988,-3.3262,-3.3418,-3.3418,-3.3418,-3.3418,-3.3418,-3.3418,-3.3418,-3.3418,-3.3574,-3.3691,-3.3691,-3.3691,-3.375,-3.3926,-3.418,-3.4414,-3.459,-3.4844,-3.5215,-3.5644,-3.5644,-3.5781,0.0,0.0,0.0,0.0,0.0,0.0,0.0,0.0,0.0,0.0,0.0,0.0,0.0,0.0,0.0,0.0,0.0,0.0,0.0,0.0,0.0,0.0,0.0,0.0,0.0,0.0,0.0,0.0,0.0,0.0,0.0,0.0,0.0,-2.0641,-2.0895,-2.0909,-2.0641,-2.0895,-2.1029,-2.1029,-2.1029,-2.1042,-2.1069,-2.1096,-2.1109,-2.1109,-2.1109,-2.1109,-2.1109,-2.1109,-2.1109,-2.1109,-2.1109,-2.1109,-2.1109,-2.1109,-2.1109,-2.1109,-2.1348,-2.2966,-2.5103,-2.5794,-2.7641,-2.9525,-2.9525,-2.9525,-2.9452,-2.9085,-2.8975,-2.8975,-2.8975,-2.8975,-2.8975,-2.8993,-2.8975,-2.8975,-2.8975,-2.9094,-2.9094,-2.945,-2.9823,-3.0111,-3.061,-3.1223,-3.1657,-3.186,-3.2494,-3.2988,-3.3379,-3.3418,-3.3418,-3.3418,-3.3418,-3.3418,-3.3418,-3.3418,-3.3418,-3.3418,-3.3828,-3.4082,-3.4121,-3.4121,-3.4316,-3.4687,-3.4746,-3.4961,-3.5391,-3.543,-3.5644,-3.6016,-3.6016,-3.6016,0.0,0.0,0.0,0.0,0.0,0.0,0.0,0.0,0.0,0.0,0.0,0.0,0.0,0.0,0.0,0.0,0.0,0.0,0.0,0.0,0.0,0.0,0.0,0.0,0.0,0.0,0.0,0.0,0.0,0.0,0.0,0.0,0.0,-2.0334,-2.0388,-2.0388,-2.0334,-2.0388,-2.0428,0.0,-2.0428,-2.0548,-2.0775,-2.1002,-2.1109,-2.1109,-2.1109,-2.1109,-2.1109,-2.1109,-2.1109,-2.1109,-2.1109,-2.1109,-2.1109,-2.1109,-2.1109,-2.1348,-2.345,-2.4564,-2.5317,-2.7608,-2.8625,-2.9104,-2.9104,-2.9104,-2.9085,-2.9012,-2.8975,-2.8975,-2.8975,-2.9213,-2.9331,-2.9094,-2.8975,-2.9094,-2.9331,-2.945,-2.945,-2.9804,-3.0306,-3.0792,-3.0868,-3.1828,-3.2656,-3.2961,-3.3223,-3.332,-3.3418,-3.3418,-3.3418,-3.3418,-3.3418,-3.3418,-3.3418,-3.3418,-3.3418,-3.3418,-3.3828,-3.4219,-3.4551,-3.457,-3.4609,-3.4707,-3.5059,-3.5293,-3.5391,-3.5723,-3.5937,-3.6016,-3.6016,-3.6016,0.0,0.0,0.0,0.0,0.0,0.0,0.0,0.0,0.0,0.0,0.0,0.0,0.0,0.0,0.0,0.0,0.0,0.0,0.0,0.0,0.0,0.0,0.0,0.0,0.0,0.0,0.0,0.0,0.0,0.0,0.0,-2.0094,-2.0027,-2.0027,-2.016,-2.0174,-2.0027,-2.016,-2.0227,-2.0227,-2.0227,-2.0307,-2.0481,-2.0909,-2.1109,-2.1096,-2.0962,-2.0909,-2.0895,-2.0748,-2.0775,-2.0909,-2.0909,-2.0989,-2.1109,-2.1109,-2.1475,-2.2215,-2.3574,-2.4933,-2.6156,-2.7624,-2.8498,-2.8975,-2.8975,-2.8975,-2.8975,-2.8975,-2.9094,-2.9213,-2.9213,-2.9331,-2.945,-2.945,-2.945,-2.945,-2.945,-2.9568,-2.9804,-3.0039,-3.06,-3.1065,-3.1537,-3.2396,-3.3164,-3.3379,-3.3418,-3.3418,-3.3418,-3.3418,-3.3418,-3.3418,-3.3613,-3.373,-3.373,-3.3926,-3.4023,-3.4023,-3.4453,-3.4805,-3.5019,-3.5215,-3.5332,-3.5332,-3.5566,-3.5703,-3.5703,-3.5918,-3.6016,-3.6016,-3.6016,-3.6016,0.0,0.0,0.0,0.0,0.0,0.0,0.0,0.0,0.0,0.0,0.0,0.0,0.0,0.0,0.0,0.0,0.0,0.0,0.0,0.0,0.0,0.0,0.0,0.0,0.0,0.0,0.0,0.0,0.0,0.0,-1.9947,-1.9853,-1.972,-1.972,-1.996,-1.9973,-1.9733,-1.996,-2.008,-2.008,-2.0134,-2.016,-2.0174,-2.0722,-2.0962,-2.0949,-2.0708,-2.0601,-2.0588,-2.0388,-2.0454,-2.0681,-2.0735,-2.0895,-2.1109,-2.1109,-2.1853,-2.2827,-2.3325,-2.4794,-2.6762,-2.7142,-2.8122,-2.8975,-2.8975,-2.8975,-2.8975,-2.8975,-2.9213,-2.945,-2.945,-2.9568,-2.9686,-2.9804,-2.9922,-3.0039,-2.9686,-2.9804,-3.0039,-3.0392,-3.0895,-3.1397,-3.2285,-3.2969,-3.3418,-3.3418,-3.3418,-3.3418,-3.3418,-3.3418,-3.3418,-3.3418,-3.3809,-3.4082,-3.4082,-3.4453,-3.4707,-3.4707,-3.5137,-3.5391,-3.5391,-3.5801,-3.6016,-3.6016,-3.6016,-3.6016,-3.6016,-3.6016,-3.6016,-3.6016,-3.6016,-3.6016,0.0,0.0,0.0,0.0,0.0,0.0,0.0,0.0,0.0,0.0,0.0,0.0,0.0,0.0,0.0,0.0,0.0,0.0,0.0,0.0,0.0,0.0,0.0,0.0,0.0,0.0,0.0,0.0,0.0,0.0,-1.9479,-1.9452,-1.9426,-1.9426,-1.9466,-1.9466,-1.9426,-1.9466,-1.9479,-1.9492,-1.9733,-1.9853,-1.9867,-2.0201,-2.0347,-2.0347,-2.0307,-2.0294,-2.0307,-2.0535,-2.0641,-2.0695,-2.0949,-2.1082,-2.1109,-2.1109,-2.1235,-2.1727,-2.3946,-2.4933,-2.5668,-2.8002,-2.8856,-2.8975,-2.8975,-2.8975,-2.8975,-2.8975,-2.9213,-2.945,-2.9094,-2.9686,-3.0157,-2.9686,-3.0157,-3.0645,-3.0392,-3.0274,-3.0392,-3.0762,-3.1523,-3.2324,-3.3125,-3.334,-3.3418,-3.3418,-3.3418,-3.3418,-3.3418,-3.3418,-3.3418,-3.3418,-3.3809,-3.4082,-3.4082,-3.4453,-3.4707,-3.4707,-3.5137,-3.5391,-3.5391,-3.5801,-3.6016,-3.6016,-3.6016,-3.6016,-3.6016,-3.6016,-3.6016,-3.6016,-3.6016,-3.6152,0.0,0.0,0.0,0.0,0.0,0.0,0.0,0.0,0.0,0.0,0.0,0.0,0.0,0.0,0.0,0.0,0.0,0.0,0.0,0.0,0.0,0.0,0.0,0.0,0.0,0.0,0.0,0.0,0.0,-1.9372,-1.9372,-1.9372,-1.9372,-1.9372,-1.9372,-1.9372,-1.9372,-1.9372,-1.9372,-1.9372,-1.9492,-1.9559,-1.9559,-1.9853,-2.0174,-2.0468,-2.0307,-2.0334,-2.0481,-2.0441,-2.0521,-2.0695,-2.0815,-2.0962,-2.1109,-2.1109,-2.1978,-2.345,-2.4564,-2.6034,-2.7383,-2.8618,-2.8975,-2.8975,-2.8975,-2.8975,-2.8975,-2.9213,-2.945,-2.9568,-2.9686,-2.9922,-3.0157,-3.0294,-3.0411,-3.0703,-3.0936,-3.08,-3.0898,-3.1504,-3.2109,-3.2715,-3.332,-3.3418,-3.3418,-3.3418,-3.3418,-3.3418,-3.3418,-3.3418,-3.3516,-3.375,-3.418,-3.4531,-3.4785,-3.5195,-3.5449,-3.5449,-3.5625,-3.5742,-3.5742,-3.5918,-3.6016,-3.6016,-3.6016,-3.6016,-3.6016,-3.6016,-3.6016,-3.6016,-3.6016,-3.6016,0.0,0.0,0.0,0.0,0.0,0.0,0.0,0.0,0.0,0.0,0.0,0.0,0.0,0.0,0.0,0.0,0.0,0.0,0.0,0.0,0.0,0.0,0.0,0.0,0.0,0.0,0.0,0.0,0.0,-1.9372,-1.9372,-1.9372,-1.9372,-1.9372,-1.9372,-1.9372,-1.9372,-1.9372,-1.9372,-1.9372,-1.9372,-1.9412,-1.9492,-1.9706,-2.012,-2.0655,-2.0361,-2.0361,-2.0548,-2.0401,-2.0481,-2.0681,-2.0762,-2.0922,-2.1109,-2.1109,-2.2591,-2.4564,-2.4933,-2.652,-2.8498,-2.8856,-2.8975,-2.8975,-2.8975,-2.9094,-2.9213,-2.9331,-2.945,-2.9686,-3.0039,-3.0157,-3.0157,-3.0645,-3.0645,-3.0723,-3.1289,-3.1289,-3.1406,-3.2051,-3.25,-3.293,-3.334,-3.3418,-3.3418,-3.3418,-3.3418,-3.3418,-3.3418,-3.3418,-3.3594,-3.4023,-3.4453,-3.4883,-3.5351,-3.5781,-3.6016,-3.6016,-3.6016,-3.6016,-3.6016,-3.6016,-3.6016,-3.6016,-3.6016,-3.6016,-3.6016,-3.6133,-3.6133,-3.6016,-3.6133,-3.6328,0.0,0.0,0.0,0.0,0.0,0.0,0.0,0.0,0.0,0.0,0.0,0.0,0.0,0.0,0.0,0.0,0.0,0.0,0.0,0.0,0.0,0.0,0.0,0.0,0.0,0.0,0.0,0.0,0.0,-1.9372,-1.9372,-1.9372,-1.9372,-1.9372,-1.9372,-1.9372,-1.9372,-1.9372,-1.9372,-1.9372,-1.9372,-1.9506,-1.9773,-1.9786,-2.012,-2.0655,-2.0361,-2.0241,-2.0281,-2.0548,-2.0655,-2.0708,-2.0975,-2.1096,-2.1109,-2.1109,-2.1964,-2.3325,-2.4564,-2.5912,-2.7263,-2.8618,-2.8975,-2.8975,-2.8975,-2.9213,-2.945,-2.9094,-2.945,-2.9804,-2.9568,-2.9922,-3.0392,-3.0392,-3.0645,-3.0898,-3.0918,-3.1543,-3.2109,-3.2168,-3.25,-3.293,-3.334,-3.3418,-3.3418,-3.3418,-3.3418,-3.3418,-3.3418,-3.3418,-3.3594,-3.4023,-3.4453,-3.4883,-3.5351,-3.5781,-3.6016,-3.6016,-3.6016,-3.6016,-3.6016,-3.6016,-3.6016,-3.6016,-3.6016,-3.6016,-3.6016,-3.6445,-3.6426,-3.6035,-3.6445,-3.7035,0.0,0.0,0.0,0.0,0.0,0.0,0.0,0.0,0.0,0.0,0.0,0.0,0.0,0.0,0.0,0.0,0.0,0.0,0.0,0.0,0.0,0.0,0.0,0.0,0.0,0.0,0.0,0.0,0.0,0.0,-1.9372,-1.9372,-1.9372,-1.9372,-1.9372,-1.9372,-1.9372,-1.9372,-1.9372,-1.9372,-1.9559,-1.9693,-1.9813,-2.0187,-2.0481,-2.0681,-2.0762,-2.0802,-2.0802,-2.0909,-2.0949,-2.0962,-2.1069,-2.1109,-2.1235,-2.209,-2.3201,-2.4564,-2.579,-2.7142,-2.8361,-2.8856,-2.8975,-2.8975,-2.8975,-2.9213,-2.945,-2.9331,-2.9568,-2.9922,-3.0039,-3.0274,-3.0509,-3.0645,-3.1385,-3.1973,-3.1406,-3.1973,-3.2578,-3.2578,-3.291,-3.3242,-3.3398,-3.3418,-3.3418,-3.3418,-3.3418,-3.3418,-3.3418,-3.3672,-3.4004,-3.4434,-3.4883,-3.5312,-3.5762,-3.5937,-3.6016,-3.6016,-3.6016,-3.6016,-3.6016,-3.6016,-3.6152,-3.6426,-3.6445,-3.6445,-3.6445,-3.6601,-3.6738,-3.6836,-3.7291,-3.7649,-1.5872,0.0,0.0,0.0,0.0,0.0,0.0,0.0,0.0,0.0,0.0,0.0,0.0,0.0,0.0,0.0,0.0,0.0,0.0,0.0,0.0,0.0,0.0,0.0,0.0,0.0,0.0,0.0,0.0,0.0,-1.9372,-1.9372,-1.9372,-1.9372,-1.9372,-1.9372,-1.9372,-1.9372,-1.9372,-1.9372,-1.9666,-1.9853,-1.996,-2.0454,-2.0735,-2.0828,-2.1029,-2.1109,-2.1109,-2.1109,-2.1109,-2.1109,-2.1109,-2.1362,-2.1853,-2.2827,-2.4178,-2.579,-2.6641,-2.7882,-2.8975,-2.8975,-2.8975,-2.8975,-2.9094,-2.945,-2.9568,-2.9568,-2.9804,-3.0039,-3.0157,-3.0488,-3.0878,-3.1289,-3.207,-3.2637,-3.207,-3.25,-3.2969,-3.2832,-3.3144,-3.3418,-3.3418,-3.3418,-3.3418,-3.3418,-3.3418,-3.3418,-3.3418,-3.3809,-3.4238,-3.4648,-3.5117,-3.5566,-3.5996,-3.6016,-3.6016,-3.6016,-3.6016,-3.6094,-3.623,-3.623,-3.6445,-3.6875,-3.6875,-3.6953,-3.709,-3.709,-3.7168,-3.7305,-3.7744,-3.8085,0.0,0.0,0.0,0.0,0.0,0.0,0.0,0.0,0.0,0.0,0.0,0.0,0.0,0.0,0.0,0.0,0.0,0.0,0.0,0.0,0.0,0.0,0.0,0.0,0.0,0.0,0.0,0.0,0.0,-1.9372,-1.9372,-1.9372,-1.9372,-1.9372,-1.9372,-1.9372,-1.9372,-1.9372,-1.9372,-1.9386,-1.9679,-1.996,-2.0254,-2.0548,-2.0842,-2.1109,-2.1109,-2.1109,-2.1109,-2.1109,-2.1109,-2.1109,-2.1109,-2.1964,-2.3076,-2.3201,-2.4794,-2.7021,-2.7021,-2.7882,-2.8975,-2.8975,-2.8975,-2.9094,-2.945,-2.9686,-2.9804,-2.9568,-2.9922,-3.0274,-3.0058,-3.0738,-3.166,-3.207,-3.25,-3.2812,-3.2793,-3.3125,-3.3301,-3.2891,-3.3144,-3.3418,-3.3418,-3.3437,-3.3437,-3.3437,-3.3437,-3.3437,-3.3457,-3.3828,-3.4258,-3.4668,-3.5137,-3.5586,-3.5996,-3.6016,-3.6016,-3.6016,-3.6016,-3.6211,-3.6641,-3.666,-3.6875,-3.7285,-3.7305,-3.7519,-3.7949,-3.793,-3.7715,-3.7344,-3.7754,-3.8379,-1.7101,0.0,0.0,0.0,0.0,0.0,0.0,0.0,0.0,0.0,0.0,0.0,0.0,0.0,0.0,0.0,0.0,0.0,0.0,0.0,0.0,0.0,0.0,0.0,0.0,0.0,0.0,0.0,-1.9372,-1.9372,-1.9372,-1.9372,-1.9372,-1.9372,-1.9372,-1.9372,-1.9372,-1.9372,-1.9466,-1.9679,-1.9973,-2.0267,-2.0561,-2.0855,-2.1029,-2.1109,-2.1109,-2.1109,-2.1109,-2.1109,-2.1109,-2.1235,-2.2215,-2.2827,-2.3325,-2.5162,-2.6399,-2.7142,-2.8122,-2.8737,-2.8975,-2.8975,-2.8975,-2.9094,-2.945,-2.9568,-2.9686,-2.9804,-3.0039,-3.0449,-3.0895,-3.1774,-3.2402,-3.2207,-3.2715,-3.3164,-3.2871,-3.3125,-3.3379,-3.3281,-3.334,-3.3418,-3.3418,-3.3691,-3.3887,-3.3887,-3.3887,-3.4004,-3.4297,-3.4453,-3.4707,-3.5156,-3.5586,-3.5898,-3.6016,-3.6016,-3.6016,-3.6016,-3.6016,-3.6074,-3.6191,-3.6504,-3.6875,-3.7285,-3.7598,-3.7969,-3.8398,-3.8086,-3.8027,-3.8223,-3.8898,-3.9677,-1.7301,-1.7542,0.0,0.0,0.0,0.0,0.0,-1.809,0.0,0.0,0.0,0.0,0.0,0.0,0.0,0.0,0.0,0.0,0.0,0.0,0.0,0.0,0.0,0.0,0.0,0.0,0.0,-1.9372,-1.9372,-1.9372,-1.9372,-1.9372,-1.9372,-1.9372,-1.9372,-1.9372,-1.9372,-1.9492,-1.9639,-1.98,-2.0227,-2.0508,-2.0681,-2.0975,-2.1109,-2.1109,-2.1109,-2.1475,-2.1964,-2.1964,-2.1964,-2.1964,-2.2827,-2.3822,-2.4917,-2.6399,-2.7383,-2.8002,-2.8737,-2.8975,-2.8975,-2.8975,-2.9094,-2.9213,-2.9568,-2.9804,-2.9922,-3.0039,-3.0274,-3.0644,-3.1501,-3.2168,-3.2559,-3.2656,-3.3066,-3.3359,-3.3105,-3.3242,-3.3418,-3.3418,-3.3418,-3.3418,-3.3418,-3.3633,-3.3809,-3.3809,-3.3945,-3.416,-3.4414,-3.4766,-3.5098,-3.5371,-3.5762,-3.6016,-3.6016,-3.6016,-3.6016,-3.6016,-3.6016,-3.6094,-3.6289,-3.6699,-3.7129,-3.7539,-3.7969,-3.8465,-3.8865,-3.8609,-3.8609,-3.8991,-3.9714,-4.0166,-1.7555,-1.7836,-1.7983,0.0,0.0,0.0,-1.7702,-1.7849,-1.8116,0.0,0.0,0.0,0.0,0.0,0.0,0.0,0.0,0.0,0.0,0.0,0.0,0.0,0.0,0.0,0.0,-1.9372,-1.9372,-1.9372,-1.9372,-1.9372,-1.9372,-1.9372,-1.9372,-1.9372,-1.9372,-1.9372,-1.9372,-1.9653,-1.9813,-1.9853,-2.0414,-2.0695,-2.0735,-2.0989,-2.1109,-2.1109,-2.1235,-2.1964,-2.3076,-2.3201,-2.3325,-2.3325,-2.345,-2.4917,-2.7021,-2.7142,-2.8002,-2.8975,-2.8975,-2.8975,-2.8993,-2.9094,-2.9213,-2.9568,-2.9804,-3.0157,-3.0392,-3.0392,-3.043,-3.076,-3.1953,-3.2207,-3.2441,-3.3242,-3.3418,-3.3418,-3.3418,-3.3418,-3.3418,-3.3418,-3.3418,-3.3418,-3.3418,-3.3457,-3.3496,-3.3496,-3.3867,-3.416,-3.4219,-3.4902,-3.541,-3.5449,-3.5801,-3.6016,-3.6016,-3.6016,-3.6016,-3.6016,-3.6016,-3.6191,-3.6582,-3.7051,-3.748,-3.7851,-3.832,-3.8865,-3.9321,-3.9176,-3.9445,-3.9714,-4.0166,-4.031,0.0,0.0,0.0,0.0,0.0,0.0,-1.7969,-1.8009,-1.8063,0.0,0.0,0.0,0.0,0.0,0.0,0.0,0.0,0.0,0.0,0.0,0.0,0.0,0.0,0.0,0.0,-1.9372,-1.9372,-1.9372,-1.9372,-1.9372,-1.9372,-1.9372,-1.9372,-1.9372,-1.9372,-1.9372,-1.9372,-1.9653,-1.992,-2.0147,-2.0508,-2.0802,-2.1029,-2.1082,-2.1109,-2.1109,-2.2215,-2.2827,-2.3201,-2.4193,-2.4687,-2.4687,-2.579,-2.652,-2.7142,-2.8241,-2.8737,-2.8975,-2.8975,-2.8975,-2.9094,-2.9331,-2.945,-2.9568,-3.0157,-3.0157,-3.0039,-3.0274,-3.0878,-3.1385,-3.2031,-3.2422,-3.2793,-3.3301,-3.3418,-3.3418,-3.3418,-3.3418,-3.3418,-3.3418,-3.3418,-3.3418,-3.3418,-3.3711,-3.3945,-3.3945,-3.4297,-3.4707,-3.5098,-3.5293,-3.5527,-3.5859,-3.5976,-3.6016,-3.6016,-3.6016,-3.6016,-3.6016,-3.6016,-3.6055,-3.6152,-3.6894,-3.7344,-3.7422,-3.8472,-3.9301,-3.957,-3.9301,-3.961,-4.0166,-4.031,-4.0453,0.0,0.0,0.0,-1.849,0.0,0.0,0.0,-1.805,-1.805,0.0,0.0,0.0,0.0,0.0,0.0,0.0,0.0,0.0,0.0,0.0,0.0,0.0,0.0,0.0,0.0,-1.9372,-1.9372,-1.9372,-1.9372,-1.9372,-1.9372,-1.9372,-1.9372,-1.9372,-1.9372,-1.9439,-1.9586,-1.9867,-2.016,-2.0454,-2.0748,-2.0962,-2.1109,-2.1109,-2.1475,-2.209,-2.2827,-2.3807,-2.504,-2.579,-2.6399,-2.7021,-2.7021,-2.7383,-2.8122,-2.8737,-2.8975,-2.8975,-2.8975,-2.9094,-2.9331,-2.945,-2.9686,-3.0039,-3.0274,-3.0392,-3.0411,-3.0645,-3.0918,-3.1348,-3.1992,-3.2324,-3.2637,-3.3281,-3.3418,-3.3418,-3.3418,-3.3418,-3.3418,-3.3418,-3.3418,-3.3418,-3.3418,-3.3613,-3.375,-3.375,-3.4297,-3.4785,-3.5019,-3.543,-3.5781,-3.5996,-3.6016,-3.6016,-3.6016,-3.6016,-3.6113,-3.6328,-3.6133,-3.6211,-3.6641,-3.707,-3.75,-3.793,-3.8813,-3.9301,-3.9714,-3.9734,-4.0022,-4.0596,-4.0596,-4.0863,0.0,0.0,0.0,0.0,0.0,-1.8798,0.0,0.0,0.0,-1.813,0.0,0.0,0.0,0.0,0.0,0.0,0.0,0.0,0.0,0.0,0.0,0.0,0.0,0.0,0.0,-1.9372,-1.9372,-1.9372,-1.9372,-1.9372,-1.9372,-1.9372,-1.9372,-1.9372,-1.9372,-1.9506,-1.98,-2.0094,-2.0374,-2.0681,-2.0975,-2.1109,-2.1109,-2.1348,-2.209,-2.3076,-2.3698,-2.504,-2.7021,-2.7263,-2.8002,-2.8856,-2.7762,-2.8002,-2.8975,-2.8975,-2.8975,-2.8975,-2.9094,-2.9213,-2.9568,-2.9686,-3.0039,-3.0509,-3.0509,-3.0645,-3.0898,-3.0898,-3.0957,-3.1191,-3.1973,-3.2226,-3.248,-3.3242,-3.3418,-3.3418,-3.3418,-3.3418,-3.3418,-3.3418,-3.3418,-3.3418,-3.3418,-3.3418,-3.3457,-3.3535,-3.4199,-3.4726,-3.4824,-3.5527,-3.6016,-3.6016,-3.6016,-3.6016,-3.6016,-3.6094,-3.6289,-3.6641,-3.6348,-3.6484,-3.7266,-3.7383,-3.7793,-3.8555,-3.9011,-3.9445,-3.9714,-4.0166,-4.0596,-4.0882,-4.0965,-4.1214,0.0,0.0,0.0,0.0,-1.9092,0.0,0.0,0.0,-1.8437,-1.8437,0.0,0.0,0.0,0.0,0.0,0.0,0.0,0.0,0.0,0.0,0.0,0.0,0.0,0.0,0.0,0.0,-1.9372,-1.9372,-1.9372,-1.9372,-1.9372,-1.9372,-1.9372,-1.9372,-1.9372,-1.9506,-1.98,-2.0094,-2.0374,-2.0681,-2.0975,-2.1109,-2.1109,-2.2341,-2.2952,-2.3201,-2.5529,-2.6762,-2.7142,-2.8241,-2.8856,-2.8975,-2.8856,-2.8856,-2.8975,-2.8975,-2.8975,-2.9094,-2.9331,-2.945,-2.9568,-3.0157,-3.0528,-3.0879,-3.0879,-3.0879,-3.0898,-3.0898,-3.1152,-3.1562,-3.2051,-3.2441,-3.2832,-3.3301,-3.3418,-3.3418,-3.3418,-3.3418,-3.3418,-3.3418,-3.3418,-3.3418,-3.3418,-3.3418,-3.3555,-3.3945,-3.4394,-3.4844,-3.5254,-3.5723,-3.6016,-3.6016,-3.6016,-3.6016,-3.6016,-3.6367,-3.6621,-3.666,-3.6621,-3.6797,-3.7285,-3.7656,-3.8086,-3.8555,-3.9281,-3.9714,-3.9714,-4.0433,-4.0882,-4.0882,-4.1296,-4.1524,0.0,0.0,0.0,0.0,0.0,0.0,-1.8844,0.0,-1.8691,0.0,0.0,0.0,0.0,0.0,0.0,0.0,0.0,0.0,0.0,0.0,0.0,0.0,0.0,0.0,0.0,0.0,0.0,0.0,0.0,-1.9372,-1.9372,-1.9372,-1.9372,-1.9372,-1.9533,-1.976,-2.0054,-2.0347,-2.0999,-2.2018,-2.142,-2.1853,-2.3325,-2.3201,-2.3931,-2.5407,-2.652,-2.7383,-2.8241,-2.8737,-2.8975,-2.8975,-2.8975,-2.8975,-2.8975,-2.8975,-2.9094,-2.9331,-2.945,-2.9686,-3.0157,-3.0509,-3.0762,-3.0898,-3.0898,-3.0898,-3.0898,-3.0898,-3.1191,-3.1621,-3.2051,-3.248,-3.291,-3.332,-3.3418,-3.3418,-3.3418,-3.3418,-3.3418,-3.3418,-3.3418,-3.3418,-3.3418,-3.3418,-3.3574,-3.4004,-3.4434,-3.4863,-3.5332,-3.5762,-3.6016,-3.6016,-3.6016,-3.6016,-3.6016,-3.6426,-3.6777,-3.7012,-3.75,-3.7734,-3.7656,-3.8066,-3.8379,-3.8574,-3.9281,-3.9714,-3.9714,-4.0433,-4.1557,-4.2664,-4.1895,-4.227,-1.7353,0.0,0.0,0.0,0.0,0.0,0.0,0.0,0.0,0.0,0.0,0.0,0.0,0.0,0.0,-1.8824,0.0,0.0,0.0,0.0,0.0,0.0,0.0,0.0,0.0,0.0,0.0,-1.9372,-1.9372,-1.9372,-1.9372,-1.9372,-1.9399,-1.9479,-1.9693,-1.9973,-2.0347,-2.0931,-2.1796,-2.3076,-2.2466,-2.3201,-2.4933,-2.4425,-2.5162,-2.7021,-2.7383,-2.8122,-2.8975,-2.8975,-2.8975,-2.8975,-2.8975,-2.8975,-2.8975,-2.9094,-2.9331,-2.9568,-2.9686,-3.0039,-3.0626,-3.0762,-3.0898,-3.0898,-3.0898,-3.0898,-3.0898,-3.0898,-3.1289,-3.1738,-3.1934,-3.248,-3.3008,-3.3203,-3.334,-3.3418,-3.3418,-3.3418,-3.3418,-3.3418,-3.3516,-3.3594,-3.3594,-3.3496,-3.3613,-3.416,-3.4512,-3.4902,-3.5488,-3.584,-3.6016,-3.6016,-3.6016,-3.6016,-3.6016,-3.6523,-3.7031,-3.7441,-3.8164,-3.8379,-3.7949,-3.834,-3.872,-3.872,-3.9425,-3.9714,-3.9858,-4.1108,-4.2479,-4.3916,-4.2949,-4.3536,0.0,0.0,0.0,-1.8765,0.0,0.0,0.0,0.0,-1.9345,0.0,0.0,0.0,0.0,0.0,-1.9172,-1.8597,-1.8985,0.0,0.0,0.0,0.0,0.0,0.0,0.0,0.0,0.0,0.0,-1.9372,-1.9372,-1.9372,-1.9372,-1.9372,-1.9492,-1.9773,-1.98,-2.008,-2.0655,-2.1874,-2.2754,-2.3076,-2.4317,-2.4933,-2.5056,-2.6277,-2.69,-2.7021,-2.8361,-2.8975,-2.8975,-2.8975,-2.8975,-2.8975,-2.8975,-2.8975,-2.8975,-2.9331,-2.945,-2.9568,-3.0157,-3.0626,-3.0898,-3.0898,-3.0898,-3.0898,-3.0898,-3.0898,-3.0898,-3.0898,-3.1504,-3.2051,-3.1641,-3.2461,-3.3301,-3.291,-3.3125,-3.3418,-3.3418,-3.3418,-3.3418,-3.3418,-3.3769,-3.4043,-3.4043,-3.3691,-3.3711,-3.4551,-3.4687,-3.5019,-3.5879,-3.6016,-3.6016,-3.6016,-3.6016,-3.6016,-3.6016,-3.6797,-3.7461,-3.7871,-3.832,-3.8379,-3.7949,-3.834,-3.872,-3.9176,-3.959,-3.9858,-4.031,-4.2685,-4.3894,-4.3916,-4.4255,-4.5577,0.0,0.0,-1.7726,-1.8194,0.0,0.0,0.0,0.0,0.0,0.0,0.0,0.0,0.0,-1.9372,-1.9305,-1.9105,-1.9239,-1.9292,0.0,0.0,0.0,0.0,0.0,0.0,0.0,0.0,0.0,-1.9359,-1.9185,-1.9158,0.0,-1.9372,-1.9506,-1.9786,-2.0795,-2.1569,-2.1982,-2.3412,-2.4684,-2.5668,-2.5178,-2.5912,-2.7624,-2.7142,-2.7504,-2.8361,-2.8856,-2.8975,-2.8975,-2.9213,-2.9213,-2.8975,-2.9213,-2.9331,-2.9331,-2.945,-2.9568,-2.9804,-3.0528,-3.0762,-3.0898,-3.0898,-3.0898,-3.0898,-3.0898,-3.0898,-3.0898,-3.0898,-3.1504,-3.2129,-3.1992,-3.2676,-3.3379,-3.3242,-3.332,-3.3418,-3.3418,-3.3418,-3.3418,-3.3418,-3.3769,-3.4082,-3.4082,-3.418,-3.4473,-3.5078,-3.5156,-3.5371,-3.5937,-3.6016,-3.6016,-3.6016,-3.6016,-3.6133,-3.6426,-3.7226,-3.7891,-3.832,-3.8496,-3.8516,-3.8359,-3.8787,-3.903,-3.9176,-3.9734,-4.0576,-4.1813,-4.3252,-4.5057,-4.7352,-4.7866,-4.8498,-1.7237,-1.7358,0.0,-1.7972,-1.8077,0.0,-1.8765,0.0,0.0,0.0,0.0,0.0,0.0,0.0,-1.9372,-1.9372,-1.9372,-1.9372,0.0,-1.9372,0.0,0.0,0.0,0.0,0.0,0.0,-1.8998,-1.9199,-1.9367,-1.9721,0.0,0.0,-2.0916,-2.1331,-2.2246,-2.3036,-2.349,-2.4928,-2.6156,-2.7021,-2.6658,-2.7383,-2.8975,-2.8122,-2.8122,-2.8975,-2.8975,-2.8975,-2.8975,-2.9331,-2.9331,-2.9213,-2.9568,-2.9686,-2.9686,-2.9686,-2.9922,-3.0294,-3.0762,-3.0898,-3.0898,-3.0898,-3.0898,-3.0898,-3.0898,-3.0898,-3.0918,-3.1074,-3.1621,-3.2168,-3.2168,-3.2793,-3.3379,-3.3242,-3.332,-3.3418,-3.3418,-3.3418,-3.3418,-3.3418,-3.3769,-3.4121,-3.4277,-3.4648,-3.5039,-3.5351,-3.5391,-3.5547,-3.5976,-3.6016,-3.6016,-3.6016,-3.6016,-3.625,-3.6836,-3.7519,-3.8393,-3.9385,-3.9405,-3.955,-4.0105,-4.0555,-4.0903,-4.1212,-4.1615,-4.2526,-4.4096,-4.527,-4.6959,-4.9463,-5.0433,-5.0954]},{"header":{"parameterUnit":"m.s-1","parameterCategory":1,"la1":30.6,"la2":29.2853,"lo1":-89.7004,"lo2":-87.6739,"dy":0.0162,"dx":0.0183,"nx":112,"ny":82,"refTime":"2023-06-19T06:00:00:Z","depth":0,"parameterNumber":3,"parameterNumberName":"V-component_of_WINDS"},"data":[0.0,0.0,0.0,0.0,0.0,0.0,0.0,0.0,0.0,0.0,0.0,0.0,0.0,0.0,0.0,0.0,0.0,0.0,0.0,0.0,0.0,0.0,0.0,0.0,0.0,0.0,0.0,0.0,0.0,0.0,0.0,0.0,0.0,0.0,0.0,0.0,0.0,0.0,0.0,0.0,0.0,0.0,0.0,0.0,0.0,0.0,0.0,0.0,0.0,0.0,0.0,0.0,0.0,0.0,0.0,0.0,0.0,0.0,0.0,0.0,0.0,0.0,0.0,0.0,0.0,0.0,0.0,0.0,0.0,0.0,0.0,0.0,0.0,0.0,0.0,0.0,0.0,0.0,0.0,0.0,0.0,0.0,0.0,0.0,0.0,0.0,0.0,0.0,0.0,0.0,0.0,-2.9701,-3.1426,-3.2325,-3.2112,-3.2278,-3.1411,-2.9207,0.0,0.0,0.0,0.0,0.0,0.0,0.0,0.0,0.0,0.0,0.0,0.0,0.0,0.0,0.0,0.0,0.0,0.0,0.0,0.0,0.0,0.0,0.0,0.0,0.0,0.0,0.0,0.0,0.0,0.0,0.0,0.0,0.0,0.0,0.0,0.0,0.0,0.0,0.0,0.0,0.0,0.0,0.0,0.0,0.0,0.0,0.0,0.0,0.0,0.0,0.0,0.0,0.0,0.0,0.0,0.0,0.0,0.0,0.0,0.0,0.0,0.0,0.0,0.0,0.0,0.0,0.0,0.0,0.0,0.0,0.0,0.0,0.0,0.0,0.0,0.0,0.0,0.0,0.0,0.0,0.0,0.0,0.0,0.0,0.0,0.0,0.0,0.0,0.0,0.0,0.0,0.0,0.0,0.0,0.0,0.0,0.0,0.0,0.0,0.0,0.0,0.0,0.0,0.0,-2.8724,-3.1785,-3.2588,-3.3208,-3.3903,-3.242,-3.0964,-2.998,0.0,0.0,0.0,0.0,0.0,0.0,0.0,0.0,0.0,0.0,0.0,0.0,0.0,0.0,0.0,0.0,0.0,0.0,0.0,0.0,0.0,0.0,0.0,0.0,0.0,0.0,0.0,0.0,0.0,0.0,0.0,0.0,0.0,0.0,0.0,0.0,0.0,0.0,0.0,0.0,0.0,0.0,0.0,0.0,0.0,0.0,0.0,0.0,0.0,0.0,0.0,0.0,0.0,0.0,0.0,0.0,0.0,0.0,0.0,0.0,0.0,0.0,0.0,0.0,0.0,0.0,0.0,0.0,0.0,0.0,0.0,0.0,0.0,0.0,0.0,0.0,0.0,0.0,0.0,0.0,0.0,0.0,0.0,0.0,0.0,0.0,0.0,0.0,0.0,0.0,0.0,0.0,0.0,0.0,0.0,0.0,0.0,0.0,0.0,0.0,0.0,0.0,0.0,-2.8153,-2.96,-3.1613,-3.2083,-3.2696,-3.3857,-3.2723,-3.1623,-3.091,-3.0296,0.0,0.0,0.0,0.0,0.0,0.0,0.0,0.0,0.0,0.0,0.0,0.0,0.0,0.0,0.0,0.0,0.0,0.0,0.0,0.0,0.0,0.0,0.0,0.0,0.0,0.0,0.0,0.0,0.0,0.0,0.0,0.0,0.0,0.0,0.0,0.0,0.0,0.0,0.0,0.0,0.0,0.0,0.0,0.0,0.0,0.0,0.0,0.0,0.0,0.0,0.0,0.0,0.0,0.0,0.0,0.0,0.0,0.0,0.0,0.0,0.0,0.0,0.0,0.0,0.0,0.0,0.0,0.0,0.0,0.0,0.0,0.0,0.0,0.0,0.0,0.0,0.0,0.0,0.0,0.0,0.0,0.0,0.0,0.0,0.0,0.0,0.0,0.0,0.0,0.0,0.0,0.0,0.0,0.0,0.0,0.0,0.0,0.0,0.0,0.0,0.0,0.0,-2.9673,-3.0538,-3.1195,-3.1693,-3.2403,-3.3437,-3.3055,-3.2382,-3.1501,-3.0645,0.0,0.0,0.0,0.0,0.0,0.0,0.0,0.0,0.0,0.0,0.0,0.0,0.0,0.0,0.0,0.0,0.0,0.0,0.0,0.0,0.0,0.0,0.0,0.0,0.0,0.0,0.0,0.0,0.0,0.0,0.0,0.0,0.0,0.0,0.0,0.0,0.0,0.0,0.0,0.0,0.0,0.0,0.0,0.0,0.0,0.0,0.0,0.0,0.0,0.0,0.0,0.0,0.0,0.0,0.0,0.0,0.0,0.0,0.0,0.0,0.0,0.0,0.0,0.0,0.0,0.0,0.0,0.0,0.0,0.0,0.0,0.0,0.0,0.0,0.0,0.0,0.0,0.0,0.0,0.0,0.0,0.0,0.0,0.0,0.0,0.0,0.0,0.0,0.0,0.0,0.0,0.0,0.0,0.0,0.0,0.0,0.0,0.0,0.0,0.0,0.0,0.0,-3.0332,-3.1397,-3.1495,-3.2456,-3.3136,-3.3202,-3.3172,-3.2603,-3.1278,-3.1299,0.0,0.0,0.0,0.0,0.0,0.0,0.0,0.0,0.0,0.0,0.0,0.0,0.0,0.0,0.0,0.0,0.0,0.0,0.0,0.0,0.0,0.0,0.0,0.0,0.0,0.0,0.0,0.0,0.0,0.0,0.0,0.0,0.0,0.0,0.0,0.0,0.0,0.0,0.0,0.0,0.0,0.0,0.0,0.0,0.0,0.0,0.0,0.0,0.0,0.0,0.0,0.0,0.0,0.0,0.0,0.0,0.0,0.0,0.0,0.0,0.0,0.0,0.0,0.0,0.0,0.0,0.0,0.0,0.0,0.0,0.0,0.0,0.0,0.0,0.0,0.0,0.0,0.0,0.0,0.0,0.0,0.0,0.0,0.0,0.0,0.0,0.0,0.0,0.0,0.0,0.0,0.0,0.0,0.0,0.0,0.0,0.0,0.0,0.0,0.0,0.0,0.0,-3.0759,-3.1848,0.0,-3.2746,-3.3113,-3.3597,-3.3379,-3.2875,-3.2178,0.0,0.0,0.0,0.0,0.0,0.0,0.0,0.0,0.0,0.0,0.0,0.0,0.0,0.0,0.0,0.0,0.0,0.0,0.0,0.0,0.0,0.0,0.0,0.0,0.0,0.0,0.0,0.0,0.0,0.0,0.0,0.0,0.0,0.0,0.0,0.0,0.0,0.0,0.0,0.0,0.0,0.0,0.0,0.0,0.0,0.0,0.0,0.0,0.0,0.0,0.0,0.0,0.0,0.0,0.0,0.0,0.0,0.0,0.0,0.0,0.0,0.0,0.0,0.0,0.0,0.0,0.0,0.0,0.0,0.0,0.0,0.0,0.0,0.0,0.0,0.0,0.0,0.0,0.0,0.0,0.0,0.0,0.0,0.0,0.0,0.0,0.0,0.0,0.0,0.0,0.0,0.0,0.0,0.0,0.0,0.0,0.0,0.0,0.0,0.0,0.0,0.0,-3.01,-3.1225,-3.2194,0.0,-3.2944,-3.3183,-3.3542,-3.3437,-3.3111,-3.2603,0.0,0.0,0.0,0.0,0.0,0.0,0.0,0.0,0.0,0.0,0.0,0.0,0.0,0.0,0.0,0.0,0.0,0.0,0.0,0.0,0.0,0.0,0.0,0.0,0.0,0.0,0.0,0.0,0.0,0.0,0.0,0.0,0.0,0.0,0.0,0.0,0.0,0.0,0.0,0.0,0.0,0.0,0.0,0.0,0.0,0.0,0.0,0.0,0.0,0.0,0.0,0.0,0.0,0.0,0.0,0.0,0.0,0.0,0.0,0.0,0.0,0.0,0.0,0.0,0.0,0.0,0.0,0.0,0.0,0.0,0.0,0.0,0.0,0.0,0.0,0.0,0.0,0.0,0.0,0.0,0.0,0.0,0.0,0.0,0.0,0.0,0.0,0.0,0.0,0.0,0.0,0.0,0.0,0.0,0.0,0.0,0.0,0.0,0.0,0.0,0.0,0.0,-3.0281,-3.1704,-3.2621,-3.2347,-3.3113,-3.3415,-3.2965,-3.3327,-3.3238,0.0,0.0,0.0,0.0,0.0,0.0,0.0,0.0,0.0,0.0,0.0,0.0,0.0,0.0,0.0,0.0,0.0,0.0,0.0,0.0,0.0,0.0,0.0,0.0,0.0,0.0,0.0,0.0,0.0,0.0,0.0,0.0,0.0,0.0,0.0,0.0,0.0,0.0,0.0,0.0,0.0,0.0,0.0,0.0,0.0,0.0,0.0,0.0,0.0,0.0,0.0,0.0,0.0,0.0,0.0,0.0,0.0,0.0,0.0,0.0,0.0,0.0,0.0,0.0,0.0,0.0,0.0,0.0,0.0,0.0,0.0,0.0,0.0,0.0,0.0,0.0,0.0,0.0,0.0,0.0,0.0,0.0,0.0,0.0,0.0,0.0,0.0,0.0,0.0,0.0,0.0,0.0,0.0,0.0,0.0,0.0,0.0,0.0,0.0,0.0,0.0,0.0,0.0,-3.1722,-3.2932,-3.3747,-3.3635,-3.3729,-3.3918,-3.4147,-3.3647,-3.327,-3.3143,0.0,0.0,0.0,0.0,0.0,0.0,0.0,0.0,0.0,0.0,0.0,0.0,0.0,0.0,0.0,0.0,0.0,0.0,0.0,0.0,0.0,0.0,0.0,0.0,0.0,0.0,0.0,0.0,0.0,0.0,0.0,0.0,0.0,0.0,0.0,0.0,0.0,0.0,0.0,0.0,0.0,0.0,0.0,0.0,0.0,0.0,0.0,0.0,0.0,0.0,0.0,0.0,0.0,0.0,0.0,0.0,0.0,0.0,0.0,0.0,0.0,0.0,0.0,0.0,0.0,0.0,0.0,0.0,0.0,0.0,0.0,0.0,0.0,0.0,0.0,0.0,0.0,0.0,0.0,0.0,0.0,0.0,0.0,0.0,0.0,0.0,0.0,0.0,0.0,0.0,0.0,0.0,0.0,0.0,0.0,0.0,0.0,0.0,0.0,0.0,0.0,0.0,-3.2444,-3.3499,-3.4303,-3.4525,-3.4548,-3.4696,-3.5036,-3.4582,-3.4231,-3.4129,0.0,0.0,0.0,0.0,0.0,0.0,0.0,0.0,0.0,0.0,0.0,0.0,0.0,0.0,0.0,0.0,0.0,0.0,0.0,0.0,0.0,0.0,0.0,0.0,0.0,0.0,0.0,0.0,0.0,0.0,0.0,0.0,0.0,0.0,0.0,0.0,0.0,0.0,0.0,0.0,0.0,0.0,0.0,0.0,0.0,0.0,0.0,0.0,0.0,0.0,0.0,0.0,0.0,0.0,0.0,0.0,0.0,0.0,0.0,0.0,0.0,0.0,0.0,0.0,0.0,0.0,0.0,0.0,0.0,0.0,0.0,0.0,0.0,0.0,0.0,0.0,0.0,0.0,0.0,0.0,0.0,0.0,0.0,0.0,0.0,0.0,0.0,0.0,0.0,0.0,0.0,0.0,0.0,0.0,0.0,0.0,0.0,0.0,0.0,0.0,0.0,0.0,-3.2893,-3.3771,-3.4599,-3.5155,-3.5373,-3.557,-3.5684,-3.5846,-3.5688,-3.512,0.0,0.0,0.0,0.0,0.0,0.0,0.0,0.0,0.0,0.0,0.0,0.0,0.0,0.0,0.0,0.0,0.0,0.0,0.0,0.0,0.0,0.0,0.0,0.0,0.0,0.0,0.0,0.0,0.0,0.0,0.0,0.0,0.0,0.0,0.0,0.0,0.0,0.0,0.0,0.0,0.0,0.0,0.0,0.0,0.0,0.0,0.0,0.0,0.0,0.0,0.0,0.0,0.0,0.0,0.0,0.0,0.0,0.0,0.0,0.0,-3.3632,0.0,0.0,0.0,0.0,0.0,0.0,0.0,0.0,0.0,0.0,0.0,0.0,0.0,0.0,0.0,0.0,0.0,0.0,0.0,0.0,0.0,0.0,0.0,0.0,0.0,0.0,0.0,0.0,0.0,0.0,0.0,0.0,0.0,0.0,0.0,0.0,0.0,0.0,0.0,0.0,0.0,-3.4502,-3.5339,-3.5892,-3.6049,-3.5762,-3.5851,-3.6486,-3.5849,-3.5437,-3.5608,-3.5041,0.0,0.0,0.0,0.0,0.0,0.0,0.0,0.0,0.0,0.0,0.0,0.0,0.0,0.0,0.0,0.0,0.0,0.0,0.0,0.0,0.0,0.0,0.0,0.0,0.0,0.0,0.0,0.0,0.0,0.0,0.0,0.0,0.0,0.0,0.0,0.0,0.0,0.0,0.0,0.0,0.0,0.0,0.0,0.0,0.0,0.0,0.0,0.0,0.0,0.0,0.0,0.0,0.0,0.0,0.0,0.0,0.0,0.0,0.0,0.0,-3.5968,0.0,0.0,0.0,0.0,0.0,0.0,0.0,0.0,0.0,0.0,0.0,0.0,0.0,0.0,0.0,0.0,0.0,0.0,0.0,0.0,0.0,0.0,0.0,0.0,0.0,0.0,0.0,0.0,0.0,0.0,0.0,0.0,0.0,0.0,0.0,0.0,0.0,0.0,0.0,0.0,-3.5607,-3.6196,-3.6656,-3.7026,-3.6751,-3.6807,-3.7515,-3.6958,-3.6577,-3.6679,-3.6101,0.0,0.0,0.0,0.0,0.0,0.0,0.0,0.0,0.0,0.0,0.0,0.0,0.0,0.0,0.0,0.0,0.0,0.0,0.0,0.0,0.0,0.0,0.0,0.0,0.0,0.0,0.0,0.0,0.0,0.0,0.0,0.0,0.0,0.0,0.0,0.0,0.0,0.0,0.0,0.0,0.0,0.0,0.0,0.0,0.0,0.0,0.0,0.0,0.0,0.0,0.0,0.0,0.0,-4.0537,-4.112,-4.1871,-4.1925,-4.1987,-4.19,-4.0462,-3.9374,-3.8632,0.0,0.0,0.0,0.0,0.0,0.0,0.0,0.0,0.0,0.0,0.0,0.0,0.0,0.0,0.0,0.0,0.0,0.0,0.0,0.0,0.0,0.0,0.0,0.0,0.0,-3.7856,-3.7753,0.0,0.0,0.0,0.0,0.0,0.0,0.0,0.0,0.0,0.0,0.0,0.0,-3.6546,-3.6878,-3.7266,-3.7933,-3.7713,-3.7729,-3.8231,-3.807,-3.7828,-3.754,-3.7203,-3.704,0.0,0.0,0.0,0.0,0.0,0.0,0.0,0.0,0.0,0.0,0.0,0.0,0.0,0.0,0.0,0.0,0.0,0.0,0.0,0.0,0.0,0.0,0.0,0.0,0.0,0.0,0.0,0.0,0.0,0.0,0.0,0.0,-3.5032,-3.5889,0.0,0.0,0.0,0.0,0.0,0.0,0.0,0.0,0.0,0.0,0.0,0.0,0.0,-3.9697,-4.0447,-4.1809,-4.2572,-4.2831,-4.4175,-4.4989,-4.5335,-4.5422,-4.5462,-4.5528,-4.5363,0.0,-3.9529,-3.9531,0.0,0.0,0.0,0.0,0.0,0.0,0.0,0.0,0.0,0.0,0.0,0.0,0.0,0.0,0.0,0.0,0.0,0.0,0.0,0.0,0.0,0.0,-3.9716,-4.0382,-3.9943,-3.9557,0.0,-3.8527,-3.6919,-3.6894,-3.677,0.0,0.0,0.0,0.0,0.0,0.0,0.0,-3.7654,-3.7971,-3.8204,-3.8314,-3.7889,-3.7649,-3.7721,-3.7685,-3.754,-3.7352,-3.7126,-3.7206,-3.7666,-3.7421,0.0,0.0,0.0,0.0,0.0,0.0,0.0,0.0,0.0,0.0,0.0,0.0,0.0,0.0,0.0,0.0,0.0,0.0,0.0,0.0,0.0,0.0,0.0,0.0,0.0,0.0,0.0,0.0,0.0,-3.5489,-3.5878,-3.6778,-3.6752,-3.6914,0.0,0.0,0.0,0.0,0.0,0.0,0.0,0.0,0.0,-4.2215,-4.2724,-4.3142,-4.3489,-4.4723,-4.5379,-4.5454,-4.6236,-4.6941,-4.7517,-4.7573,-4.764,-4.7654,-4.7701,-4.6342,-4.4008,-4.2498,-4.1362,-4.0504,0.0,0.0,0.0,0.0,-4.0043,-4.0438,-4.047,-4.0726,0.0,-4.0938,0.0,0.0,0.0,0.0,0.0,0.0,0.0,0.0,0.0,0.0,-4.1404,-4.1699,-4.1487,-4.1274,-4.1506,-4.0654,-3.9476,0.0,-3.8201,-3.7973,-3.7367,0.0,0.0,0.0,0.0,0.0,-3.9834,-4.0096,-4.0136,-4.001,-3.9613,-3.9301,-3.9121,-3.9009,-3.8821,-3.8589,-3.839,-3.8321,-3.8425,-3.8243,-3.8249,0.0,0.0,0.0,0.0,0.0,0.0,0.0,0.0,0.0,0.0,0.0,0.0,0.0,0.0,0.0,0.0,0.0,0.0,0.0,0.0,0.0,0.0,0.0,0.0,0.0,0.0,0.0,0.0,-3.638,-3.669,-3.7585,-3.7661,-3.7781,0.0,0.0,0.0,0.0,0.0,0.0,-4.157,-4.2458,-4.3583,-4.497,-4.5851,-4.6314,-4.6287,-4.7264,-4.7791,-4.7869,-4.8193,-4.873,-4.9406,-4.9684,-4.9696,-4.9462,-4.9696,-4.9228,-4.8017,-4.5387,-4.3789,-4.2889,-4.1933,-4.1579,-4.1551,-4.1551,-4.1954,-4.2477,-4.2498,-4.2881,-4.3299,-4.3258,0.0,-4.3057,-4.2831,0.0,0.0,0.0,0.0,-4.2487,-4.2509,-4.2487,-4.2496,-4.2569,-4.247,-4.2308,-4.2359,-4.2104,-4.1434,0.0,-3.9757,-3.9591,-3.8701,0.0,0.0,0.0,0.0,-4.0023,-4.1393,-4.1512,-4.1391,-4.114,-4.0839,-4.0527,-4.0163,-3.9935,-3.9736,-3.9499,-3.9287,-3.9223,-3.9225,-3.9005,-3.8974,-3.9181,0.0,0.0,0.0,0.0,0.0,0.0,0.0,0.0,0.0,0.0,0.0,0.0,0.0,0.0,0.0,0.0,0.0,0.0,0.0,0.0,0.0,0.0,0.0,0.0,0.0,0.0,0.0,0.0,0.0,-3.8184,-3.7871,0.0,0.0,0.0,0.0,-4.0571,-4.2156,-4.3388,-4.406,-4.5008,-4.5851,-4.6665,-4.7529,-4.8039,-4.8159,-4.9049,-4.9588,-4.987,-5.0657,-5.1083,-5.1293,-5.2117,-5.2038,-5.1336,-5.2156,-5.1531,-4.9774,-4.724,-4.5618,-4.4687,-4.3826,-4.3447,-4.335,-4.3381,-4.338,-4.3422,-4.3358,-4.3373,-4.3361,-4.3299,-4.3217,-4.3073,-4.2953,-4.2718,0.0,0.0,-4.2616,-4.2509,-4.2595,-4.2637,-4.2759,-4.3088,-4.257,-4.2152,-4.2664,-4.2158,-4.1407,0.0,-4.1054,-4.12,-4.0383,0.0,-4.1423,-4.146,-4.146,-4.1497,-4.1571,-4.1391,-4.1103,-4.0839,-4.0599,-4.0199,-3.9696,-3.9615,-3.9499,-3.9252,-3.9041,-3.9295,-3.9981,-3.9801,-4.0008,-4.0767,-4.0767,0.0,0.0,0.0,0.0,0.0,0.0,0.0,0.0,0.0,0.0,0.0,0.0,0.0,0.0,0.0,0.0,0.0,0.0,0.0,0.0,0.0,0.0,0.0,0.0,0.0,0.0,0.0,0.0,-4.1085,-4.1894,0.0,-4.3006,-4.4008,-4.4592,-4.4491,-4.5086,-4.603,-4.7377,-4.7317,-4.8105,-5.0008,-5.1547,-5.1824,-5.0751,-5.286,-5.3127,-5.16,-5.1993,-5.2182,-5.2234,-5.196,-5.1687,-5.1414,-5.1726,-5.1492,-5.0828,-4.9363,-4.792,-4.6553,-4.5625,-4.5219,-4.5172,-4.511,-4.5444,-4.5891,-4.5866,-4.6177,-4.6524,-4.593,-4.5307,-4.4815,-4.4785,-4.4685,-4.4603,-4.4589,-4.448,-4.4322,-4.4113,-4.4037,-4.3983,-4.4025,-4.382,-4.3652,-4.3751,-4.3573,-4.3096,-4.218,-4.1787,-4.1497,-4.12,-4.1423,-4.1757,-4.2277,-4.2352,-4.2477,-4.2839,-4.2976,-4.2746,-4.2087,-4.2123,-4.1975,-4.139,-4.1186,-4.0976,-4.0762,-4.0542,-4.0457,-4.0597,-4.0504,-4.0595,-4.0871,-4.0871,-4.0871,0.0,0.0,0.0,0.0,0.0,0.0,0.0,0.0,0.0,0.0,0.0,0.0,0.0,0.0,0.0,0.0,0.0,0.0,0.0,0.0,0.0,0.0,0.0,0.0,0.0,0.0,-4.2851,-4.4384,-4.4939,-4.5475,-4.6222,-4.6839,-4.7281,-4.7507,-4.7775,-4.8562,-5.0019,-4.9971,-5.0817,-5.2782,-5.4387,-5.4512,-5.3119,-5.4967,-5.4921,-5.3,-5.3118,-5.3132,-5.3132,-5.2858,-5.2546,-5.2273,-5.2585,-5.2546,-5.2238,-5.1633,-5.0777,-4.9566,-4.7731,-4.7002,-4.6955,-4.6878,-4.7162,-4.7637,-4.7611,-4.797,-4.8275,-4.7386,-4.6689,-4.6187,-4.5877,-4.5771,-4.5688,-4.556,-4.5457,-4.5243,-4.4934,-4.4777,-4.4648,-4.4468,-4.4411,-4.4383,-4.4237,-4.4207,-4.4028,-4.3348,-4.276,-4.2314,-4.2054,-4.224,-4.2544,-4.2971,-4.3082,-4.3171,-4.3422,-4.3631,-4.3495,-4.277,-4.2844,-4.2691,-4.2121,-4.1788,-4.1569,-4.138,-4.1198,-4.1059,-4.0918,-4.0871,-4.0871,-4.0871,-4.0871,-4.1009,-4.125,0.0,0.0,0.0,0.0,0.0,0.0,0.0,0.0,0.0,0.0,0.0,0.0,0.0,0.0,0.0,0.0,0.0,0.0,0.0,0.0,0.0,0.0,0.0,-4.3399,-4.4042,-4.5472,-4.7933,-4.6762,-4.6378,-4.8066,-4.822,-4.8565,-4.9447,-5.0276,-5.1104,-5.2026,-5.297,-5.3917,-5.4807,-5.5786,-5.5947,-5.5186,-5.5233,-5.4833,-5.4068,-5.4068,-5.4029,-5.4068,-5.4888,-5.481,-5.4068,-5.4888,-5.4775,-5.3994,-5.401,-5.3984,-5.3664,-5.0168,-4.8788,-4.8699,-4.8603,-4.8577,-4.8567,-4.8498,-4.8469,-4.8314,-4.7463,-4.7154,-4.696,-4.6109,-4.575,-4.5582,-4.5438,-4.5283,-4.5115,-4.4777,-4.47,-4.4636,-4.4354,-4.4266,-4.4237,-4.4055,-4.3986,-4.3986,-4.3986,-4.3986,-4.3763,-4.2983,-4.3466,-4.3892,-4.3631,-4.3597,0.0,-4.3251,-4.3214,-4.3032,-4.2693,-4.2498,-4.2175,-4.1648,-4.1346,-4.1117,-4.0918,-4.0871,-4.0871,-4.0871,-4.0871,-4.0871,-4.0871,-4.0905,-4.1285,-4.1974,0.0,0.0,0.0,0.0,0.0,0.0,0.0,0.0,0.0,0.0,0.0,0.0,0.0,0.0,0.0,0.0,0.0,0.0,0.0,0.0,0.0,0.0,-4.6677,-4.5081,-4.7145,-4.9298,-5.064,-5.0867,-5.1634,-5.336,-5.2938,-5.2916,-5.3721,-5.3589,-5.413,-5.5615,-5.5529,-5.6096,-5.7533,-5.8593,-5.8384,-5.6943,-5.7648,-5.7294,-5.5864,-5.524,-5.4927,-5.4927,-5.4537,-5.4232,-5.401,-5.4245,-5.4239,-5.3994,-5.401,-5.3984,-5.3779,-5.2147,-5.1505,-5.1337,-5.0623,-5.0308,-5.024,-5.021,-4.9823,-4.932,-4.9049,-4.8546,-4.7874,-4.6893,-4.6485,-4.6205,-4.529,-4.4919,-4.4751,-4.4458,-4.4411,-4.4345,-4.4109,-4.4085,-4.4085,-4.3986,-4.3986,-4.3986,-4.3986,-4.3986,-4.3849,-4.3435,-4.3712,-4.3828,-4.3356,-4.3495,0.0,-4.292,-4.2884,-4.2732,-4.221,-4.2133,-4.1966,-4.1648,-4.1346,-4.1163,-4.1117,-4.0965,-4.0871,-4.0871,-4.0871,-4.0871,-4.0871,-4.1423,-4.1802,0.0,0.0,0.0,0.0,0.0,0.0,0.0,0.0,0.0,0.0,0.0,0.0,0.0,0.0,0.0,0.0,0.0,0.0,0.0,0.0,0.0,0.0,-4.793,-4.9525,-5.0221,-5.1104,-5.2082,-5.3272,-5.3234,-5.375,-5.55,-5.4885,-5.4732,-5.5516,-5.5307,-5.559,-5.6557,-5.6407,-5.6858,-5.818,-5.8888,-5.8733,-5.7744,-5.8314,-5.8101,-5.7129,-5.6618,-5.6579,-5.6852,-5.6025,-5.5638,0.0,-5.5269,-5.5073,-5.5106,-5.5109,-5.5031,0.0,0.0,0.0,0.0,0.0,-5.1525,-5.1409,-5.1022,-5.0596,-5.0171,-4.9823,-4.9258,-4.854,-4.7622,-4.7165,-4.6768,-4.5656,-4.5231,-4.4998,-4.4429,-4.4237,-4.4147,-4.4055,-4.3986,-4.3986,-4.3986,-4.3986,-4.3986,-4.3986,-4.3892,0.0,-4.3495,-4.3664,-4.3631,-4.2957,-4.2995,-4.2884,-4.2297,-4.2297,-4.2175,-4.1788,-4.1709,-4.1578,-4.1436,-4.1209,0.0,0.0,0.0,-4.0871,-4.0871,-4.0871,0.0,0.0,0.0,-4.2319,-4.294,0.0,0.0,0.0,-4.394,-4.368,0.0,0.0,0.0,0.0,0.0,0.0,0.0,0.0,0.0,0.0,0.0,0.0,0.0,0.0,0.0,0.0,-5.0452,-5.2933,-5.6857,-5.5472,-5.4626,-5.6088,-5.4703,-5.428,-5.5972,-5.5203,-5.5011,-5.5934,-5.6058,-5.6106,-5.6239,0.0,0.0,0.0,0.0,-5.805,-5.8046,-5.7949,-5.7918,-5.7884,-5.7806,-5.8118,-5.8782,-5.8066,-5.7746,-5.7711,-5.6953,-5.6595,-5.6595,-5.66,-5.6549,-5.6278,-5.4513,-5.374,-5.3506,-5.2647,-5.2337,-5.2221,-5.137,0.0,0.0,-5.0078,-4.962,-4.9181,-4.8278,-4.7777,-4.7277,-4.6263,-4.5875,-4.5585,-4.4744,-4.4445,-4.4246,-4.4172,-4.4135,-4.4135,-4.4023,-4.3986,-4.3986,-4.3955,-4.3763,-4.3495,-4.3178,-4.3356,-4.3284,-4.2498,-4.2418,-4.2216,-4.1736,-4.1648,-4.1604,-4.1604,0.0,0.0,-4.1163,-4.1012,-4.0871,-4.0871,-4.0871,-4.0905,-4.1009,-4.1009,-4.1354,-4.2112,-4.2285,-4.3044,-4.4389,-4.4596,-4.5389,-4.67,-4.5216,-4.4596,0.0,0.0,0.0,0.0,0.0,0.0,0.0,0.0,0.0,0.0,0.0,0.0,0.0,0.0,0.0,-5.2713,-5.5314,-5.761,-5.981,-5.9694,-5.948,-5.9781,-5.7703,-5.6934,-5.8588,-5.678,-5.6186,-5.7841,-5.7446,-5.7459,-5.8284,-5.8468,-5.8666,-5.8801,-5.885,-5.8886,-5.8944,-5.8246,-5.7913,-5.789,0.0,0.0,-5.707,-5.6913,-5.6835,-5.6836,-5.6661,-5.6562,-5.6523,-5.6537,-5.6412,-5.6128,-5.5087,-5.4235,-5.3546,-5.332,-5.3265,-5.3111,-5.226,-5.195,-5.1796,-5.0951,-5.045,-4.9987,-4.899,-4.839,0.0,-4.684,-4.647,-4.6275,-4.6132,-4.6062,-4.5844,-4.5212,-4.5026,-4.4841,-4.4135,-4.3986,-4.3923,-4.373,-4.3631,-4.3424,-4.2884,-4.3069,-4.3069,-4.245,-4.2494,-4.2534,-4.2205,-4.1823,-4.1604,-4.1604,-4.1198,-4.0965,-4.0965,-4.0918,-4.0871,-4.0871,-4.0871,-4.1147,-4.1733,-4.1767,-4.2147,-4.294,-4.4147,-4.4906,-4.5216,-4.6458,-4.7217,-4.7493,-4.6562,-4.6458,0.0,0.0,0.0,0.0,0.0,0.0,0.0,0.0,0.0,0.0,0.0,-4.5982,0.0,0.0,-5.2666,-5.5955,-5.7923,-5.9892,-6.2497,-6.2073,-6.1224,-6.0333,-5.8715,-5.7867,-5.8291,-5.8021,-5.7636,-5.7289,-5.7815,-5.7988,-5.7675,-5.7758,-5.7859,-5.7832,-5.8274,-5.8315,-5.7918,-5.7918,-5.7886,-5.789,-5.7461,-5.7461,-5.789,-5.7461,-5.7265,-5.7226,-5.6809,-5.6789,-5.7098,-5.6979,-5.6902,-5.6708,-5.578,-5.5161,-5.4774,-5.431,-5.4155,-5.4039,-5.3149,-5.2464,-5.1913,-5.1597,-5.0776,-4.9822,-4.948,-4.8994,-4.837,-4.7457,-4.7136,-4.6995,-4.6587,-4.6513,-4.6401,-4.5992,-4.5881,-4.5737,-4.5127,-4.4983,-4.4915,-4.46,-4.4419,-4.4123,-4.3418,-4.3228,-4.288,-4.2072,-4.2044,-4.2044,-4.1657,-4.1426,-4.1244,-4.1244,-4.1059,-4.0871,-4.0871,-4.1216,-4.1595,-4.2009,-4.2009,-4.2181,-4.2561,-4.2595,-4.294,-4.3749,-4.4837,-4.563,-4.601,-4.7148,-4.7907,-4.8252,-4.7872,-4.77,0.0,0.0,0.0,0.0,0.0,0.0,0.0,0.0,-4.4191,-4.6656,-4.7756,-4.8988,-5.1488,-5.3918,-5.6309,-5.876,-6.0053,-6.1752,-6.4685,-6.3758,-6.2138,-6.046,-5.9474,-5.8644,-5.7988,-5.8818,-5.8607,-5.6675,-5.7832,-5.8063,-5.6775,-5.6938,-5.6969,-5.6618,-5.7615,-5.7734,-5.6875,-5.7539,-5.789,-5.789,-5.7734,-5.8008,-5.8672,-5.7969,-5.7654,-5.7629,-5.6848,-5.6863,-5.7389,-5.7193,-5.7116,-5.7039,-5.6304,-5.5995,-5.59,-5.5277,-5.5045,-5.4912,-5.4022,-5.3088,-5.2241,-5.2068,-5.0979,-4.973,-4.9787,-4.937,-4.8779,-4.811,-4.7924,-4.7776,-4.7144,-4.6958,-4.6921,-4.6773,-4.6702,-4.6527,-4.61,-4.5956,-4.581,-4.5472,-4.5236,-4.4854,-4.4083,-4.3636,-4.2926,-4.1833,-4.1648,-4.1471,-4.1059,-4.0965,-4.0965,-4.0965,-4.1056,-4.1147,-4.1319,-4.1871,-4.2492,-4.3197,-4.3232,-4.3301,-4.3439,-4.3439,-4.3802,-4.4699,-4.5492,-4.6251,-4.7044,-4.7803,-4.8459,-4.9045,-4.9045,-4.8734,-4.1367,-4.1162,-4.1416,-4.2781,-4.3241,-4.4122,0.0,0.0,-4.842,-5.0889,-5.1506,-5.2316,-5.4863,-5.6889,-5.8973,-6.1383,-6.3295,-6.4861,-6.5981,-6.5324,-6.411,-6.2491,-6.133,-6.065,-6.0573,-5.8682,-5.777,-5.8441,-5.7982,-5.7697,-5.7729,-5.8475,-5.8202,-5.664,-5.8203,-5.8633,-5.7773,-5.7851,-5.789,-5.789,-5.7109,-5.6797,-5.6875,-5.6797,-5.6737,-5.6722,-5.6442,-5.6343,-5.636,-5.6244,-5.617,-5.6134,-5.6018,-5.5961,-5.5924,-5.5861,-5.5861,-5.5748,-5.4859,-5.4437,-5.3995,-5.2231,-5.1343,-5.074,-4.9755,-4.9193,-4.889,-4.8779,-4.8779,-4.8742,-4.8667,-4.863,-4.8444,-4.7738,-4.7346,-4.6911,-4.6139,-4.5773,-4.5472,-4.5233,-4.5111,-4.491,-4.4361,-4.4227,-4.3607,-4.2121,-4.1736,-4.156,-4.1515,-4.13,-4.1163,-4.1163,-4.16,-4.2147,-4.2871,-4.3059,-4.3128,-4.3197,-4.3232,-4.3508,-4.4113,-4.4147,-4.4837,-4.632,-4.7079,-4.7838,-4.8596,-4.9355,-4.9804,-4.9873,-4.9873,-4.9838,-4.1933,-4.217,0.0,0.0,-4.5409,-4.7143,-4.9521,-5.0439,-5.1541,-5.3932,-5.4877,-5.5861,-5.7891,-6.0113,-6.1813,0.0,-6.4036,-6.5161,-6.4986,-6.4668,-6.3984,-6.2723,-6.1756,-6.0558,-5.9012,-5.8916,-5.8699,-5.8125,-5.878,-5.9241,-5.9336,-5.8789,-5.8555,-5.8789,-5.9062,-5.9023,-5.8672,-5.9134,-5.9131,-5.8668,-5.8239,-5.8079,-5.8111,-5.7573,-5.7049,-5.6498,-5.6861,-5.6946,-5.6831,-5.6734,-5.6695,-5.6638,-5.6117,-5.5924,-5.5905,-5.5943,-5.5943,-5.5885,-5.5499,-5.478,-5.391,-5.3283,-5.1923,-5.0472,-5.0172,-4.9533,-4.889,-4.889,-4.889,-4.889,-4.889,-4.875,-4.8531,-4.8198,-4.7905,-4.749,-4.6964,-4.6771,-4.6566,-4.6262,-4.6052,-4.573,-4.5078,-4.473,-4.4155,-4.2987,-4.2754,-4.2661,-4.2554,-4.2423,-4.2327,-4.2327,-4.259,-4.2975,-4.3819,-4.3802,-4.4009,-4.4458,-4.4492,-4.4837,-4.5596,-4.563,-4.6148,-4.7217,-4.7976,-4.8493,-4.8838,-4.9631,-4.9918,-4.986,-4.986,-5.0042,-4.2607,0.0,0.0,-4.5969,-4.8231,-5.0555,-5.2291,-5.3363,-5.4575,-5.6761,-5.776,-5.8621,-5.9803,-6.1737,-6.3003,-6.2435,-6.3651,-6.444,-6.3781,-6.3687,-6.3184,-6.1774,-6.1041,-5.9687,-5.725,-5.847,-5.9145,-5.8389,-5.9173,-5.9784,-6.0039,-5.9139,-5.9059,-6.0035,-5.996,-5.9765,-5.9531,-6.0103,-6.0093,-5.9514,-5.9246,-5.912,-5.9139,-5.8236,-5.7315,-5.638,-5.6854,-5.7039,-5.6906,-5.6869,-5.6985,-5.7119,-5.6502,-5.6367,-5.6501,-5.6169,-5.5959,-5.5865,-5.5766,-5.5001,-5.4047,-5.3872,-5.2515,-5.0887,-5.0871,-5.0101,-4.9262,-4.9262,-4.9076,-4.8855,-4.8785,-4.8569,-4.842,-4.8565,-4.8364,-4.8187,-4.815,-4.7911,-4.7626,-4.7558,-4.7193,-4.6684,-4.5975,-4.553,-4.5107,-4.4451,-4.4158,-4.3796,-4.3266,-4.3232,-4.3301,-4.3508,-4.3492,-4.3768,-4.4527,-4.4596,-4.4941,-4.5699,-4.5768,-4.6113,-4.6872,-4.6906,-4.7251,-4.801,-4.8562,-4.8941,-4.9148,-4.9642,-4.9963,-5.0017,-4.9958,-5.0249,0.0,0.0,-4.6719,-4.9218,-5.1769,-5.4092,-5.5762,-5.6808,-5.7961,-5.9707,-6.0112,-6.0092,-6.0094,-6.0963,-6.163,-6.1461,-6.2349,-6.3042,-6.2972,-6.2934,-6.1965,-5.9398,-5.9012,-5.8258,0.0,-5.7018,-5.8255,-6.0094,-5.8716,-5.8219,-5.9179,-5.9947,-6.0002,-5.9261,-6.0803,-6.1201,-6.0381,-6.0381,-6.0373,-6.0354,-5.9514,-5.9081,-5.9056,-5.813,-5.7146,-5.6209,-5.6096,-5.6001,-5.5943,-5.5943,-5.6405,-5.7097,-5.7058,-5.7516,-5.8104,-5.6907,-5.6199,-5.5766,-5.5446,-5.5262,-5.5019,-5.3579,-5.309,-5.2803,-5.1709,-5.0785,-5.0153,-5.0079,-4.9522,-4.882,-4.8495,-4.8421,-4.8491,-4.8985,-4.8871,-4.8864,-4.9586,-4.8918,-4.8306,-4.8763,-4.8218,-4.7491,-4.7072,-4.6969,-4.6812,-4.6546,-4.5837,-4.4837,-4.3354,-4.3232,-4.3508,-4.4182,-4.4251,-4.4561,-4.532,-4.5389,-4.5734,-4.6527,-4.6562,-4.6906,-4.7665,-4.77,-4.8045,-4.8769,-4.8803,-4.9183,-4.9976,-4.9767,-5.0086,-5.0772,-5.0625,-5.0946,0.0,0.0,-4.9609,-5.2734,-5.5037,-5.6944,-5.8624,-5.9686,-6.0312,-6.0271,-5.9368,-5.8343,-5.777,-5.7931,-5.8353,-5.8992,-6.0309,-6.1285,-6.1225,-6.1247,-6.0475,-5.837,-5.7663,0.0,0.0,0.0,0.0,-5.9288,-5.8967,-5.9567,-6.1598,-6.0887,-6.0796,-6.1681,-6.1139,-6.0987,-6.126,-6.126,-6.1256,-6.1252,-6.0983,-6.0495,-5.981,-5.9484,-5.8454,-5.6875,-5.7446,-5.6966,-5.5882,-5.7016,-5.7324,-5.7071,-5.7649,-5.7881,-5.7838,-5.7454,-5.6725,-5.5843,-5.5189,-5.4798,-5.4547,-5.4063,-5.3374,-5.2714,-5.2308,-5.1639,-5.1008,-5.0971,-5.0602,-5.0156,-5.0004,-4.9647,-4.9386,-4.951,-4.9307,-4.9184,-4.9435,-4.9055,-4.8742,-4.8891,-4.8412,-4.7928,-4.7752,-4.7592,-4.743,-4.7355,-4.67,-4.5837,-4.4803,-4.4665,-4.4768,-4.501,-4.5044,-4.5147,-4.5389,-4.5906,-4.632,-4.6596,-4.7079,-4.7665,-4.8424,-4.8459,-4.8747,-4.9354,-4.9389,-4.9468,-4.9683,-4.959,-4.9881,-5.0537,-5.0509,-5.1031,-4.816,-5.0464,-5.2767,-5.5894,-5.8004,-5.953,-6.0624,-6.0811,-6.0522,-5.9631,-5.8045,-5.6482,-5.5306,-5.5095,-5.5485,-5.6758,-5.7889,-5.8788,-5.9413,-5.9491,-5.8944,-5.7499,-5.7115,0.0,0.0,0.0,0.0,-5.9355,-5.9292,-6.0163,-6.2404,-6.1467,-6.1381,-6.2501,-6.1447,-6.1134,-6.1681,-6.172,-6.172,-6.172,-6.166,-6.1112,-6.0195,-6.0122,-5.9202,-5.7696,-5.8201,-5.7755,-5.6703,-5.7857,-5.8127,-5.7934,-5.8511,-5.8692,-5.8585,-5.813,-5.7438,-5.6587,-5.5454,-5.4726,-5.4262,-5.4161,-5.3609,-5.3051,-5.3051,-5.2457,-5.1788,-5.1676,-5.1226,-5.0735,-5.0492,-5.0112,-4.9866,-5.0016,-4.9806,-4.967,-5.0053,-4.9664,-4.9254,-4.9501,-4.896,-4.8499,-4.839,-4.8225,-4.801,-4.7769,-4.7527,-4.7113,-4.6355,-4.6251,-4.6251,-4.6251,-4.6251,-4.6251,-4.6251,-4.67,-4.7113,-4.7389,-4.7838,-4.8402,-4.9068,-4.9103,-4.9286,-4.9649,-4.9649,-4.9727,-4.9881,-4.982,-5.0305,-5.1201,-5.1104,-5.1685,-5.0601,-5.344,-5.6045,-5.866,-6.0518,-6.1665,-6.159,-6.0223,-5.8775,-5.7863,-5.6298,-5.4502,0.0,0.0,-5.3104,-5.4872,-5.5224,-5.5927,-5.7725,-5.796,-5.7647,0.0,0.0,0.0,0.0,0.0,0.0,-6.034,0.0,-5.9841,-6.1603,-6.172,-6.172,-6.172,-6.172,-6.172,-6.172,-6.172,-6.1715,-6.1676,-6.1573,-6.1052,-6.0215,-5.9995,-5.9377,-5.8567,-5.8445,-5.8396,-5.8319,-5.8396,-5.8858,-5.9511,-5.9527,-5.9843,-6.0122,-5.8988,-5.8291,-5.7752,-5.6176,-5.505,-5.4268,-5.3907,-5.3794,-5.3794,-5.3794,-5.3274,-5.2567,-5.2257,-5.1547,-5.0762,-5.0126,-4.9902,-5.0027,-5.0485,-5.0368,-5.048,-5.1479,-5.0645,-4.9995,-5.0643,-4.9971,-4.9153,-4.8872,-4.8872,-4.8631,-4.7941,-4.8424,-4.8596,-4.7803,-4.77,-4.77,-4.77,-4.77,-4.77,-4.77,-4.7734,-4.8079,-4.8769,-4.8872,-4.9068,-4.9674,-4.9708,-4.9683,-4.9539,-4.9539,-4.9915,-5.0605,-5.0515,-5.1201,-5.2564,-5.2399,-5.2739,-5.2809,-5.5364,-5.7507,-6.0122,-6.1106,-6.1081,-5.9881,-5.876,-5.74,-5.543,-5.3093,-5.1102,0.0,0.0,0.0,-5.2986,-5.4467,0.0,-5.8449,-5.8801,0.0,0.0,0.0,-5.8133,-5.8722,-5.8207,0.0,0.0,-5.9963,-5.9846,-6.1603,-6.172,-6.172,-6.172,-6.172,-6.172,-6.172,-6.172,-6.166,-6.1564,-6.15,-6.125,-6.0793,-6.0729,-6.0152,-5.9293,-5.9881,-5.9435,-5.8396,-5.9665,-5.9896,-5.9527,-5.9946,-6.0046,-5.9868,-5.9238,-5.8428,-5.7558,-5.7148,-5.6068,-5.4689,-5.4018,-5.3794,-5.3794,-5.3794,-5.3491,-5.3185,-5.3343,-5.2637,-5.1846,-5.2009,-5.1643,-5.1236,-5.1401,-5.1337,-5.1307,-5.1418,-5.0964,-5.0538,-5.053,-5.009,-4.9758,-4.97,-4.97,-4.9631,-4.9459,-4.9597,-4.9217,-4.7872,-4.77,-4.77,-4.77,-4.77,-4.77,-4.77,-4.8217,-4.8631,-4.8803,-4.939,-4.9711,-4.9708,-4.9708,-4.9864,-5.0141,-5.0175,-5.0453,-5.1074,-5.1011,-5.1485,-5.2399,-5.23,-5.2739,-5.4963,-5.7194,-5.8997,-6.0929,-6.0798,-5.9911,-5.8669,-5.6808,-5.4741,-5.259,-5.0368,0.0,0.0,0.0,0.0,0.0,0.0,0.0,-5.7582,-5.8324,-5.8675,0.0,-5.9378,0.0,-6.0198,-6.0159,-6.0861,0.0,-6.0861,-6.0588,-6.2735,-6.2462,-6.2267,-6.2267,-6.2267,-6.211,-6.172,-6.1654,-6.158,-6.149,-6.1343,-6.1205,-6.1002,-6.0943,-6.0608,-6.0089,0.0,-6.0281,-5.9473,-6.0396,-6.0441,-5.9856,-6.0158,-5.9992,-5.9502,-5.9289,-5.8687,-5.7992,-5.7621,-5.6878,-5.5912,-5.4723,-5.4091,-5.3794,-5.3794,-5.3561,-5.3318,-5.3359,-5.2777,-5.2185,-5.2304,-5.2018,-5.1708,-5.1708,-5.1521,-5.1315,-5.1298,-5.0838,-5.0397,-5.0263,-5.0645,-5.0769,-5.0114,-5.0562,-5.0769,-5.0114,-5.0287,-5.0045,-4.8872,-4.8734,-4.8734,-4.8734,-4.8734,-4.8734,-4.8734,-4.9022,-4.9206,-4.9206,-4.9561,-4.982,-5.0043,-4.9983,-5.0202,-5.0735,-5.0735,-5.1044,-5.1691,-5.1691,-5.2097,-5.2841,-5.2841,-5.3078,-5.6912,-5.8798,-6.0162,-6.1019,-5.9916,-5.8392,-5.7342,-5.442,-5.1481,-4.9809,0.0,-4.6688,-4.6185,0.0,-4.7106,-4.9679,0.0,-5.2663,-5.6255,-5.7348,-5.8207,-5.93,-6.09,-6.1876,-6.1876,-6.2657,-6.3516,-6.4414,-6.2267,-6.1915,-6.4179,-6.3594,-6.3125,-6.3008,-6.2891,-6.2457,-6.1671,-6.1573,-6.1481,-6.145,-6.1158,-6.0983,-6.0945,-6.0834,-6.0781,-6.0781,0.0,0.0,-6.0781,-6.0757,-6.0572,-6.0293,-6.0208,-5.9734,-5.9215,-5.914,-5.8947,-5.8624,-5.7918,-5.7583,-5.7249,-5.5689,-5.4647,-5.4014,-5.3903,-5.3629,-5.3219,-5.2886,-5.2454,-5.2078,-5.1822,-5.1722,-5.1708,-5.1658,-5.1263,-5.091,-5.1141,-5.0614,-5.0149,-5.0149,-5.1287,-5.1804,-5.0528,-5.1356,-5.177,-5.0493,-5.0838,-5.0976,-5.0252,-5.008,-5.0011,-5.0011,-5.0011,-5.0011,-5.0011,-4.9801,-4.9708,-4.9708,-4.9692,-4.9888,-5.0351,-5.0487,-5.0832,-5.1352,-5.1352,-5.1725,-5.2469,-5.2469,-5.2807,-5.3518,-5.3518,-5.3518,-5.8242,-5.9364,-5.9639,-5.9819,-5.8567,-5.6753,-5.4646,-5.1499,0.0,0.0,0.0,-4.5308,-4.5833,-4.6619,0.0,-4.9712,0.0,0.0,0.0,0.0,-5.8675,0.0,0.0,0.0,0.0,0.0,0.0,0.0,0.0,-6.3828,-6.4297,-6.414,-6.375,-6.3008,-6.2306,-6.1816,-6.1556,-6.15,-6.1355,-6.1092,-6.1039,-6.0943,-6.085,-6.0804,-6.0781,-6.0781,-6.0781,0.0,-6.0757,-6.052,-6.0349,-6.0237,-5.9601,-5.9287,-5.9178,-5.8905,-5.8739,-5.8698,-5.8549,-5.8066,-5.736,-5.6395,-5.5747,-5.5281,-5.458,-5.3932,-5.3324,-5.2899,-5.2304,-5.1822,-5.2078,-5.192,-5.1658,-5.1454,-5.1298,-5.1105,-5.062,-5.0749,-5.0907,-5.0907,-5.1632,-5.2149,-5.1873,-5.2046,-5.2114,-5.1873,-5.1942,-5.177,-5.1011,-5.039,-5.0011,-5.0011,-5.0011,-5.0011,-5.0011,-4.9801,-4.9708,-4.9708,-5.0146,-5.0434,-5.0385,-5.0963,-5.1579,-5.2097,-5.2131,-5.2503,-5.3281,-5.3281,-5.3382,-5.3518,-5.3518,-5.3518,-5.8319,-5.9511,-6.0073,-5.9742,-5.7679,-5.5229,-5.3227,0.0,0.0,0.0,0.0,-4.5311,-4.5776,0.0,0.0,0.0,0.0,0.0,0.0,0.0,0.0,0.0,0.0,0.0,0.0,0.0,0.0,0.0,0.0,-6.5585,-6.5585,-6.5194,-6.457,-6.3711,-6.2746,-6.2002,-6.149,-6.1331,-6.1174,-6.1002,-6.0923,-6.0856,-6.0781,-6.0781,-6.0781,-6.0781,-6.0597,0.0,-6.052,-6.0179,-5.9899,-5.9668,-5.9361,-5.9065,-5.8908,-5.8781,-5.8698,-5.8698,-5.8698,-5.8475,-5.8066,-5.7695,-5.6829,-5.5886,-5.5312,-5.4602,-5.3942,-5.3324,-5.2916,-5.2659,-5.235,-5.2513,-5.2573,-5.2305,-5.2122,-5.1899,-5.1442,-5.1855,-5.2183,-5.177,-5.2632,-5.3149,-5.2356,-5.2873,-5.3149,-5.2321,-5.2563,-5.2563,-5.177,-5.1356,-5.1011,-5.0631,-5.0883,-5.103,-5.103,-5.0788,-5.0632,-5.0632,-5.0822,-5.107,-5.138,-5.1719,-5.2196,-5.2909,-5.2909,-5.3112,-5.3518,-5.3518,-5.3518,-5.3518,-5.3518,-5.3518,-5.7973,-5.9242,-6.0096,-5.9399,-5.6598,-5.3584,-5.1973,-4.8941,0.0,0.0,-4.547,-4.5389,-4.5688,0.0,0.0,0.0,0.0,0.0,0.0,0.0,0.0,0.0,0.0,0.0,0.0,0.0,0.0,0.0,0.0,0.0,-6.6795,-6.6004,-6.5217,-6.4554,-6.3535,-6.258,-6.169,-6.1414,-6.1176,-6.0963,-6.0834,-6.0781,-6.0781,-6.0781,-6.0757,-6.0685,-6.0403,0.0,0.0,-5.9804,-5.9502,-5.9215,-5.9103,-5.8908,-5.8698,-5.8698,-5.8698,-5.8698,-5.8698,-5.8656,-5.8656,-5.8698,-5.7719,-5.6399,-5.5999,-5.5348,-5.4503,-5.3684,-5.3528,-5.3458,-5.2713,-5.3031,-5.3435,-5.3098,-5.2811,-5.2518,-5.2278,-5.2839,-5.3218,-5.2597,-5.3563,-5.4115,-5.2908,-5.3701,-5.4115,-5.2908,-5.3253,-5.3356,-5.2563,-5.2597,-5.2364,-5.1606,-5.1795,-5.1974,-5.1974,-5.1663,-5.1473,-5.1473,-5.1417,-5.1725,-5.2266,-5.2469,-5.2841,-5.3484,-5.3518,-5.3518,-5.3518,-5.3518,-5.3518,-5.3518,-5.3518,-5.3518,-5.7665,-5.8396,-5.8319,-5.7478,-5.4685,-5.1722,-5.0048,0.0,0.0,-4.5449,-4.4974,-4.4666,-4.5449,0.0,0.0,0.0,0.0,-4.8584,0.0,0.0,0.0,0.0,0.0,0.0,0.0,0.0,0.0,0.0,0.0,0.0,-6.6795,-6.5878,-6.528,-6.5202,-6.4221,-6.3224,-6.2257,-6.222,-6.1716,-6.0827,-6.0804,-6.0781,-6.0781,-6.0781,-6.0622,-6.0349,-6.0321,0.0,0.0,-5.9432,-5.9252,-5.9178,-5.8865,-5.8739,-5.8698,-5.8698,-5.8698,-5.8698,-5.8698,-5.8614,-5.8572,-5.8656,-5.7949,-5.6903,-5.6489,-5.5599,-5.4559,-5.3814,-5.3583,-5.3509,-5.3106,-5.3085,-5.3098,-5.2811,-5.2458,-5.2218,-5.2218,-5.2839,-5.3391,-5.3287,-5.3942,-5.446,-5.4322,-5.4425,-5.446,-5.4322,-5.4356,-5.4149,-5.3391,-5.3873,-5.3949,-5.3032,-5.2351,-5.1974,-5.1974,-5.1663,-5.1473,-5.1473,-5.1956,-5.2232,-5.23,-5.301,-5.3416,-5.3518,-5.3518,-5.3518,-5.3518,-5.3518,-5.3518,-5.3518,-5.3518,-5.3518,-5.5434,-5.7126,-5.7973,-5.6549,-5.4049,-5.1452,-4.974,0.0,-4.5109,-4.5437,-4.5245,-4.5148,-4.5473,0.0,0.0,0.0,0.0,0.0,0.0,0.0,0.0,0.0,0.0,0.0,0.0,0.0,0.0,0.0,0.0,0.0,-6.6513,-6.6127,-6.5661,-6.5194,-6.4194,-6.3476,-6.3091,-6.2506,-6.1989,-6.1589,-6.1589,-6.132,-6.0781,-6.0781,-6.0597,-6.0293,-6.0091,0.0,0.0,-5.9064,-5.8905,-5.8905,-5.8739,-5.8698,-5.8698,-5.8698,-5.8656,-5.8572,-5.8572,-5.8275,-5.7969,-5.84,-5.7462,-5.6313,-5.6704,-5.6201,-5.5249,-5.4261,-5.4231,-5.4303,-5.3672,-5.3704,-5.3905,-5.3783,-5.366,-5.3598,-5.3598,-5.3839,-5.408,-5.408,-5.4322,-5.4494,-5.4494,-5.4494,-5.4494,-5.4494,-5.4494,-5.4391,-5.4115,-5.4195,-5.42,-5.3793,-5.3455,-5.3156,-5.3028,-5.2833,-5.2736,-5.2736,-5.2941,-5.301,-5.301,-5.3348,-5.3518,-5.3518,-5.3518,-5.3518,-5.3518,-5.3518,-5.3518,-5.3518,-5.3518,-5.3518,-5.3203,-5.5241,-5.6434,-5.4934,-5.2856,-5.0682,0.0,0.0,-4.5475,-4.5419,-4.5438,-4.5457,-4.5514,-4.555,-4.5568,-4.5568,0.0,-4.6175,0.0,0.0,0.0,0.0,0.0,0.0,0.0,0.0,0.0,0.0,0.0,0.0,0.0,-6.6183,-6.595,-6.5419,-6.4426,-6.3784,-6.3531,-6.2567,-6.1973,-6.1704,-6.1704,-6.1396,-6.0781,-6.071,-6.0494,-6.015,0.0,0.0,0.0,-5.8784,-5.8698,-5.8698,-5.8656,-5.8656,-5.8656,-5.8656,-5.8572,-5.8492,-5.8492,-5.806,-5.7558,-5.8006,-5.6978,-5.583,-5.6456,-5.6185,-5.5552,-5.4712,-5.4695,-5.473,-5.4148,-5.4205,-5.4494,-5.4494,-5.4494,-5.4494,-5.4494,-5.4494,-5.4494,-5.4494,-5.4494,-5.4494,-5.4494,-5.4494,-5.4494,-5.4494,-5.4494,-5.4494,-5.4494,-5.4303,-5.4175,-5.4175,-5.398,-5.3849,-5.3717,-5.3551,-5.3518,-5.3518,-5.3518,-5.3518,-5.3518,-5.3518,-5.3518,-5.3518,-5.3518,-5.3518,-5.3518,-5.3518,-5.3518,-5.3518,-5.3518,-5.3518,-5.1241,-5.2587,-5.3049,-5.2164,-5.0664,-4.8952,0.0,0.0,-4.5475,-4.5419,-4.54,-4.5419,-4.5475,-4.5475,-4.5475,-4.5475,-4.5475,0.0,0.0,0.0,0.0,0.0,0.0,0.0,0.0,0.0,0.0,0.0,0.0,0.0,0.0,-6.5967,-6.5943,-6.6108,-6.5118,-6.4166,-6.332,-6.2512,-6.1666,-6.0819,-6.0819,-6.0819,-6.0781,-6.0468,-6.0121,0.0,0.0,0.0,0.0,-5.8698,-5.8698,-5.8698,-5.8572,-5.8492,-5.8492,-5.8492,-5.8492,-5.8492,-5.8492,-5.806,-5.751,-5.751,-5.6809,-5.5865,-5.5658,-5.5343,-5.4992,-5.4992,-5.4745,-5.4494,-5.4494,-5.4494,-5.4494,-5.4494,-5.4494,-5.4494,-5.4494,-5.4494,-5.4494,-5.4494,-5.4494,-5.4494,-5.4494,-5.4494,-5.4494,-5.4494,-5.4494,-5.4494,-5.4494,-5.4303,-5.4175,-5.398,-5.3849,-5.3717,-5.3717,-5.3551,-5.3518,-5.3518,-5.3518,-5.3518,-5.3518,-5.3518,-5.3518,-5.3518,-5.3518,-5.3518,-5.3518,-5.3518,-5.3518,-5.3518,-5.3518,-5.3518,-4.8395,-5.0134,-5.1201,-5.0335,-4.9298,-4.8222,-4.7012,0.0,-4.54,-4.5339,-4.5361,-4.54,-4.5419,-4.5477,-4.5514,-4.5438,-4.5438,0.0,0.0,0.0,0.0,0.0,0.0,0.0,0.0,0.0,0.0,0.0,0.0,0.0,0.0,-6.537,-6.5023,-6.5057,-6.4215,-6.3589,-6.332,-6.2512,-6.1935,-6.1704,-6.1416,-6.0966,-6.043,-6.0023,0.0,0.0,0.0,0.0,0.0,-5.8523,-5.8529,-5.8572,-5.8443,-5.8443,-5.8492,-5.8443,-5.8356,-5.8312,-5.8312,-5.7831,-5.7216,-5.7216,-5.6456,-5.5578,-5.5484,-5.5259,-5.493,-5.4745,-5.4557,-5.4494,-5.4494,-5.4494,-5.4494,-5.4494,-5.4494,-5.4494,-5.4494,-5.4908,-5.5253,-5.5253,-5.5253,-5.5253,-5.5253,-5.4839,-5.4494,-5.4494,-5.4494,-5.4431,-5.4303,-5.4175,-5.398,-5.3849,-5.3685,-5.3551,-5.3551,-5.3484,-5.3518,-5.3518,-5.3518,-5.3518,-5.3518,-5.3518,-5.3518,-5.3518,-5.3518,-5.3518,-5.3518,-5.3518,-5.3518,-5.3518,-5.3518,-5.3518,0.0,-4.8429,-4.9471,-4.8548,-4.7972,0.0,0.0,0.0,-4.5398,-4.5357,-4.538,-4.54,-4.5419,-4.5477,-4.5457,-4.5419,-4.54,0.0,0.0,0.0,0.0,0.0,0.0,0.0,0.0,0.0,0.0,0.0,0.0,0.0,0.0,-6.5064,-6.4411,-6.4103,-6.3232,-6.2834,-6.2858,-6.1964,-6.1492,-6.1339,-6.1048,-6.0637,-6.0023,-5.9601,0.0,0.0,0.0,0.0,0.0,-5.8437,-5.8443,-5.8443,-5.8393,-5.8356,-5.84,-5.8349,-5.8305,-5.8179,-5.8179,-5.7774,-5.7116,-5.6912,-5.5999,-5.5044,-5.5044,-5.4957,-5.4745,-5.4557,-5.4494,-5.4494,-5.4494,-5.4494,-5.4494,-5.4494,-5.4736,-5.4943,-5.4943,-5.5529,-5.6046,-5.6046,-5.6046,-5.6046,-5.6046,-5.5426,-5.4943,-5.4943,-5.4603,-5.4367,-5.4303,-5.4045,-5.3849,-5.3849,-5.3618,-5.3518,-5.3518,-5.3518,-5.3518,-5.3518,-5.3518,-5.3518,-5.3518,-5.3518,-5.3518,-5.3518,-5.3518,-5.3518,-5.3518,-5.3518,-5.3518,-5.3518,-5.3518,-5.3518,0.0,-4.73,0.0,0.0,0.0,0.0,0.0,0.0,0.0,-4.5398,-4.54,-4.5419,-4.5457,-4.5475,-4.5457,-4.54,-4.5438,0.0,0.0,0.0,0.0,0.0,0.0,0.0,0.0,0.0,0.0,0.0,0.0,0.0,0.0,-6.4885,-6.395,-6.3143,-6.2337,-6.1939,-6.2012,-6.1083,-6.0441,-6.0103,-6.0015,-5.983,-5.9568,-5.9215,0.0,0.0,0.0,0.0,0.0,-5.8449,-5.8443,-5.8349,-5.826,-5.8179,-5.8179,-5.8215,-5.8215,-5.8215,-5.8215,-5.7821,-5.7216,-5.6546,-5.5484,-5.4557,-5.4494,-5.4494,-5.4494,-5.4494,-5.4494,-5.4494,-5.4494,-5.4494,-5.4529,-5.4563,-5.5115,-5.5632,-5.5701,-5.6322,-5.6874,-5.6874,-5.684,-5.6805,-5.6805,-5.6081,-5.5529,-5.5529,-5.475,-5.4239,-5.4431,-5.4045,-5.3783,-5.3915,-5.3685,-5.3518,-5.3518,-5.3518,-5.3518,-5.3518,-5.3518,-5.3518,-5.3518,-5.3518,-5.3518,-5.3518,-5.3518,-5.3518,-5.3518,-5.3518,-5.3518,-5.3518,-5.3551,-5.3585,-4.499,0.0,-4.5605,-4.5414,-4.5545,-4.5668,0.0,0.0,0.0,0.0,0.0,-4.54,-4.54,-4.54,-4.538,-4.5339,-4.5833,0.0,0.0,0.0,0.0,0.0,0.0,0.0,0.0,0.0,0.0,0.0,0.0,0.0,0.0,-6.3348,-6.2413,-6.2221,-6.1377,-6.0917,-6.0942,-6.0725,-6.0441,-6.0179,-5.9906,-5.9571,-5.9178,-5.8784,0.0,0.0,0.0,0.0,-5.8133,-5.8133,-5.8179,-5.826,-5.8088,-5.8088,-5.8215,-5.8088,-5.8042,-5.8042,-5.8042,-5.795,-5.7679,-5.6652,-5.5773,-5.5104,-5.462,-5.4494,-5.4494,-5.4494,-5.4494,-5.4494,-5.4494,-5.4494,-5.4667,-5.5219,-5.5495,-5.577,-5.6391,-5.7116,-5.7633,-5.7633,-5.7185,-5.6805,-5.6805,-5.5667,-5.477,-5.477,-5.4407,-5.4175,-5.411,-5.3849,-5.3651,-5.3618,-5.3585,-5.3518,-5.3518,-5.3518,-5.3518,-5.3518,-5.3518,-5.3518,-5.3518,-5.3518,-5.3518,-5.3518,-5.3518,-5.3518,-5.3518,-5.3518,-5.3518,-5.3518,-5.4093,-5.4329,-4.4572,-4.4751,-4.4919,-4.4896,-4.5154,-4.5398,-4.5378,0.0,0.0,0.0,0.0,0.0,-4.5438,0.0,0.0,0.0,0.0,0.0,0.0,0.0,0.0,0.0,0.0,0.0,0.0,0.0,0.0,0.0,0.0,0.0,0.0,-6.2579,-6.1862,-6.1888,-6.0818,-6.0304,-6.0414,-6.0398,-6.0121,-5.9601,-5.9397,-5.9102,-5.8702,-5.8443,-5.8305,0.0,0.0,0.0,-5.8088,-5.8088,-5.8088,-5.8088,-5.8042,-5.8042,-5.8088,-5.8042,-5.7997,-5.7997,-5.7997,-5.7679,-5.7152,-5.6492,-5.5716,-5.4957,-5.462,-5.4494,-5.4563,-5.4908,-5.477,-5.4598,-5.4943,-5.5012,-5.5046,-5.5081,-5.5908,-5.6702,-5.6771,-5.7667,-5.8323,-5.7978,-5.7598,-5.7219,-5.6874,-5.5805,-5.4948,-5.4918,-5.448,-5.411,-5.398,-5.3783,-5.3618,-5.3618,-5.3551,-5.3518,-5.3518,-5.3518,-5.3518,-5.3518,-5.3518,-5.3518,-5.3518,-5.3518,-5.3518,-5.3518,-5.3822,-5.3991,-5.4025,-5.4363,-5.4532,-5.4532,-5.4938,-5.5108,-4.4493,-4.4751,-4.4966,-4.4919,-4.5154,-4.5398,-4.5319,0.0,0.0,0.0,0.0,0.0,0.0,0.0,0.0,0.0,0.0,0.0,0.0,0.0,0.0,0.0,0.0,0.0,0.0,0.0,0.0,0.0,0.0,0.0,0.0,-6.2065,-6.1617,-6.167,-6.0472,-5.9906,-6.0091,-6.0,-5.9605,-5.887,-5.8828,-5.8619,-5.8179,-5.8179,-5.826,-5.8349,0.0,0.0,-5.8133,-5.8133,-5.8088,-5.7997,-5.7997,-5.7997,-5.7997,-5.7997,-5.7997,-5.7997,-5.7867,-5.7252,-5.6384,-5.6221,-5.5461,-5.462,-5.4494,-5.4494,-5.4701,-5.5563,-5.5184,-5.4667,-5.5288,-5.5529,-5.5495,-5.4977,-5.6426,-5.7771,-5.7253,-5.8047,-5.8668,-5.8012,-5.7702,-5.7391,-5.6874,-5.5981,-5.5365,-5.5372,-5.4559,-5.398,-5.398,-5.3685,-5.3551,-5.3651,-5.3551,-5.3518,-5.3518,-5.3619,-5.3687,-5.3687,-5.3551,-5.3551,-5.3653,-5.3551,-5.3619,-5.3856,-5.4329,-5.4668,-5.4769,-5.5412,-5.5716,-5.5716,-5.5818,-5.5886,-4.4519,-4.4751,-4.4966,-4.4919,-4.5154,-4.5418,-4.5381,0.0,0.0,0.0,0.0,0.0,0.0,0.0,0.0,0.0,0.0,0.0,0.0,0.0,0.0,0.0,0.0,0.0,0.0,0.0,0.0,0.0,0.0,0.0,0.0,-6.1169,-6.0655,-6.0736,-6.0167,-5.9772,-5.954,-5.9397,-5.9178,-5.8828,-5.8788,-5.8619,-5.8179,-5.8179,-5.8133,-5.8042,0.0,-5.8042,-5.8042,-5.8042,-5.7997,-5.7997,-5.7997,-5.7997,-5.7997,-5.7997,-5.7997,-5.795,-5.7449,-5.7116,-5.6809,-5.583,-5.5402,-5.5164,-5.4683,-5.4494,-5.4805,-5.6219,-5.5598,-5.4529,-5.4667,-5.515,-5.577,-5.6322,-5.7185,-5.8047,-5.8564,-5.8357,-5.8047,-5.7909,-5.6874,-5.615,-5.6702,-5.5468,-5.4617,-5.5304,-5.4493,-5.3783,-5.3783,-5.3618,-5.3518,-5.3484,-5.3484,-5.3518,-5.3518,-5.4059,-5.4431,-5.4431,-5.3856,-5.3788,-5.4397,-5.3822,-5.4093,-5.5344,-5.4871,-5.4905,-5.5547,-5.5649,-5.5716,-5.575,-5.6359,-5.663,-4.4676,-4.4934,-4.5333,-4.5753,-4.5646,-4.5534,-4.6014,0.0,0.0,0.0,0.0,0.0,0.0,0.0,0.0,0.0,0.0,0.0,0.0,0.0,0.0,0.0,0.0,0.0,0.0,0.0,0.0,0.0,0.0,0.0,0.0,0.0,-6.0129,-6.015,-5.9534,-5.914,-5.9026,-5.871,-5.854,-5.8492,-5.8492,-5.8319,-5.8088,-5.8088,-5.8042,-5.7997,0.0,-5.7997,-5.7997,-5.7997,-5.7997,-5.7997,-5.7997,-5.7997,-5.7997,-5.7997,-5.7997,-5.795,-5.7679,-5.7166,-5.6599,-5.6055,-5.5461,-5.4834,-5.4557,-5.4805,-5.5184,-5.546,-5.5046,-5.4805,-5.6012,-5.5977,-5.5701,-5.6081,-5.6736,-5.7288,-5.7185,-5.7253,-5.7185,-5.6736,-5.6081,-5.5598,-5.5563,-5.4913,-5.4441,-5.459,-5.4219,-5.3783,-5.3618,-5.3551,-5.3518,-5.3518,-5.3856,-5.4093,-5.4093,-5.4769,-5.5209,-5.5209,-5.4871,-5.4837,-5.5175,-5.4871,-5.5006,-5.5716,-5.575,-5.5953,-5.6292,-5.6697,-5.69,-5.69,-5.7239,-5.7374,-4.4934,-4.5175,-4.5629,-4.6454,-4.6205,-4.5956,-4.682,0.0,0.0,0.0,0.0,0.0,0.0,0.0,0.0,0.0,0.0,0.0,0.0,0.0,0.0,0.0,0.0,0.0,0.0,0.0,0.0,0.0,0.0,0.0,0.0,0.0,-5.9937,-5.9899,-5.914,-5.875,-5.8673,-5.8194,-5.8042,-5.8133,-5.8133,-5.8088,-5.7997,-5.7997,-5.7997,-5.7997,-5.7997,-5.7997,-5.7997,-5.7997,-5.7997,-5.7997,-5.7997,-5.7997,-5.7997,-5.7997,-5.7997,-5.7997,-5.7821,-5.7152,-5.6311,-5.6324,-5.5589,-5.477,-5.477,-5.5288,-5.577,-5.5219,-5.4908,-5.5184,-5.6909,-5.6633,-5.5908,-5.5908,-5.6357,-5.6633,-5.6012,-5.6219,-5.6357,-5.5736,-5.546,-5.5253,-5.4775,-5.4505,-5.4308,-5.4219,-5.4051,-5.3817,-5.3484,-5.3653,-5.3754,-5.3754,-5.4431,-5.4938,-5.5108,-5.5649,-5.6055,-5.6224,-5.5919,-5.5784,-5.5953,-5.5818,-5.5886,-5.6224,-5.6596,-5.69,-5.707,-5.7611,-5.7881,-5.7881,-5.7881,-5.7881,-4.5277,-4.538,-4.563,-4.6474,-4.6705,0.0,-4.7798,-4.7991,0.0,0.0,0.0,0.0,0.0,0.0,0.0,0.0,0.0,0.0,0.0,0.0,0.0,0.0,0.0,0.0,0.0,0.0,0.0,0.0,0.0,0.0,0.0,0.0,0.0,-5.9899,-5.9432,-5.8988,-5.8628,-5.8231,-5.7997,-5.7997,-5.7997,-5.7997,-5.7997,-5.7997,-5.7997,-5.7997,-5.7997,-5.7997,-5.7997,-5.7997,-5.7997,-5.7997,-5.7997,-5.7997,-5.7997,-5.7997,-5.7997,-5.795,-5.7401,-5.6809,-5.6328,-5.6447,-5.6028,-5.5529,-5.5529,-5.6081,-5.6702,-5.6633,-5.6115,-5.5563,-5.5736,-5.6253,-5.6702,-5.6702,-5.6771,-5.6771,-5.6736,-5.6184,-5.5667,-5.5632,-5.5046,-5.4741,-5.5266,-5.459,-5.4219,-5.4736,-5.4059,-5.3518,-5.3518,-5.4093,-5.4499,-5.4499,-5.5175,-5.5919,-5.6596,-5.6697,-5.7002,-5.7679,-5.6461,-5.6021,-5.6697,-5.6089,-5.6359,-5.7712,-5.7137,-5.7137,-5.7814,-5.7848,-5.7881,-5.7881,-5.7881,-5.7881,-4.5298,-4.5763,-4.6282,-4.6627,0.0,0.0,0.0,0.0,0.0,0.0,0.0,0.0,0.0,0.0,0.0,0.0,0.0,0.0,0.0,0.0,0.0,0.0,0.0,0.0,0.0,0.0,0.0,0.0,0.0,0.0,0.0,0.0,0.0,-5.9103,-5.8669,-5.8369,-5.8231,-5.8088,-5.7997,-5.7997,-5.7997,-5.7997,-5.7997,-5.7997,-5.7997,-5.7997,-5.7997,-5.7997,-5.7997,-5.7997,-5.7997,-5.7997,-5.7997,-5.7997,-5.7997,-5.7997,-5.7774,-5.7401,-5.7166,-5.7081,-5.6934,-5.6094,-5.6309,-5.676,-5.5865,-5.6495,-5.7288,-5.6322,-5.6529,-5.715,-5.7598,-5.6564,-5.5598,-5.6564,-5.6081,-5.5357,-5.5357,-5.515,-5.4943,-5.4943,-5.4701,-5.4534,-5.4617,-5.4381,-5.4148,-5.4158,-5.3854,-5.3754,-5.4126,-5.4431,-5.4769,-5.5243,-5.5953,-5.6697,-5.7408,-5.7476,-5.7577,-5.7881,-5.7374,-5.7171,-5.7476,-5.7205,-5.734,-5.7881,-5.7611,-5.7611,-5.7881,-5.7881,-5.8118,-5.8592,-5.8592,-5.8829,-4.5357,-4.5801,-4.6435,0.0,0.0,0.0,0.0,0.0,0.0,0.0,0.0,0.0,0.0,0.0,0.0,0.0,0.0,0.0,0.0,0.0,0.0,0.0,0.0,0.0,0.0,0.0,0.0,0.0,0.0,0.0,0.0,0.0,0.0,0.0,-5.8326,-5.8142,-5.7997,-5.7997,-5.7997,-5.7997,-5.7997,-5.7997,-5.7997,-5.7997,-5.7997,-5.7997,-5.7997,-5.7997,-5.7997,-5.7997,-5.7997,-5.7997,-5.7997,-5.7997,-5.7997,-5.7997,-5.7726,-5.7401,-5.7401,-5.7273,-5.7041,-5.6516,-5.6842,-5.7241,-5.6245,-5.6874,-5.7598,-5.6046,-5.6357,-5.7357,-5.8116,-5.6598,-5.5115,-5.6184,-5.546,-5.4494,-5.4494,-5.4494,-5.4494,-5.4494,-5.4431,-5.4367,-5.4239,-5.411,-5.398,-5.3717,-5.3854,-5.4127,-5.4532,-5.5006,-5.5581,-5.6325,-5.6867,-5.734,-5.7848,-5.7881,-5.7881,-5.7881,-5.7881,-5.7881,-5.7881,-5.7881,-5.7881,-5.7881,-5.7881,-5.8017,-5.8254,-5.8254,-5.8626,-5.937,-5.937,-5.9641,-4.5398,-4.54,0.0,0.0,0.0,0.0,0.0,0.0,0.0,0.0,0.0,0.0,0.0,0.0,0.0,0.0,0.0,0.0,0.0,0.0,0.0,0.0,0.0,0.0,0.0,0.0,0.0,0.0,0.0,0.0,0.0,0.0,0.0,0.0,-5.8586,-5.8412,-5.7997,-5.7997,-5.7997,-5.7997,-5.7997,-5.7997,-5.7997,-5.7997,-5.7997,-5.7997,-5.7997,-5.7997,-5.7997,-5.7997,-5.7997,-5.7997,-5.7997,-5.7997,-5.7997,-5.7997,-5.7997,-5.7997,-5.7997,-5.7252,-5.6525,-5.8003,-5.7684,-5.6805,-5.6771,-5.7322,-5.7564,-5.6046,-5.5598,-5.5805,-5.6564,-5.6184,-5.5598,-5.5598,-5.5046,-5.4494,-5.4494,-5.4494,-5.4494,-5.4494,-5.4367,-5.4239,-5.4239,-5.3915,-5.3717,-5.3717,-5.4228,-5.46,-5.46,-5.5886,-5.7103,-5.7814,-5.7881,-5.7881,-5.7881,-5.7881,-5.7881,-5.7881,-5.7881,-5.7881,-5.7881,-5.7881,-5.7881,-5.7881,-5.7881,-5.8254,-5.9032,-5.9032,-5.9404,-6.0114,-6.0114,-6.0114,-4.5944,-4.6682,0.0,0.0,0.0,0.0,0.0,0.0,0.0,0.0,0.0,0.0,0.0,0.0,0.0,0.0,0.0,0.0,0.0,0.0,0.0,0.0,0.0,0.0,0.0,0.0,0.0,0.0,0.0,0.0,0.0,0.0,0.0,0.0,-5.8186,-5.8097,-5.7997,-5.7997,-5.7997,-5.7997,-5.7997,-5.7997,-5.7997,-5.7997,-5.7997,-5.7997,-5.7997,-5.7997,-5.7997,-5.7997,-5.7997,-5.7997,-5.7997,-5.7997,-5.7997,-5.7997,-5.7726,-5.7315,-5.6912,-5.6958,-5.6985,-5.5984,-5.6474,-5.7241,-5.6245,-5.6495,-5.6909,-5.5908,-5.5598,-5.5563,-5.5253,-5.5012,-5.4977,-5.5495,-5.5046,-5.4494,-5.4494,-5.4494,-5.4494,-5.4494,-5.4367,-5.4175,-5.4045,-5.4258,-5.4432,-5.4398,-5.4905,-5.5581,-5.6089,-5.6968,-5.7645,-5.7881,-5.7881,-5.7881,-5.7881,-5.7881,-5.7881,-5.7881,-5.7881,-5.7881,-5.7881,-5.7881,-5.7881,-5.7881,-5.8423,-5.8795,-5.9032,-5.9539,-6.0182,-6.0926,-6.0926,-6.1231,-4.6428,0.0,0.0,0.0,0.0,0.0,0.0,0.0,0.0,0.0,0.0,0.0,0.0,0.0,0.0,0.0,0.0,0.0,0.0,0.0,0.0,0.0,0.0,0.0,0.0,0.0,0.0,0.0,0.0,0.0,0.0,0.0,0.0,0.0,-5.7813,-5.785,-5.7519,-5.785,-5.7997,-5.7997,-5.7997,-5.7997,-5.7997,-5.7997,-5.7997,-5.7997,-5.7997,-5.7997,-5.7997,-5.7997,-5.7997,-5.7997,-5.7997,-5.7997,-5.7997,-5.7997,-5.7774,-5.7401,-5.7065,-5.7028,-5.6843,-5.5953,-5.6187,-5.6725,-5.5865,-5.5943,-5.6184,-5.5391,-5.5184,-5.5081,-5.4632,-5.4494,-5.4632,-5.5081,-5.4839,-5.4494,-5.4494,-5.4494,-5.4494,-5.4367,-5.4239,-5.4213,-5.439,-5.46,-5.4805,-5.5144,-5.5753,-5.6393,-5.7137,-5.7611,-5.7881,-5.7881,-5.7881,-5.7881,-5.7881,-5.7881,-5.7881,-5.7881,-5.8152,-5.8355,-5.8355,-5.8355,-5.8457,-5.8761,-5.9201,-5.9607,-5.9911,-6.0351,-6.0994,-6.1738,-6.1738,-6.1975,0.0,0.0,0.0,0.0,0.0,0.0,0.0,0.0,0.0,0.0,0.0,0.0,0.0,0.0,0.0,0.0,0.0,0.0,0.0,0.0,0.0,0.0,0.0,0.0,0.0,0.0,0.0,0.0,0.0,0.0,0.0,0.0,0.0,-5.6712,-5.7409,-5.7446,-5.6712,-5.7409,-5.7776,-5.7776,-5.7776,-5.7813,-5.7886,-5.796,-5.7997,-5.7997,-5.7997,-5.7997,-5.7997,-5.7997,-5.7997,-5.7997,-5.7997,-5.7997,-5.7997,-5.7997,-5.7997,-5.7997,-5.7867,-5.7202,-5.6383,-5.6929,-5.636,-5.5529,-5.5529,-5.5529,-5.5391,-5.4701,-5.4494,-5.4494,-5.4494,-5.4494,-5.4494,-5.4529,-5.4494,-5.4494,-5.4494,-5.4431,-5.4431,-5.4239,-5.408,-5.4322,-5.4939,-5.4907,-5.5109,-5.6028,-5.6566,-5.7137,-5.7814,-5.7881,-5.7881,-5.7881,-5.7881,-5.7881,-5.7881,-5.7881,-5.7881,-5.7881,-5.8592,-5.9032,-5.9099,-5.9099,-5.9438,-6.008,-6.0182,-6.0554,-6.1298,-6.1366,-6.1738,-6.2381,-6.2381,-6.2381,0.0,0.0,0.0,0.0,0.0,0.0,0.0,0.0,0.0,0.0,0.0,0.0,0.0,0.0,0.0,0.0,0.0,0.0,0.0,0.0,0.0,0.0,0.0,0.0,0.0,0.0,0.0,0.0,0.0,0.0,0.0,0.0,0.0,-5.5868,-5.6014,-5.6014,-5.5868,-5.6014,-5.6124,0.0,-5.6124,-5.6455,-5.7079,-5.7703,-5.7997,-5.7997,-5.7997,-5.7997,-5.7997,-5.7997,-5.7997,-5.7997,-5.7997,-5.7997,-5.7997,-5.7997,-5.7997,-5.7867,-5.6964,-5.6492,-5.6201,-5.5374,-5.4988,-5.4736,-5.4736,-5.4736,-5.4701,-5.4563,-5.4494,-5.4494,-5.4494,-5.4367,-5.4303,-5.4431,-5.4494,-5.4431,-5.4303,-5.4239,-5.4239,-5.4045,-5.4393,-5.4702,-5.4839,-5.5687,-5.6562,-5.7378,-5.7543,-5.7712,-5.7881,-5.7881,-5.7881,-5.7881,-5.7881,-5.7881,-5.7881,-5.7881,-5.7881,-5.7881,-5.8592,-5.9268,-5.9844,-5.9877,-5.9945,-6.0114,-6.0723,-6.1129,-6.1298,-6.1873,-6.2245,-6.2381,-6.2381,-6.2381,0.0,0.0,0.0,0.0,0.0,0.0,0.0,0.0,0.0,0.0,0.0,0.0,0.0,0.0,0.0,0.0,0.0,0.0,0.0,0.0,0.0,0.0,0.0,0.0,0.0,0.0,0.0,0.0,0.0,0.0,0.0,-5.5207,-5.5023,-5.5023,-5.539,-5.5427,-5.5023,-5.539,-5.5574,-5.5574,-5.5574,-5.5794,-5.6271,-5.7446,-5.7997,-5.796,-5.7593,-5.7446,-5.7409,-5.7005,-5.7079,-5.7446,-5.7446,-5.7666,-5.7997,-5.7997,-5.7821,-5.7498,-5.6912,-5.633,-5.5773,-5.5104,-5.4745,-5.4494,-5.4494,-5.4494,-5.4494,-5.4494,-5.4431,-5.4367,-5.4367,-5.4303,-5.4239,-5.4239,-5.4239,-5.4239,-5.4239,-5.4175,-5.4045,-5.3915,-5.4362,-5.4907,-5.5178,-5.6396,-5.7442,-5.7814,-5.7881,-5.7881,-5.7881,-5.7881,-5.7881,-5.7881,-5.822,-5.8423,-5.8423,-5.8761,-5.893,-5.893,-5.9674,-6.0283,-6.0655,-6.0994,-6.1197,-6.1197,-6.1603,-6.1839,-6.1839,-6.2212,-6.2381,-6.2381,-6.2381,-6.2381,0.0,0.0,0.0,0.0,0.0,0.0,0.0,0.0,0.0,0.0,0.0,0.0,0.0,0.0,0.0,0.0,0.0,0.0,0.0,0.0,0.0,0.0,0.0,0.0,0.0,0.0,0.0,0.0,0.0,0.0,-5.5177,-5.4546,-5.4179,-5.4179,-5.484,-5.4876,-5.4216,-5.484,-5.517,-5.517,-5.5317,-5.539,-5.5427,-5.6932,-5.7593,-5.7556,-5.6895,-5.6602,-5.6565,-5.6014,-5.6198,-5.6822,-5.6969,-5.7409,-5.7997,-5.7997,-5.7679,-5.7216,-5.7015,-5.6349,-5.5484,-5.5343,-5.4896,-5.4494,-5.4494,-5.4494,-5.4494,-5.4494,-5.4367,-5.4239,-5.4239,-5.4175,-5.411,-5.4045,-5.398,-5.3915,-5.411,-5.4045,-5.3915,-5.3717,-5.433,-5.5213,-5.5919,-5.7103,-5.7881,-5.7881,-5.7881,-5.7881,-5.7881,-5.7881,-5.7881,-5.7881,-5.8558,-5.9032,-5.9032,-5.9674,-6.0114,-6.0114,-6.0858,-6.1298,-6.1298,-6.2009,-6.2381,-6.2381,-6.2381,-6.2381,-6.2381,-6.2381,-6.2381,-6.2381,-6.2381,-6.2381,0.0,0.0,0.0,0.0,0.0,0.0,0.0,0.0,0.0,0.0,0.0,0.0,0.0,0.0,0.0,0.0,0.0,0.0,0.0,0.0,0.0,0.0,0.0,0.0,0.0,0.0,0.0,0.0,0.0,0.0,-5.3518,-5.3445,-5.3371,-5.3371,-5.3482,-5.3482,-5.3371,-5.3482,-5.3518,-5.3555,-5.4216,-5.4546,-5.4583,-5.55,-5.5904,-5.5904,-5.5794,-5.5757,-5.5794,-5.6418,-5.6712,-5.6859,-5.7556,-5.7923,-5.7997,-5.7997,-5.795,-5.7726,-5.6757,-5.633,-5.5999,-5.4957,-5.4557,-5.4494,-5.4494,-5.4494,-5.4494,-5.4494,-5.4367,-5.4239,-5.4431,-5.411,-5.3849,-5.411,-5.3849,-5.3618,-5.3717,-5.3783,-5.3717,-5.3551,-5.46,-5.5987,-5.7374,-5.7746,-5.7881,-5.7881,-5.7881,-5.7881,-5.7881,-5.7881,-5.7881,-5.7881,-5.8558,-5.9032,-5.9032,-5.9674,-6.0114,-6.0114,-6.0858,-6.1298,-6.1298,-6.2009,-6.2381,-6.2381,-6.2381,-6.2381,-6.2381,-6.2381,-6.2381,-6.2381,-6.2381,-6.2302,0.0,0.0,0.0,0.0,0.0,0.0,0.0,0.0,0.0,0.0,0.0,0.0,0.0,0.0,0.0,0.0,0.0,0.0,0.0,0.0,0.0,0.0,0.0,0.0,0.0,0.0,0.0,0.0,0.0,-5.3225,-5.3225,-5.3225,-5.3225,-5.3225,-5.3225,-5.3225,-5.3225,-5.3225,-5.3225,-5.3225,-5.3555,-5.3739,-5.3739,-5.4546,-5.5427,-5.6235,-5.5794,-5.5868,-5.6271,-5.6161,-5.6381,-5.6859,-5.7189,-5.7593,-5.7997,-5.7997,-5.7631,-5.6964,-5.6492,-5.583,-5.5224,-5.4683,-5.4494,-5.4494,-5.4494,-5.4494,-5.4494,-5.4367,-5.4239,-5.4175,-5.411,-5.398,-5.3849,-5.3817,-5.3751,-5.372,-5.4127,-5.3889,-5.3788,-5.4566,-5.5615,-5.6664,-5.7712,-5.7881,-5.7881,-5.7881,-5.7881,-5.7881,-5.7881,-5.7881,-5.8051,-5.8457,-5.9201,-5.981,-6.025,-6.096,-6.14,-6.14,-6.1704,-6.1907,-6.1907,-6.2212,-6.2381,-6.2381,-6.2381,-6.2381,-6.2381,-6.2381,-6.2381,-6.2381,-6.2381,-6.2381,0.0,0.0,0.0,0.0,0.0,0.0,0.0,0.0,0.0,0.0,0.0,0.0,0.0,0.0,0.0,0.0,0.0,0.0,0.0,0.0,0.0,0.0,0.0,0.0,0.0,0.0,0.0,0.0,0.0,-5.3225,-5.3225,-5.3225,-5.3225,-5.3225,-5.3225,-5.3225,-5.3225,-5.3225,-5.3225,-5.3225,-5.3225,-5.3335,-5.3555,-5.4142,-5.528,-5.6748,-5.5941,-5.5941,-5.6455,-5.6051,-5.6271,-5.6822,-5.7042,-5.7483,-5.7997,-5.7997,-5.7351,-5.6492,-5.633,-5.5601,-5.4745,-5.4557,-5.4494,-5.4494,-5.4494,-5.4431,-5.4367,-5.4303,-5.4239,-5.411,-5.3915,-5.3849,-5.3849,-5.3618,-5.3618,-5.3754,-5.4194,-5.4194,-5.4397,-5.5513,-5.6292,-5.7036,-5.7746,-5.7881,-5.7881,-5.7881,-5.7881,-5.7881,-5.7881,-5.7881,-5.8186,-5.893,-5.9674,-6.0419,-6.1231,-6.1975,-6.2381,-6.2381,-6.2381,-6.2381,-6.2381,-6.2381,-6.2381,-6.2381,-6.2381,-6.2381,-6.2381,-6.2584,-6.2584,-6.2381,-6.2584,-6.2606,0.0,0.0,0.0,0.0,0.0,0.0,0.0,0.0,0.0,0.0,0.0,0.0,0.0,0.0,0.0,0.0,0.0,0.0,0.0,0.0,0.0,0.0,0.0,0.0,0.0,0.0,0.0,0.0,0.0,-5.3225,-5.3225,-5.3225,-5.3225,-5.3225,-5.3225,-5.3225,-5.3225,-5.3225,-5.3225,-5.3225,-5.3225,-5.3592,-5.4326,-5.4363,-5.528,-5.6748,-5.5941,-5.5611,-5.5721,-5.6455,-5.6748,-5.6895,-5.7629,-5.796,-5.7997,-5.7997,-5.7594,-5.7015,-5.6492,-5.5887,-5.5284,-5.4683,-5.4494,-5.4494,-5.4494,-5.4367,-5.4239,-5.4431,-5.4239,-5.4045,-5.4175,-5.398,-5.3717,-5.3717,-5.3618,-5.3518,-5.3551,-5.4634,-5.5615,-5.5716,-5.6292,-5.7036,-5.7746,-5.7881,-5.7881,-5.7881,-5.7881,-5.7881,-5.7881,-5.7881,-5.8186,-5.893,-5.9674,-6.0419,-6.1231,-6.1975,-6.2381,-6.2381,-6.2381,-6.2381,-6.2381,-6.2381,-6.2381,-6.2381,-6.2381,-6.2381,-6.2381,-6.3125,-6.3091,-6.2415,-6.3125,-6.3188,0.0,0.0,0.0,0.0,0.0,0.0,0.0,0.0,0.0,0.0,0.0,0.0,0.0,0.0,0.0,0.0,0.0,0.0,0.0,0.0,0.0,0.0,0.0,0.0,0.0,0.0,0.0,0.0,0.0,0.0,-5.3225,-5.3225,-5.3225,-5.3225,-5.3225,-5.3225,-5.3225,-5.3225,-5.3225,-5.3225,-5.3739,-5.4106,-5.4436,-5.5464,-5.6271,-5.6822,-5.7042,-5.7152,-5.7152,-5.7446,-5.7556,-5.7593,-5.7886,-5.7997,-5.795,-5.7546,-5.7065,-5.6492,-5.5943,-5.5343,-5.4772,-5.4557,-5.4494,-5.4494,-5.4494,-5.4367,-5.4239,-5.4303,-5.4175,-5.398,-5.3915,-5.3783,-5.3651,-5.3618,-5.4635,-5.5378,-5.4397,-5.5378,-5.6427,-5.6427,-5.7002,-5.7577,-5.7848,-5.7881,-5.7881,-5.7881,-5.7881,-5.7881,-5.7881,-5.8321,-5.8896,-5.9641,-6.0419,-6.1163,-6.1941,-6.2245,-6.2381,-6.2381,-6.2381,-6.2381,-6.2381,-6.2381,-6.2618,-6.3091,-6.3125,-6.3125,-6.3125,-6.3396,-6.3632,-6.3802,-6.3944,-6.3915,-4.6424,0.0,0.0,0.0,0.0,0.0,0.0,0.0,0.0,0.0,0.0,0.0,0.0,0.0,0.0,0.0,0.0,0.0,0.0,0.0,0.0,0.0,0.0,0.0,0.0,0.0,0.0,0.0,0.0,0.0,-5.3225,-5.3225,-5.3225,-5.3225,-5.3225,-5.3225,-5.3225,-5.3225,-5.3225,-5.3225,-5.4032,-5.4546,-5.484,-5.6198,-5.6969,-5.7226,-5.7776,-5.7997,-5.7997,-5.7997,-5.7997,-5.7997,-5.7997,-5.7904,-5.7679,-5.7216,-5.6616,-5.5943,-5.5543,-5.5018,-5.4494,-5.4494,-5.4494,-5.4494,-5.4431,-5.4239,-5.4175,-5.4175,-5.4045,-5.3915,-5.3849,-5.3887,-5.4025,-5.4194,-5.5547,-5.6528,-5.5547,-5.6292,-5.7103,-5.6867,-5.7408,-5.7881,-5.7881,-5.7881,-5.7881,-5.7881,-5.7881,-5.7881,-5.7881,-5.8558,-5.9302,-6.0013,-6.0825,-6.1603,-6.2347,-6.2381,-6.2381,-6.2381,-6.2381,-6.2516,-6.2753,-6.2753,-6.3125,-6.3869,-6.3869,-6.4005,-6.4241,-6.4241,-6.4377,-6.4613,-6.472,-6.4656,0.0,0.0,0.0,0.0,0.0,0.0,0.0,0.0,0.0,0.0,0.0,0.0,0.0,0.0,0.0,0.0,0.0,0.0,0.0,0.0,0.0,0.0,0.0,0.0,0.0,0.0,0.0,0.0,0.0,-5.3225,-5.3225,-5.3225,-5.3225,-5.3225,-5.3225,-5.3225,-5.3225,-5.3225,-5.3225,-5.3261,-5.4069,-5.484,-5.5647,-5.6455,-5.7262,-5.7997,-5.7997,-5.7997,-5.7997,-5.7997,-5.7997,-5.7997,-5.7997,-5.7594,-5.7116,-5.7065,-5.6349,-5.5402,-5.5402,-5.5018,-5.4494,-5.4494,-5.4494,-5.4431,-5.4239,-5.411,-5.4045,-5.4175,-5.398,-5.3783,-5.3949,-5.4329,-5.4837,-5.5547,-5.6292,-5.6833,-5.6799,-5.7374,-5.7679,-5.6968,-5.7408,-5.7881,-5.7881,-5.7915,-5.7915,-5.7915,-5.7915,-5.7915,-5.7949,-5.8592,-5.9336,-6.0047,-6.0858,-6.1637,-6.2347,-6.2381,-6.2381,-6.2381,-6.2381,-6.2719,-6.3463,-6.3497,-6.3869,-6.458,-6.4613,-6.4986,-6.573,-6.5696,-6.5324,-6.4681,-6.5392,-6.548,-4.6985,0.0,0.0,0.0,0.0,0.0,0.0,0.0,0.0,0.0,0.0,0.0,0.0,0.0,0.0,0.0,0.0,0.0,0.0,0.0,0.0,0.0,0.0,0.0,0.0,0.0,0.0,0.0,-5.3225,-5.3225,-5.3225,-5.3225,-5.3225,-5.3225,-5.3225,-5.3225,-5.3225,-5.3225,-5.3482,-5.4069,-5.4876,-5.5684,-5.6492,-5.7299,-5.7776,-5.7997,-5.7997,-5.7997,-5.7997,-5.7997,-5.7997,-5.795,-5.7498,-5.7216,-5.7015,-5.6185,-5.5658,-5.5343,-5.4896,-5.462,-5.4494,-5.4494,-5.4494,-5.4431,-5.4239,-5.4175,-5.411,-5.4045,-5.3915,-5.3819,-5.433,-5.5312,-5.6122,-5.5784,-5.6664,-5.7442,-5.6934,-5.7374,-5.7814,-5.7645,-5.7746,-5.7881,-5.7881,-5.8355,-5.8693,-5.8693,-5.8693,-5.8896,-5.9404,-5.9674,-6.0114,-6.0892,-6.1637,-6.2178,-6.2381,-6.2381,-6.2381,-6.2381,-6.2381,-6.2482,-6.2685,-6.3226,-6.3869,-6.458,-6.5121,-6.5764,-6.6508,-6.5967,-6.5865,-6.6203,-6.6036,-6.5708,-4.7535,-4.8196,0.0,0.0,0.0,0.0,0.0,-4.9701,0.0,0.0,0.0,0.0,0.0,0.0,0.0,0.0,0.0,0.0,0.0,0.0,0.0,0.0,0.0,0.0,0.0,0.0,0.0,-5.3225,-5.3225,-5.3225,-5.3225,-5.3225,-5.3225,-5.3225,-5.3225,-5.3225,-5.3225,-5.3555,-5.3959,-5.4399,-5.5574,-5.6345,-5.6822,-5.7629,-5.7997,-5.7997,-5.7997,-5.7821,-5.7594,-5.7594,-5.7594,-5.7594,-5.7216,-5.6809,-5.6295,-5.5658,-5.5224,-5.4957,-5.462,-5.4494,-5.4494,-5.4494,-5.4431,-5.4367,-5.4175,-5.4045,-5.398,-5.3915,-5.3783,-5.3888,-5.4838,-5.5716,-5.6393,-5.6562,-5.7273,-5.778,-5.734,-5.7577,-5.7881,-5.7881,-5.7881,-5.7881,-5.7881,-5.8254,-5.8558,-5.8558,-5.8795,-5.9167,-5.9607,-6.0216,-6.0791,-6.1264,-6.1941,-6.2381,-6.2381,-6.2381,-6.2381,-6.2381,-6.2381,-6.2516,-6.2854,-6.3565,-6.4309,-6.5019,-6.5764,-6.6289,-6.6643,-6.6205,-6.6205,-6.6525,-6.6095,-6.5867,-4.8233,-4.9003,-4.9407,0.0,0.0,0.0,-4.8636,-4.904,-4.9774,0.0,0.0,0.0,0.0,0.0,0.0,0.0,0.0,0.0,0.0,0.0,0.0,0.0,0.0,0.0,0.0,-5.3225,-5.3225,-5.3225,-5.3225,-5.3225,-5.3225,-5.3225,-5.3225,-5.3225,-5.3225,-5.3225,-5.3225,-5.3995,-5.4436,-5.4546,-5.6088,-5.6859,-5.6969,-5.7666,-5.7997,-5.7997,-5.795,-5.7594,-5.7116,-5.7065,-5.7015,-5.7015,-5.6964,-5.6295,-5.5402,-5.5343,-5.4957,-5.4494,-5.4494,-5.4494,-5.4529,-5.4431,-5.4367,-5.4175,-5.4045,-5.3849,-5.3717,-5.3717,-5.3785,-5.4092,-5.5344,-5.5784,-5.619,-5.7577,-5.7881,-5.7881,-5.7881,-5.7881,-5.7881,-5.7881,-5.7881,-5.7881,-5.7881,-5.7949,-5.8017,-5.8017,-5.866,-5.9167,-5.9268,-6.0452,-6.1332,-6.14,-6.2009,-6.2381,-6.2381,-6.2381,-6.2381,-6.2381,-6.2381,-6.2685,-6.3362,-6.4174,-6.4918,-6.5561,-6.6373,-6.6643,-6.6421,-6.6507,-6.6302,-6.6095,-6.5867,-6.578,0.0,0.0,0.0,0.0,0.0,0.0,-4.937,-4.9481,-4.9627,0.0,0.0,0.0,0.0,0.0,0.0,0.0,0.0,0.0,0.0,0.0,0.0,0.0,0.0,0.0,0.0,-5.3225,-5.3225,-5.3225,-5.3225,-5.3225,-5.3225,-5.3225,-5.3225,-5.3225,-5.3225,-5.3225,-5.3225,-5.3995,-5.473,-5.5354,-5.6345,-5.7152,-5.7776,-5.7923,-5.7997,-5.7997,-5.7498,-5.7216,-5.7065,-5.6652,-5.6438,-5.6438,-5.5943,-5.5601,-5.5343,-5.4834,-5.462,-5.4494,-5.4494,-5.4494,-5.4431,-5.4303,-5.4239,-5.4175,-5.3849,-5.3849,-5.3915,-5.3783,-5.4025,-5.4635,-5.548,-5.6156,-5.6799,-5.7679,-5.7881,-5.7881,-5.7881,-5.7881,-5.7881,-5.7881,-5.7881,-5.7881,-5.7881,-5.8389,-5.8795,-5.8795,-5.9404,-6.0114,-6.0791,-6.1129,-6.1535,-6.211,-6.2313,-6.2381,-6.2381,-6.2381,-6.2381,-6.2381,-6.2381,-6.2448,-6.2618,-6.3903,-6.4681,-6.4816,-6.5969,-6.6388,-6.6182,-6.6388,-6.6249,-6.5867,-6.578,-6.5692,0.0,0.0,0.0,-5.0802,0.0,0.0,0.0,-4.9591,-4.9591,0.0,0.0,0.0,0.0,0.0,0.0,0.0,0.0,0.0,0.0,0.0,0.0,0.0,0.0,0.0,0.0,-5.3225,-5.3225,-5.3225,-5.3225,-5.3225,-5.3225,-5.3225,-5.3225,-5.3225,-5.3225,-5.3408,-5.3812,-5.4583,-5.539,-5.6198,-5.7005,-5.7593,-5.7997,-5.7997,-5.7821,-5.7546,-5.7216,-5.6773,-5.624,-5.5943,-5.5658,-5.5402,-5.5402,-5.5224,-5.4896,-5.462,-5.4494,-5.4494,-5.4494,-5.4431,-5.4303,-5.4239,-5.411,-5.3915,-5.3783,-5.3717,-5.3751,-5.3618,-5.3822,-5.4296,-5.5412,-5.5987,-5.6528,-5.7645,-5.7881,-5.7881,-5.7881,-5.7881,-5.7881,-5.7881,-5.7881,-5.7881,-5.7881,-5.822,-5.8457,-5.8457,-5.9404,-6.025,-6.0655,-6.1366,-6.1975,-6.2347,-6.2381,-6.2381,-6.2381,-6.2381,-6.255,-6.2922,-6.2584,-6.2719,-6.3463,-6.4208,-6.4952,-6.5696,-6.6221,-6.6388,-6.6095,-6.6129,-6.5955,-6.5603,-6.5603,-6.5713,0.0,0.0,0.0,0.0,0.0,-5.1646,0.0,0.0,0.0,-4.9811,0.0,0.0,0.0,0.0,0.0,0.0,0.0,0.0,0.0,0.0,0.0,0.0,0.0,0.0,0.0,-5.3225,-5.3225,-5.3225,-5.3225,-5.3225,-5.3225,-5.3225,-5.3225,-5.3225,-5.3225,-5.3592,-5.4399,-5.5207,-5.5978,-5.6822,-5.7629,-5.7997,-5.7997,-5.7867,-5.7546,-5.7116,-5.6861,-5.624,-5.5402,-5.5284,-5.4957,-5.4557,-5.5079,-5.4957,-5.4494,-5.4494,-5.4494,-5.4494,-5.4431,-5.4367,-5.4175,-5.411,-5.3915,-5.3651,-5.3651,-5.3618,-5.3518,-5.3518,-5.3619,-5.4025,-5.5378,-5.5818,-5.6258,-5.7577,-5.7881,-5.7881,-5.7881,-5.7881,-5.7881,-5.7881,-5.7881,-5.7881,-5.7881,-5.7881,-5.7949,-5.8084,-5.9235,-6.0148,-6.0317,-6.1535,-6.2381,-6.2381,-6.2381,-6.2381,-6.2381,-6.2516,-6.2854,-6.3463,-6.2956,-6.3193,-6.4546,-6.4749,-6.5459,-6.6779,-6.6558,-6.6302,-6.6095,-6.5867,-6.5603,-6.5425,-6.5558,-6.5955,0.0,0.0,0.0,0.0,-5.2454,0.0,0.0,0.0,-5.0655,-5.0655,0.0,0.0,0.0,0.0,0.0,0.0,0.0,0.0,0.0,0.0,0.0,0.0,0.0,0.0,0.0,0.0,-5.3225,-5.3225,-5.3225,-5.3225,-5.3225,-5.3225,-5.3225,-5.3225,-5.3225,-5.3592,-5.4399,-5.5207,-5.5978,-5.6822,-5.7629,-5.7997,-5.7997,-5.7449,-5.7166,-5.7065,-5.6019,-5.5484,-5.5343,-5.4834,-5.4557,-5.4494,-5.4557,-5.4557,-5.4494,-5.4494,-5.4494,-5.4431,-5.4303,-5.4239,-5.4175,-5.3849,-5.3685,-5.3484,-5.3484,-5.3484,-5.3518,-5.3518,-5.3957,-5.4668,-5.5513,-5.619,-5.6867,-5.7679,-5.7881,-5.7881,-5.7881,-5.7881,-5.7881,-5.7881,-5.7881,-5.7881,-5.7881,-5.7881,-5.8118,-5.8795,-5.9573,-6.0351,-6.1061,-6.1873,-6.2381,-6.2381,-6.2381,-6.2381,-6.2381,-6.299,-6.3429,-6.3497,-6.3429,-6.3734,-6.458,-6.5222,-6.5967,-6.6779,-6.6354,-6.6095,-6.6095,-6.5658,-6.5425,-6.5425,-6.6088,-6.6452,0.0,0.0,0.0,0.0,0.0,0.0,-5.2128,0.0,-5.1353,0.0,0.0,0.0,0.0,0.0,0.0,0.0,0.0,0.0,0.0,0.0,0.0,0.0,0.0,0.0,0.0,0.0,0.0,0.0,0.0,-5.3225,-5.3225,-5.3225,-5.3225,-5.3225,-5.3665,-5.4289,-5.5097,-5.5904,-5.6539,-5.6988,-5.7674,-5.7679,-5.7015,-5.7065,-5.6721,-5.6075,-5.5601,-5.5224,-5.4834,-5.462,-5.4494,-5.4494,-5.4494,-5.4494,-5.4494,-5.4494,-5.4431,-5.4303,-5.4239,-5.411,-5.3849,-5.3651,-5.3551,-5.3518,-5.3518,-5.3518,-5.3518,-5.3518,-5.4025,-5.4769,-5.5513,-5.6258,-5.7002,-5.7712,-5.7881,-5.7881,-5.7881,-5.7881,-5.7881,-5.7881,-5.7881,-5.7881,-5.7881,-5.7881,-5.8152,-5.8896,-5.9641,-6.0385,-6.1197,-6.1941,-6.2381,-6.2381,-6.2381,-6.2381,-6.2381,-6.3091,-6.37,-6.4106,-6.4952,-6.5358,-6.5222,-6.5933,-6.6474,-6.6812,-6.6354,-6.6095,-6.6095,-6.5658,-6.5231,-6.5073,-6.608,-6.6351,-5.1861,0.0,0.0,0.0,0.0,0.0,0.0,0.0,0.0,0.0,0.0,0.0,0.0,0.0,0.0,-5.172,0.0,0.0,0.0,0.0,0.0,0.0,0.0,0.0,0.0,0.0,0.0,-5.3225,-5.3225,-5.3225,-5.3225,-5.3225,-5.3298,-5.3518,-5.4106,-5.4876,-5.5904,-5.6356,-5.6781,-5.7116,-5.7401,-5.7065,-5.633,-5.651,-5.6185,-5.5402,-5.5224,-5.4896,-5.4494,-5.4494,-5.4494,-5.4494,-5.4494,-5.4494,-5.4494,-5.4431,-5.4303,-5.4175,-5.411,-5.3915,-5.3584,-5.3551,-5.3518,-5.3518,-5.3518,-5.3518,-5.3518,-5.3518,-5.4194,-5.4972,-5.531,-5.6258,-5.7171,-5.7509,-5.7746,-5.7881,-5.7881,-5.7881,-5.7881,-5.7881,-5.8051,-5.8186,-5.8186,-5.8017,-5.822,-5.9167,-5.9776,-6.0452,-6.1467,-6.2076,-6.2381,-6.2381,-6.2381,-6.2381,-6.2381,-6.326,-6.414,-6.485,-6.6102,-6.6474,-6.573,-6.6406,-6.6728,-6.6728,-6.6268,-6.6095,-6.6009,-6.5468,-6.5101,-6.4802,-6.5821,-6.6089,0.0,0.0,0.0,-5.3359,0.0,0.0,0.0,0.0,-5.3151,0.0,0.0,0.0,0.0,0.0,-5.2674,-5.1096,-5.216,0.0,0.0,0.0,0.0,0.0,0.0,0.0,0.0,0.0,0.0,-5.3225,-5.3225,-5.3225,-5.3225,-5.3225,-5.3555,-5.4326,-5.4399,-5.517,-5.6748,-5.6248,-5.6319,-5.7116,-5.6599,-5.633,-5.6276,-5.5716,-5.5461,-5.5402,-5.4772,-5.4494,-5.4494,-5.4494,-5.4494,-5.4494,-5.4494,-5.4494,-5.4494,-5.4303,-5.4239,-5.4175,-5.3849,-5.3584,-5.3518,-5.3518,-5.3518,-5.3518,-5.3518,-5.3518,-5.3518,-5.3518,-5.4566,-5.5513,-5.4803,-5.6224,-5.7679,-5.7002,-5.7374,-5.7881,-5.7881,-5.7881,-5.7881,-5.7881,-5.849,-5.8964,-5.8964,-5.8355,-5.8389,-5.9844,-6.008,-6.0655,-6.2144,-6.2381,-6.2381,-6.2381,-6.2381,-6.2381,-6.2381,-6.3734,-6.4884,-6.5595,-6.6373,-6.6474,-6.573,-6.6406,-6.6728,-6.6507,-6.6215,-6.6009,-6.578,-6.5106,-6.477,-6.4802,-6.561,-6.57,0.0,0.0,-5.3754,-5.3598,0.0,0.0,0.0,0.0,0.0,0.0,0.0,0.0,0.0,-5.3225,-5.3041,-5.2491,-5.2858,-5.3004,0.0,0.0,0.0,0.0,0.0,0.0,0.0,0.0,0.0,-5.3188,-5.2711,-5.2637,0.0,-5.3225,-5.3592,-5.4363,-5.4529,-5.5109,-5.6164,-5.6176,-5.6098,-5.5999,-5.6221,-5.5887,-5.5104,-5.5343,-5.5164,-5.4772,-5.4557,-5.4494,-5.4494,-5.4367,-5.4367,-5.4494,-5.4367,-5.4303,-5.4303,-5.4239,-5.4175,-5.4045,-5.3685,-5.3551,-5.3518,-5.3518,-5.3518,-5.3518,-5.3518,-5.3518,-5.3518,-5.3518,-5.4566,-5.5649,-5.5412,-5.6596,-5.7814,-5.7577,-5.7712,-5.7881,-5.7881,-5.7881,-5.7881,-5.7881,-5.849,-5.9032,-5.9032,-5.9201,-5.9708,-6.0757,-6.0892,-6.1264,-6.2245,-6.2381,-6.2381,-6.2381,-6.2381,-6.2584,-6.3091,-6.4478,-6.5628,-6.6373,-6.6677,-6.6711,-6.644,-6.6508,-6.6592,-6.6507,-6.6129,-6.557,-6.4695,-6.4731,-6.4348,-6.3412,-6.41,-6.4359,-5.3051,-5.3423,0.0,-5.3714,-5.3637,0.0,-5.3359,0.0,0.0,0.0,0.0,0.0,0.0,0.0,-5.3225,-5.3225,-5.3225,-5.3225,0.0,-5.3225,0.0,0.0,0.0,0.0,0.0,0.0,-5.2197,-5.2747,-5.2145,-5.2053,0.0,0.0,-5.3099,-5.4153,-5.4375,-5.4936,-5.6016,-5.599,-5.5773,-5.5402,-5.5578,-5.5224,-5.4494,-5.4896,-5.4896,-5.4494,-5.4494,-5.4494,-5.4494,-5.4303,-5.4303,-5.4367,-5.4175,-5.411,-5.411,-5.411,-5.398,-5.3817,-5.3551,-5.3518,-5.3518,-5.3518,-5.3518,-5.3518,-5.3518,-5.3518,-5.3551,-5.3822,-5.4769,-5.5716,-5.5716,-5.6799,-5.7814,-5.7577,-5.7712,-5.7881,-5.7881,-5.7881,-5.7881,-5.7881,-5.849,-5.9099,-5.937,-6.0013,-6.0689,-6.1231,-6.1298,-6.1569,-6.2313,-6.2381,-6.2381,-6.2381,-6.2381,-6.2787,-6.3802,-6.4986,-6.5834,-6.6201,-6.6235,-6.6148,-6.5767,-6.5537,-6.5459,-6.5634,-6.5008,-6.4556,-6.4159,-6.4055,-6.3752,-6.3025,-6.3403,-6.3487]}]]